<?xml version="1.0" encoding="UTF-8" standalone="no" ?>
<gpx xmlns="http://www.topografix.com/GPX/1/1" xmlns:xsi="http://www.w3.org/2001/XMLSchema-instance" xsi:schemaLocation="http://www.topografix.com/GPX/1/1 http://www.topografix.com/GPX/1/1/gpx.xsd" version="1.1" creator="VisuGPX - https://www.visugpx.com">
  <metadata>
    <name>Cyclo - Tour Jura 1er</name>
    <desc><![CDATA[Superbe rando cyclo dans les paysages du Jura]]></desc>
  </metadata>
  <trk>
    <name><![CDATA[31-JUIL-14 16:25:14]]></name>
    <trkseg>
      <trkpt lat="46.68458" lon="5.56886">
        <ele>233.26</ele>
        <time>2014-07-31T07:08:35Z</time>
      </trkpt>
      <trkpt lat="46.6846" lon="5.56886">
        <ele>233.26</ele>
        <time>2014-07-31T07:08:36Z</time>
      </trkpt>
      <trkpt lat="46.68458" lon="5.56882">
        <ele>233.26</ele>
        <time>2014-07-31T07:08:53Z</time>
      </trkpt>
      <trkpt lat="46.68458" lon="5.56885">
        <ele>233.74</ele>
        <time>2014-07-31T07:09:03Z</time>
      </trkpt>
      <trkpt lat="46.68456" lon="5.56882">
        <ele>233.74</ele>
        <time>2014-07-31T07:11:54Z</time>
      </trkpt>
      <trkpt lat="46.68456" lon="5.56881">
        <ele>233.74</ele>
        <time>2014-07-31T07:11:55Z</time>
      </trkpt>
      <trkpt lat="46.68457" lon="5.56875">
        <ele>238.06</ele>
        <time>2014-07-31T07:12:04Z</time>
      </trkpt>
      <trkpt lat="46.68457" lon="5.56873">
        <ele>240.47</ele>
        <time>2014-07-31T07:12:06Z</time>
      </trkpt>
      <trkpt lat="46.68455" lon="5.56871">
        <ele>245.27</ele>
        <time>2014-07-31T07:12:10Z</time>
      </trkpt>
      <trkpt lat="46.68456" lon="5.56871">
        <ele>248.16</ele>
        <time>2014-07-31T07:12:14Z</time>
      </trkpt>
      <trkpt lat="46.68454" lon="5.56872">
        <ele>251.04</ele>
        <time>2014-07-31T07:12:22Z</time>
      </trkpt>
      <trkpt lat="46.68452" lon="5.5687">
        <ele>252</ele>
        <time>2014-07-31T07:12:24Z</time>
      </trkpt>
      <trkpt lat="46.68447" lon="5.56868">
        <ele>256.33</ele>
        <time>2014-07-31T07:12:29Z</time>
      </trkpt>
      <trkpt lat="46.68444" lon="5.56864">
        <ele>259.21</ele>
        <time>2014-07-31T07:12:33Z</time>
      </trkpt>
      <trkpt lat="46.68442" lon="5.56861">
        <ele>262.58</ele>
        <time>2014-07-31T07:12:37Z</time>
      </trkpt>
      <trkpt lat="46.68442" lon="5.56856">
        <ele>265.46</ele>
        <time>2014-07-31T07:12:41Z</time>
      </trkpt>
      <trkpt lat="46.68443" lon="5.56855">
        <ele>268.83</ele>
        <time>2014-07-31T07:12:46Z</time>
      </trkpt>
      <trkpt lat="46.68443" lon="5.56855">
        <ele>271.71</ele>
        <time>2014-07-31T07:12:51Z</time>
      </trkpt>
      <trkpt lat="46.6843" lon="5.56839">
        <ele>273.63</ele>
        <time>2014-07-31T07:15:26Z</time>
      </trkpt>
      <trkpt lat="46.68422" lon="5.56837">
        <ele>274.11</ele>
        <time>2014-07-31T07:15:37Z</time>
      </trkpt>
      <trkpt lat="46.68414" lon="5.56797">
        <ele>274.59</ele>
        <time>2014-07-31T07:15:51Z</time>
      </trkpt>
      <trkpt lat="46.68396" lon="5.56763">
        <ele>274.59</ele>
        <time>2014-07-31T07:16:04Z</time>
      </trkpt>
      <trkpt lat="46.68374" lon="5.5671">
        <ele>274.11</ele>
        <time>2014-07-31T07:16:18Z</time>
      </trkpt>
      <trkpt lat="46.68354" lon="5.56643">
        <ele>271.23</ele>
        <time>2014-07-31T07:16:32Z</time>
      </trkpt>
      <trkpt lat="46.68352" lon="5.56637">
        <ele>271.23</ele>
        <time>2014-07-31T07:16:33Z</time>
      </trkpt>
      <trkpt lat="46.68348" lon="5.56631">
        <ele>270.75</ele>
        <time>2014-07-31T07:16:36Z</time>
      </trkpt>
      <trkpt lat="46.68333" lon="5.56596">
        <ele>268.83</ele>
        <time>2014-07-31T07:16:48Z</time>
      </trkpt>
      <trkpt lat="46.68296" lon="5.56533">
        <ele>266.9</ele>
        <time>2014-07-31T07:16:59Z</time>
      </trkpt>
      <trkpt lat="46.68284" lon="5.56514">
        <ele>266.42</ele>
        <time>2014-07-31T07:17:03Z</time>
      </trkpt>
      <trkpt lat="46.68252" lon="5.56458">
        <ele>268.35</ele>
        <time>2014-07-31T07:17:18Z</time>
      </trkpt>
      <trkpt lat="46.68229" lon="5.56419">
        <ele>268.83</ele>
        <time>2014-07-31T07:17:29Z</time>
      </trkpt>
      <trkpt lat="46.68209" lon="5.56378">
        <ele>271.23</ele>
        <time>2014-07-31T07:17:41Z</time>
      </trkpt>
      <trkpt lat="46.68183" lon="5.56353">
        <ele>270.75</ele>
        <time>2014-07-31T07:17:49Z</time>
      </trkpt>
      <trkpt lat="46.6813" lon="5.56274">
        <ele>269.31</ele>
        <time>2014-07-31T07:18:05Z</time>
      </trkpt>
      <trkpt lat="46.68104" lon="5.56228">
        <ele>267.86</ele>
        <time>2014-07-31T07:18:13Z</time>
      </trkpt>
      <trkpt lat="46.68076" lon="5.5612">
        <ele>264.98</ele>
        <time>2014-07-31T07:18:27Z</time>
      </trkpt>
      <trkpt lat="46.68062" lon="5.56057">
        <ele>263.54</ele>
        <time>2014-07-31T07:18:35Z</time>
      </trkpt>
      <trkpt lat="46.68049" lon="5.56016">
        <ele>262.58</ele>
        <time>2014-07-31T07:18:44Z</time>
      </trkpt>
      <trkpt lat="46.68012" lon="5.55962">
        <ele>263.54</ele>
        <time>2014-07-31T07:18:58Z</time>
      </trkpt>
      <trkpt lat="46.67963" lon="5.55928">
        <ele>264.5</ele>
        <time>2014-07-31T07:19:13Z</time>
      </trkpt>
      <trkpt lat="46.67896" lon="5.55892">
        <ele>262.58</ele>
        <time>2014-07-31T07:19:30Z</time>
      </trkpt>
      <trkpt lat="46.67891" lon="5.55887">
        <ele>262.1</ele>
        <time>2014-07-31T07:19:41Z</time>
      </trkpt>
      <trkpt lat="46.67891" lon="5.55887">
        <ele>262.1</ele>
        <time>2014-07-31T07:19:46Z</time>
      </trkpt>
      <trkpt lat="46.67869" lon="5.55881">
        <ele>261.62</ele>
        <time>2014-07-31T07:19:56Z</time>
      </trkpt>
      <trkpt lat="46.67839" lon="5.55899">
        <ele>264.98</ele>
        <time>2014-07-31T07:20:10Z</time>
      </trkpt>
      <trkpt lat="46.67812" lon="5.55913">
        <ele>268.35</ele>
        <time>2014-07-31T07:20:23Z</time>
      </trkpt>
      <trkpt lat="46.67785" lon="5.55928">
        <ele>271.23</ele>
        <time>2014-07-31T07:20:36Z</time>
      </trkpt>
      <trkpt lat="46.67758" lon="5.55942">
        <ele>274.59</ele>
        <time>2014-07-31T07:20:49Z</time>
      </trkpt>
      <trkpt lat="46.67714" lon="5.5596">
        <ele>277.96</ele>
        <time>2014-07-31T07:21:08Z</time>
      </trkpt>
      <trkpt lat="46.67673" lon="5.55972">
        <ele>279.88</ele>
        <time>2014-07-31T07:21:25Z</time>
      </trkpt>
      <trkpt lat="46.6764" lon="5.55975">
        <ele>279.88</ele>
        <time>2014-07-31T07:21:40Z</time>
      </trkpt>
      <trkpt lat="46.6764" lon="5.55975">
        <ele>279.88</ele>
        <time>2014-07-31T07:21:58Z</time>
      </trkpt>
      <trkpt lat="46.67623" lon="5.55976">
        <ele>279.4</ele>
        <time>2014-07-31T07:22:10Z</time>
      </trkpt>
      <trkpt lat="46.67572" lon="5.5598">
        <ele>276.04</ele>
        <time>2014-07-31T07:22:21Z</time>
      </trkpt>
      <trkpt lat="46.67554" lon="5.55981">
        <ele>274.59</ele>
        <time>2014-07-31T07:22:24Z</time>
      </trkpt>
      <trkpt lat="46.67516" lon="5.55986">
        <ele>270.75</ele>
        <time>2014-07-31T07:22:29Z</time>
      </trkpt>
      <trkpt lat="46.67499" lon="5.55988">
        <ele>269.31</ele>
        <time>2014-07-31T07:22:31Z</time>
      </trkpt>
      <trkpt lat="46.67457" lon="5.55981">
        <ele>264.98</ele>
        <time>2014-07-31T07:22:36Z</time>
      </trkpt>
      <trkpt lat="46.67405" lon="5.55967">
        <ele>262.1</ele>
        <time>2014-07-31T07:22:42Z</time>
      </trkpt>
      <trkpt lat="46.67356" lon="5.55951">
        <ele>261.62</ele>
        <time>2014-07-31T07:22:51Z</time>
      </trkpt>
      <trkpt lat="46.67356" lon="5.5595">
        <ele>261.62</ele>
        <time>2014-07-31T07:22:53Z</time>
      </trkpt>
      <trkpt lat="46.67353" lon="5.5595">
        <ele>261.62</ele>
        <time>2014-07-31T07:22:56Z</time>
      </trkpt>
      <trkpt lat="46.6732" lon="5.55939">
        <ele>261.14</ele>
        <time>2014-07-31T07:23:10Z</time>
      </trkpt>
      <trkpt lat="46.6732" lon="5.55939">
        <ele>261.14</ele>
        <time>2014-07-31T07:23:30Z</time>
      </trkpt>
      <trkpt lat="46.6732" lon="5.55939">
        <ele>261.14</ele>
        <time>2014-07-31T07:23:36Z</time>
      </trkpt>
      <trkpt lat="46.67305" lon="5.55902">
        <ele>261.14</ele>
        <time>2014-07-31T07:23:49Z</time>
      </trkpt>
      <trkpt lat="46.67291" lon="5.55887">
        <ele>261.14</ele>
        <time>2014-07-31T07:24:02Z</time>
      </trkpt>
      <trkpt lat="46.67279" lon="5.55884">
        <ele>261.62</ele>
        <time>2014-07-31T07:24:09Z</time>
      </trkpt>
      <trkpt lat="46.67224" lon="5.55894">
        <ele>262.1</ele>
        <time>2014-07-31T07:24:24Z</time>
      </trkpt>
      <trkpt lat="46.67211" lon="5.55895">
        <ele>262.1</ele>
        <time>2014-07-31T07:24:27Z</time>
      </trkpt>
      <trkpt lat="46.67141" lon="5.559">
        <ele>262.58</ele>
        <time>2014-07-31T07:24:43Z</time>
      </trkpt>
      <trkpt lat="46.67128" lon="5.55895">
        <ele>262.58</ele>
        <time>2014-07-31T07:24:46Z</time>
      </trkpt>
      <trkpt lat="46.67124" lon="5.55895">
        <ele>262.58</ele>
        <time>2014-07-31T07:24:47Z</time>
      </trkpt>
      <trkpt lat="46.6712" lon="5.55896">
        <ele>262.58</ele>
        <time>2014-07-31T07:24:48Z</time>
      </trkpt>
      <trkpt lat="46.67116" lon="5.55898">
        <ele>262.58</ele>
        <time>2014-07-31T07:24:49Z</time>
      </trkpt>
      <trkpt lat="46.67112" lon="5.559">
        <ele>262.58</ele>
        <time>2014-07-31T07:24:50Z</time>
      </trkpt>
      <trkpt lat="46.67096" lon="5.5591">
        <ele>263.06</ele>
        <time>2014-07-31T07:24:54Z</time>
      </trkpt>
      <trkpt lat="46.67037" lon="5.55925">
        <ele>264.98</ele>
        <time>2014-07-31T07:25:09Z</time>
      </trkpt>
      <trkpt lat="46.67004" lon="5.55908">
        <ele>266.42</ele>
        <time>2014-07-31T07:25:18Z</time>
      </trkpt>
      <trkpt lat="46.66989" lon="5.559">
        <ele>267.38</ele>
        <time>2014-07-31T07:25:22Z</time>
      </trkpt>
      <trkpt lat="46.66963" lon="5.55876">
        <ele>270.27</ele>
        <time>2014-07-31T07:25:33Z</time>
      </trkpt>
      <trkpt lat="46.6696" lon="5.55875">
        <ele>270.75</ele>
        <time>2014-07-31T07:25:46Z</time>
      </trkpt>
      <trkpt lat="46.6696" lon="5.55875">
        <ele>270.75</ele>
        <time>2014-07-31T07:26:05Z</time>
      </trkpt>
      <trkpt lat="46.66948" lon="5.55893">
        <ele>270.75</ele>
        <time>2014-07-31T07:26:13Z</time>
      </trkpt>
      <trkpt lat="46.66927" lon="5.56008">
        <ele>271.71</ele>
        <time>2014-07-31T07:26:32Z</time>
      </trkpt>
      <trkpt lat="46.66898" lon="5.5614">
        <ele>272.19</ele>
        <time>2014-07-31T07:26:52Z</time>
      </trkpt>
      <trkpt lat="46.66865" lon="5.56287">
        <ele>273.15</ele>
        <time>2014-07-31T07:27:12Z</time>
      </trkpt>
      <trkpt lat="46.66842" lon="5.56427">
        <ele>274.59</ele>
        <time>2014-07-31T07:27:31Z</time>
      </trkpt>
      <trkpt lat="46.66837" lon="5.56554">
        <ele>275.56</ele>
        <time>2014-07-31T07:27:48Z</time>
      </trkpt>
      <trkpt lat="46.66853" lon="5.5669">
        <ele>276.52</ele>
        <time>2014-07-31T07:28:06Z</time>
      </trkpt>
      <trkpt lat="46.66884" lon="5.56826">
        <ele>277.48</ele>
        <time>2014-07-31T07:28:25Z</time>
      </trkpt>
      <trkpt lat="46.66923" lon="5.56948">
        <ele>277.96</ele>
        <time>2014-07-31T07:28:42Z</time>
      </trkpt>
      <trkpt lat="46.66977" lon="5.5709">
        <ele>276.52</ele>
        <time>2014-07-31T07:29:01Z</time>
      </trkpt>
      <trkpt lat="46.66988" lon="5.57117">
        <ele>276.04</ele>
        <time>2014-07-31T07:29:13Z</time>
      </trkpt>
      <trkpt lat="46.6699" lon="5.57123">
        <ele>276.04</ele>
        <time>2014-07-31T07:29:22Z</time>
      </trkpt>
      <trkpt lat="46.66994" lon="5.57132">
        <ele>276.52</ele>
        <time>2014-07-31T07:29:27Z</time>
      </trkpt>
      <trkpt lat="46.67005" lon="5.57158">
        <ele>276.52</ele>
        <time>2014-07-31T07:29:39Z</time>
      </trkpt>
      <trkpt lat="46.67011" lon="5.57177">
        <ele>277</ele>
        <time>2014-07-31T07:29:46Z</time>
      </trkpt>
      <trkpt lat="46.67012" lon="5.57191">
        <ele>277</ele>
        <time>2014-07-31T07:29:58Z</time>
      </trkpt>
      <trkpt lat="46.66989" lon="5.57239">
        <ele>277.48</ele>
        <time>2014-07-31T07:30:12Z</time>
      </trkpt>
      <trkpt lat="46.66982" lon="5.57245">
        <ele>277.48</ele>
        <time>2014-07-31T07:30:22Z</time>
      </trkpt>
      <trkpt lat="46.66981" lon="5.57245">
        <ele>277.48</ele>
        <time>2014-07-31T07:30:23Z</time>
      </trkpt>
      <trkpt lat="46.66978" lon="5.57246">
        <ele>277.48</ele>
        <time>2014-07-31T07:30:25Z</time>
      </trkpt>
      <trkpt lat="46.66977" lon="5.57248">
        <ele>277.48</ele>
        <time>2014-07-31T07:30:40Z</time>
      </trkpt>
      <trkpt lat="46.6697" lon="5.57268">
        <ele>277.48</ele>
        <time>2014-07-31T07:30:48Z</time>
      </trkpt>
      <trkpt lat="46.66951" lon="5.57326">
        <ele>279.4</ele>
        <time>2014-07-31T07:31:03Z</time>
      </trkpt>
      <trkpt lat="46.66937" lon="5.57331">
        <ele>279.4</ele>
        <time>2014-07-31T07:31:07Z</time>
      </trkpt>
      <trkpt lat="46.66907" lon="5.57272">
        <ele>278.92</ele>
        <time>2014-07-31T07:31:18Z</time>
      </trkpt>
      <trkpt lat="46.66848" lon="5.57201">
        <ele>277.96</ele>
        <time>2014-07-31T07:31:32Z</time>
      </trkpt>
      <trkpt lat="46.66785" lon="5.57175">
        <ele>279.4</ele>
        <time>2014-07-31T07:31:47Z</time>
      </trkpt>
      <trkpt lat="46.66734" lon="5.57171">
        <ele>282.28</ele>
        <time>2014-07-31T07:32:03Z</time>
      </trkpt>
      <trkpt lat="46.66696" lon="5.57166">
        <ele>285.17</ele>
        <time>2014-07-31T07:32:19Z</time>
      </trkpt>
      <trkpt lat="46.66669" lon="5.57162">
        <ele>288.53</ele>
        <time>2014-07-31T07:32:32Z</time>
      </trkpt>
      <trkpt lat="46.66642" lon="5.57153">
        <ele>291.42</ele>
        <time>2014-07-31T07:32:47Z</time>
      </trkpt>
      <trkpt lat="46.66621" lon="5.57146">
        <ele>294.3</ele>
        <time>2014-07-31T07:32:59Z</time>
      </trkpt>
      <trkpt lat="46.66596" lon="5.57138">
        <ele>297.67</ele>
        <time>2014-07-31T07:33:13Z</time>
      </trkpt>
      <trkpt lat="46.66573" lon="5.57134">
        <ele>300.55</ele>
        <time>2014-07-31T07:33:26Z</time>
      </trkpt>
      <trkpt lat="46.66546" lon="5.57128">
        <ele>303.91</ele>
        <time>2014-07-31T07:33:40Z</time>
      </trkpt>
      <trkpt lat="46.66523" lon="5.57124">
        <ele>307.28</ele>
        <time>2014-07-31T07:33:53Z</time>
      </trkpt>
      <trkpt lat="46.66497" lon="5.57121">
        <ele>310.16</ele>
        <time>2014-07-31T07:34:08Z</time>
      </trkpt>
      <trkpt lat="46.66472" lon="5.5712">
        <ele>313.05</ele>
        <time>2014-07-31T07:34:23Z</time>
      </trkpt>
      <trkpt lat="46.66448" lon="5.57124">
        <ele>316.41</ele>
        <time>2014-07-31T07:34:37Z</time>
      </trkpt>
      <trkpt lat="46.6643" lon="5.57125">
        <ele>319.3</ele>
        <time>2014-07-31T07:34:48Z</time>
      </trkpt>
      <trkpt lat="46.66405" lon="5.57129">
        <ele>322.66</ele>
        <time>2014-07-31T07:35:04Z</time>
      </trkpt>
      <trkpt lat="46.66378" lon="5.57135">
        <ele>326.02</ele>
        <time>2014-07-31T07:35:21Z</time>
      </trkpt>
      <trkpt lat="46.66355" lon="5.57141">
        <ele>328.91</ele>
        <time>2014-07-31T07:35:35Z</time>
      </trkpt>
      <trkpt lat="46.66329" lon="5.57146">
        <ele>332.27</ele>
        <time>2014-07-31T07:35:51Z</time>
      </trkpt>
      <trkpt lat="46.66308" lon="5.57151">
        <ele>335.16</ele>
        <time>2014-07-31T07:36:05Z</time>
      </trkpt>
      <trkpt lat="46.66285" lon="5.57153">
        <ele>338.52</ele>
        <time>2014-07-31T07:36:19Z</time>
      </trkpt>
      <trkpt lat="46.66264" lon="5.57156">
        <ele>341.41</ele>
        <time>2014-07-31T07:36:33Z</time>
      </trkpt>
      <trkpt lat="46.6624" lon="5.57157">
        <ele>344.77</ele>
        <time>2014-07-31T07:36:48Z</time>
      </trkpt>
      <trkpt lat="46.66219" lon="5.57159">
        <ele>347.65</ele>
        <time>2014-07-31T07:37:02Z</time>
      </trkpt>
      <trkpt lat="46.66198" lon="5.57161">
        <ele>350.54</ele>
        <time>2014-07-31T07:37:16Z</time>
      </trkpt>
      <trkpt lat="46.66172" lon="5.57167">
        <ele>353.9</ele>
        <time>2014-07-31T07:37:32Z</time>
      </trkpt>
      <trkpt lat="46.66149" lon="5.57172">
        <ele>357.27</ele>
        <time>2014-07-31T07:37:47Z</time>
      </trkpt>
      <trkpt lat="46.66129" lon="5.57175">
        <ele>360.15</ele>
        <time>2014-07-31T07:38:00Z</time>
      </trkpt>
      <trkpt lat="46.66108" lon="5.57179">
        <ele>363.04</ele>
        <time>2014-07-31T07:38:13Z</time>
      </trkpt>
      <trkpt lat="46.66088" lon="5.57185">
        <ele>366.4</ele>
        <time>2014-07-31T07:38:26Z</time>
      </trkpt>
      <trkpt lat="46.66066" lon="5.57191">
        <ele>369.28</ele>
        <time>2014-07-31T07:38:39Z</time>
      </trkpt>
      <trkpt lat="46.66047" lon="5.572">
        <ele>372.65</ele>
        <time>2014-07-31T07:38:51Z</time>
      </trkpt>
      <trkpt lat="46.66033" lon="5.57205">
        <ele>374.57</ele>
        <time>2014-07-31T07:39:00Z</time>
      </trkpt>
      <trkpt lat="46.6601" lon="5.57214">
        <ele>378.42</ele>
        <time>2014-07-31T07:39:14Z</time>
      </trkpt>
      <trkpt lat="46.65989" lon="5.57224">
        <ele>381.78</ele>
        <time>2014-07-31T07:39:27Z</time>
      </trkpt>
      <trkpt lat="46.6597" lon="5.57233">
        <ele>384.66</ele>
        <time>2014-07-31T07:39:38Z</time>
      </trkpt>
      <trkpt lat="46.6595" lon="5.57245">
        <ele>388.03</ele>
        <time>2014-07-31T07:39:50Z</time>
      </trkpt>
      <trkpt lat="46.65935" lon="5.57253">
        <ele>390.43</ele>
        <time>2014-07-31T07:39:59Z</time>
      </trkpt>
      <trkpt lat="46.65915" lon="5.57259">
        <ele>394.28</ele>
        <time>2014-07-31T07:40:11Z</time>
      </trkpt>
      <trkpt lat="46.65898" lon="5.57263">
        <ele>397.16</ele>
        <time>2014-07-31T07:40:22Z</time>
      </trkpt>
      <trkpt lat="46.65881" lon="5.57269">
        <ele>400.53</ele>
        <time>2014-07-31T07:40:33Z</time>
      </trkpt>
      <trkpt lat="46.65862" lon="5.57265">
        <ele>403.41</ele>
        <time>2014-07-31T07:40:47Z</time>
      </trkpt>
      <trkpt lat="46.65847" lon="5.57264">
        <ele>406.77</ele>
        <time>2014-07-31T07:40:58Z</time>
      </trkpt>
      <trkpt lat="46.65833" lon="5.57259">
        <ele>409.66</ele>
        <time>2014-07-31T07:41:10Z</time>
      </trkpt>
      <trkpt lat="46.65832" lon="5.57259">
        <ele>410.14</ele>
        <time>2014-07-31T07:41:11Z</time>
      </trkpt>
      <trkpt lat="46.65818" lon="5.57254">
        <ele>413.02</ele>
        <time>2014-07-31T07:41:23Z</time>
      </trkpt>
      <trkpt lat="46.65815" lon="5.57208">
        <ele>416.39</ele>
        <time>2014-07-31T07:41:34Z</time>
      </trkpt>
      <trkpt lat="46.65801" lon="5.57207">
        <ele>418.79</ele>
        <time>2014-07-31T07:41:48Z</time>
      </trkpt>
      <trkpt lat="46.65788" lon="5.57211">
        <ele>421.19</ele>
        <time>2014-07-31T07:41:57Z</time>
      </trkpt>
      <trkpt lat="46.65781" lon="5.57213">
        <ele>422.16</ele>
        <time>2014-07-31T07:42:03Z</time>
      </trkpt>
      <trkpt lat="46.6577" lon="5.57219">
        <ele>424.08</ele>
        <time>2014-07-31T07:42:10Z</time>
      </trkpt>
      <trkpt lat="46.65754" lon="5.57226">
        <ele>426</ele>
        <time>2014-07-31T07:42:21Z</time>
      </trkpt>
      <trkpt lat="46.6573" lon="5.57233">
        <ele>429.37</ele>
        <time>2014-07-31T07:42:36Z</time>
      </trkpt>
      <trkpt lat="46.65706" lon="5.5723">
        <ele>432.25</ele>
        <time>2014-07-31T07:42:52Z</time>
      </trkpt>
      <trkpt lat="46.65684" lon="5.57232">
        <ele>435.61</ele>
        <time>2014-07-31T07:43:07Z</time>
      </trkpt>
      <trkpt lat="46.65663" lon="5.57236">
        <ele>438.02</ele>
        <time>2014-07-31T07:43:19Z</time>
      </trkpt>
      <trkpt lat="46.65644" lon="5.57219">
        <ele>440.42</ele>
        <time>2014-07-31T07:43:33Z</time>
      </trkpt>
      <trkpt lat="46.65641" lon="5.57216">
        <ele>440.9</ele>
        <time>2014-07-31T07:43:35Z</time>
      </trkpt>
      <trkpt lat="46.65622" lon="5.57239">
        <ele>442.34</ele>
        <time>2014-07-31T07:43:51Z</time>
      </trkpt>
      <trkpt lat="46.65621" lon="5.57242">
        <ele>442.82</ele>
        <time>2014-07-31T07:43:53Z</time>
      </trkpt>
      <trkpt lat="46.65617" lon="5.5725">
        <ele>443.31</ele>
        <time>2014-07-31T07:43:57Z</time>
      </trkpt>
      <trkpt lat="46.65607" lon="5.57257">
        <ele>444.27</ele>
        <time>2014-07-31T07:44:04Z</time>
      </trkpt>
      <trkpt lat="46.65605" lon="5.57259">
        <ele>444.75</ele>
        <time>2014-07-31T07:44:19Z</time>
      </trkpt>
      <trkpt lat="46.65605" lon="5.57259">
        <ele>444.27</ele>
        <time>2014-07-31T07:44:46Z</time>
      </trkpt>
      <trkpt lat="46.65605" lon="5.57259">
        <ele>444.27</ele>
        <time>2014-07-31T07:45:07Z</time>
      </trkpt>
      <trkpt lat="46.65605" lon="5.57259">
        <ele>444.27</ele>
        <time>2014-07-31T07:45:32Z</time>
      </trkpt>
      <trkpt lat="46.65605" lon="5.57259">
        <ele>444.27</ele>
        <time>2014-07-31T07:46:05Z</time>
      </trkpt>
      <trkpt lat="46.65605" lon="5.57259">
        <ele>443.79</ele>
        <time>2014-07-31T07:46:32Z</time>
      </trkpt>
      <trkpt lat="46.65605" lon="5.57259">
        <ele>443.79</ele>
        <time>2014-07-31T07:47:02Z</time>
      </trkpt>
      <trkpt lat="46.65605" lon="5.57259">
        <ele>443.79</ele>
        <time>2014-07-31T07:47:24Z</time>
      </trkpt>
      <trkpt lat="46.65604" lon="5.57261">
        <ele>443.79</ele>
        <time>2014-07-31T07:47:27Z</time>
      </trkpt>
      <trkpt lat="46.65584" lon="5.57285">
        <ele>446.19</ele>
        <time>2014-07-31T07:47:44Z</time>
      </trkpt>
      <trkpt lat="46.65558" lon="5.57316">
        <ele>449.07</ele>
        <time>2014-07-31T07:48:03Z</time>
      </trkpt>
      <trkpt lat="46.65533" lon="5.57344">
        <ele>451.48</ele>
        <time>2014-07-31T07:48:20Z</time>
      </trkpt>
      <trkpt lat="46.65506" lon="5.57368">
        <ele>453.88</ele>
        <time>2014-07-31T07:48:37Z</time>
      </trkpt>
      <trkpt lat="46.65476" lon="5.57389">
        <ele>456.28</ele>
        <time>2014-07-31T07:48:55Z</time>
      </trkpt>
      <trkpt lat="46.6545" lon="5.57405">
        <ele>458.21</ele>
        <time>2014-07-31T07:49:11Z</time>
      </trkpt>
      <trkpt lat="46.65417" lon="5.57419">
        <ele>460.61</ele>
        <time>2014-07-31T07:49:27Z</time>
      </trkpt>
      <trkpt lat="46.65389" lon="5.57426">
        <ele>463.01</ele>
        <time>2014-07-31T07:49:42Z</time>
      </trkpt>
      <trkpt lat="46.65357" lon="5.57428">
        <ele>465.42</ele>
        <time>2014-07-31T07:49:59Z</time>
      </trkpt>
      <trkpt lat="46.65327" lon="5.57434">
        <ele>467.34</ele>
        <time>2014-07-31T07:50:15Z</time>
      </trkpt>
      <trkpt lat="46.65298" lon="5.57437">
        <ele>469.74</ele>
        <time>2014-07-31T07:50:31Z</time>
      </trkpt>
      <trkpt lat="46.65266" lon="5.57441">
        <ele>471.66</ele>
        <time>2014-07-31T07:50:48Z</time>
      </trkpt>
      <trkpt lat="46.65226" lon="5.57447">
        <ele>474.07</ele>
        <time>2014-07-31T07:51:09Z</time>
      </trkpt>
      <trkpt lat="46.65191" lon="5.57457">
        <ele>476.47</ele>
        <time>2014-07-31T07:51:27Z</time>
      </trkpt>
      <trkpt lat="46.65155" lon="5.57472">
        <ele>478.87</ele>
        <time>2014-07-31T07:51:45Z</time>
      </trkpt>
      <trkpt lat="46.65119" lon="5.57494">
        <ele>480.8</ele>
        <time>2014-07-31T07:52:02Z</time>
      </trkpt>
      <trkpt lat="46.65087" lon="5.57519">
        <ele>482.24</ele>
        <time>2014-07-31T07:52:17Z</time>
      </trkpt>
      <trkpt lat="46.65049" lon="5.57557">
        <ele>483.68</ele>
        <time>2014-07-31T07:52:34Z</time>
      </trkpt>
      <trkpt lat="46.65012" lon="5.57602">
        <ele>485.12</ele>
        <time>2014-07-31T07:52:51Z</time>
      </trkpt>
      <trkpt lat="46.64979" lon="5.57653">
        <ele>485.6</ele>
        <time>2014-07-31T07:53:05Z</time>
      </trkpt>
      <trkpt lat="46.64934" lon="5.57726">
        <ele>486.08</ele>
        <time>2014-07-31T07:53:22Z</time>
      </trkpt>
      <trkpt lat="46.64885" lon="5.57811">
        <ele>486.56</ele>
        <time>2014-07-31T07:53:41Z</time>
      </trkpt>
      <trkpt lat="46.64843" lon="5.57882">
        <ele>487.05</ele>
        <time>2014-07-31T07:53:57Z</time>
      </trkpt>
      <trkpt lat="46.64806" lon="5.57946">
        <ele>488.01</ele>
        <time>2014-07-31T07:54:11Z</time>
      </trkpt>
      <trkpt lat="46.64757" lon="5.58026">
        <ele>488.97</ele>
        <time>2014-07-31T07:54:29Z</time>
      </trkpt>
      <trkpt lat="46.64706" lon="5.58106">
        <ele>490.41</ele>
        <time>2014-07-31T07:54:49Z</time>
      </trkpt>
      <trkpt lat="46.64667" lon="5.58158">
        <ele>493.29</ele>
        <time>2014-07-31T07:55:04Z</time>
      </trkpt>
      <trkpt lat="46.64623" lon="5.5821">
        <ele>494.74</ele>
        <time>2014-07-31T07:55:21Z</time>
      </trkpt>
      <trkpt lat="46.64585" lon="5.58248">
        <ele>496.66</ele>
        <time>2014-07-31T07:55:35Z</time>
      </trkpt>
      <trkpt lat="46.64534" lon="5.58294">
        <ele>498.58</ele>
        <time>2014-07-31T07:55:53Z</time>
      </trkpt>
      <trkpt lat="46.64491" lon="5.58332">
        <ele>500.02</ele>
        <time>2014-07-31T07:56:08Z</time>
      </trkpt>
      <trkpt lat="46.64436" lon="5.58365">
        <ele>502.43</ele>
        <time>2014-07-31T07:56:26Z</time>
      </trkpt>
      <trkpt lat="46.64373" lon="5.58387">
        <ele>504.35</ele>
        <time>2014-07-31T07:56:46Z</time>
      </trkpt>
      <trkpt lat="46.64307" lon="5.58406">
        <ele>506.75</ele>
        <time>2014-07-31T07:57:07Z</time>
      </trkpt>
      <trkpt lat="46.64245" lon="5.58424">
        <ele>510.12</ele>
        <time>2014-07-31T07:57:28Z</time>
      </trkpt>
      <trkpt lat="46.64193" lon="5.58439">
        <ele>512.52</ele>
        <time>2014-07-31T07:57:47Z</time>
      </trkpt>
      <trkpt lat="46.64152" lon="5.58452">
        <ele>514.92</ele>
        <time>2014-07-31T07:58:03Z</time>
      </trkpt>
      <trkpt lat="46.64123" lon="5.58461">
        <ele>516.85</ele>
        <time>2014-07-31T07:58:16Z</time>
      </trkpt>
      <trkpt lat="46.64087" lon="5.58471">
        <ele>519.25</ele>
        <time>2014-07-31T07:58:32Z</time>
      </trkpt>
      <trkpt lat="46.64057" lon="5.58483">
        <ele>521.17</ele>
        <time>2014-07-31T07:58:46Z</time>
      </trkpt>
      <trkpt lat="46.64029" lon="5.58492">
        <ele>523.09</ele>
        <time>2014-07-31T07:58:59Z</time>
      </trkpt>
      <trkpt lat="46.64001" lon="5.58499">
        <ele>525.02</ele>
        <time>2014-07-31T07:59:12Z</time>
      </trkpt>
      <trkpt lat="46.63978" lon="5.58509">
        <ele>526.46</ele>
        <time>2014-07-31T07:59:22Z</time>
      </trkpt>
      <trkpt lat="46.63942" lon="5.58518">
        <ele>528.38</ele>
        <time>2014-07-31T07:59:37Z</time>
      </trkpt>
      <trkpt lat="46.63914" lon="5.58524">
        <ele>529.82</ele>
        <time>2014-07-31T07:59:48Z</time>
      </trkpt>
      <trkpt lat="46.63879" lon="5.58533">
        <ele>532.23</ele>
        <time>2014-07-31T08:00:03Z</time>
      </trkpt>
      <trkpt lat="46.6384" lon="5.58544">
        <ele>534.15</ele>
        <time>2014-07-31T08:00:18Z</time>
      </trkpt>
      <trkpt lat="46.63804" lon="5.58555">
        <ele>536.07</ele>
        <time>2014-07-31T08:00:32Z</time>
      </trkpt>
      <trkpt lat="46.63755" lon="5.58574">
        <ele>537.99</ele>
        <time>2014-07-31T08:00:51Z</time>
      </trkpt>
      <trkpt lat="46.63712" lon="5.58581">
        <ele>538.96</ele>
        <time>2014-07-31T08:01:08Z</time>
      </trkpt>
      <trkpt lat="46.63711" lon="5.58582">
        <ele>538.48</ele>
        <time>2014-07-31T08:01:18Z</time>
      </trkpt>
      <trkpt lat="46.63711" lon="5.58582">
        <ele>538.48</ele>
        <time>2014-07-31T08:01:44Z</time>
      </trkpt>
      <trkpt lat="46.63711" lon="5.58582">
        <ele>538.48</ele>
        <time>2014-07-31T08:02:08Z</time>
      </trkpt>
      <trkpt lat="46.63709" lon="5.58586">
        <ele>538.48</ele>
        <time>2014-07-31T08:02:24Z</time>
      </trkpt>
      <trkpt lat="46.6368" lon="5.58627">
        <ele>539.44</ele>
        <time>2014-07-31T08:02:42Z</time>
      </trkpt>
      <trkpt lat="46.63624" lon="5.58676">
        <ele>539.92</ele>
        <time>2014-07-31T08:02:59Z</time>
      </trkpt>
      <trkpt lat="46.6355" lon="5.58739">
        <ele>540.4</ele>
        <time>2014-07-31T08:03:17Z</time>
      </trkpt>
      <trkpt lat="46.63459" lon="5.58821">
        <ele>541.36</ele>
        <time>2014-07-31T08:03:37Z</time>
      </trkpt>
      <trkpt lat="46.63362" lon="5.58905">
        <ele>541.84</ele>
        <time>2014-07-31T08:03:58Z</time>
      </trkpt>
      <trkpt lat="46.63257" lon="5.58997">
        <ele>542.8</ele>
        <time>2014-07-31T08:04:20Z</time>
      </trkpt>
      <trkpt lat="46.63163" lon="5.59079">
        <ele>543.76</ele>
        <time>2014-07-31T08:04:40Z</time>
      </trkpt>
      <trkpt lat="46.63112" lon="5.59123">
        <ele>543.28</ele>
        <time>2014-07-31T08:04:54Z</time>
      </trkpt>
      <trkpt lat="46.63112" lon="5.59123">
        <ele>543.28</ele>
        <time>2014-07-31T08:05:17Z</time>
      </trkpt>
      <trkpt lat="46.63112" lon="5.59123">
        <ele>543.28</ele>
        <time>2014-07-31T08:05:35Z</time>
      </trkpt>
      <trkpt lat="46.63112" lon="5.59123">
        <ele>543.28</ele>
        <time>2014-07-31T08:05:41Z</time>
      </trkpt>
      <trkpt lat="46.63106" lon="5.59116">
        <ele>543.28</ele>
        <time>2014-07-31T08:05:45Z</time>
      </trkpt>
      <trkpt lat="46.63074" lon="5.59094">
        <ele>544.72</ele>
        <time>2014-07-31T08:05:57Z</time>
      </trkpt>
      <trkpt lat="46.63028" lon="5.59081">
        <ele>545.69</ele>
        <time>2014-07-31T08:06:11Z</time>
      </trkpt>
      <trkpt lat="46.62999" lon="5.59071">
        <ele>545.69</ele>
        <time>2014-07-31T08:06:18Z</time>
      </trkpt>
      <trkpt lat="46.62977" lon="5.5907">
        <ele>545.69</ele>
        <time>2014-07-31T08:06:23Z</time>
      </trkpt>
      <trkpt lat="46.62914" lon="5.59095">
        <ele>547.61</ele>
        <time>2014-07-31T08:06:38Z</time>
      </trkpt>
      <trkpt lat="46.62854" lon="5.59112">
        <ele>546.65</ele>
        <time>2014-07-31T08:06:52Z</time>
      </trkpt>
      <trkpt lat="46.62848" lon="5.59114">
        <ele>546.17</ele>
        <time>2014-07-31T08:06:53Z</time>
      </trkpt>
      <trkpt lat="46.62806" lon="5.59136">
        <ele>545.2</ele>
        <time>2014-07-31T08:07:00Z</time>
      </trkpt>
      <trkpt lat="46.62775" lon="5.59134">
        <ele>545.2</ele>
        <time>2014-07-31T08:07:05Z</time>
      </trkpt>
      <trkpt lat="46.62747" lon="5.5912">
        <ele>545.69</ele>
        <time>2014-07-31T08:07:10Z</time>
      </trkpt>
      <trkpt lat="46.62712" lon="5.59117">
        <ele>546.65</ele>
        <time>2014-07-31T08:07:17Z</time>
      </trkpt>
      <trkpt lat="46.62703" lon="5.59117">
        <ele>547.13</ele>
        <time>2014-07-31T08:07:19Z</time>
      </trkpt>
      <trkpt lat="46.62685" lon="5.59118">
        <ele>547.61</ele>
        <time>2014-07-31T08:07:23Z</time>
      </trkpt>
      <trkpt lat="46.62667" lon="5.59118">
        <ele>547.13</ele>
        <time>2014-07-31T08:07:27Z</time>
      </trkpt>
      <trkpt lat="46.6262" lon="5.59121">
        <ele>546.65</ele>
        <time>2014-07-31T08:07:36Z</time>
      </trkpt>
      <trkpt lat="46.62604" lon="5.59123">
        <ele>546.65</ele>
        <time>2014-07-31T08:07:39Z</time>
      </trkpt>
      <trkpt lat="46.62583" lon="5.59134">
        <ele>546.65</ele>
        <time>2014-07-31T08:07:43Z</time>
      </trkpt>
      <trkpt lat="46.62546" lon="5.59159">
        <ele>546.65</ele>
        <time>2014-07-31T08:07:50Z</time>
      </trkpt>
      <trkpt lat="46.62466" lon="5.5918">
        <ele>547.61</ele>
        <time>2014-07-31T08:08:06Z</time>
      </trkpt>
      <trkpt lat="46.62451" lon="5.5918">
        <ele>547.61</ele>
        <time>2014-07-31T08:08:09Z</time>
      </trkpt>
      <trkpt lat="46.62433" lon="5.59178">
        <ele>547.61</ele>
        <time>2014-07-31T08:08:13Z</time>
      </trkpt>
      <trkpt lat="46.62408" lon="5.59168">
        <ele>547.61</ele>
        <time>2014-07-31T08:08:19Z</time>
      </trkpt>
      <trkpt lat="46.6235" lon="5.59121">
        <ele>548.09</ele>
        <time>2014-07-31T08:08:35Z</time>
      </trkpt>
      <trkpt lat="46.6235" lon="5.5912">
        <ele>548.09</ele>
        <time>2014-07-31T08:08:47Z</time>
      </trkpt>
      <trkpt lat="46.6235" lon="5.5912">
        <ele>548.09</ele>
        <time>2014-07-31T08:09:06Z</time>
      </trkpt>
      <trkpt lat="46.62349" lon="5.5912">
        <ele>548.09</ele>
        <time>2014-07-31T08:09:38Z</time>
      </trkpt>
      <trkpt lat="46.6234" lon="5.59115">
        <ele>548.57</ele>
        <time>2014-07-31T08:09:50Z</time>
      </trkpt>
      <trkpt lat="46.62336" lon="5.59111">
        <ele>548.09</ele>
        <time>2014-07-31T08:09:52Z</time>
      </trkpt>
      <trkpt lat="46.6232" lon="5.591">
        <ele>549.05</ele>
        <time>2014-07-31T08:10:02Z</time>
      </trkpt>
      <trkpt lat="46.6232" lon="5.59103">
        <ele>549.05</ele>
        <time>2014-07-31T08:10:04Z</time>
      </trkpt>
      <trkpt lat="46.62324" lon="5.59106">
        <ele>549.05</ele>
        <time>2014-07-31T08:10:07Z</time>
      </trkpt>
      <trkpt lat="46.62322" lon="5.591">
        <ele>549.05</ele>
        <time>2014-07-31T08:10:14Z</time>
      </trkpt>
      <trkpt lat="46.62296" lon="5.59079">
        <ele>550.01</ele>
        <time>2014-07-31T08:10:27Z</time>
      </trkpt>
      <trkpt lat="46.62265" lon="5.59053">
        <ele>550.97</ele>
        <time>2014-07-31T08:10:40Z</time>
      </trkpt>
      <trkpt lat="46.62218" lon="5.59017">
        <ele>552.9</ele>
        <time>2014-07-31T08:10:57Z</time>
      </trkpt>
      <trkpt lat="46.62184" lon="5.5899">
        <ele>555.3</ele>
        <time>2014-07-31T08:11:10Z</time>
      </trkpt>
      <trkpt lat="46.62149" lon="5.58964">
        <ele>557.7</ele>
        <time>2014-07-31T08:11:24Z</time>
      </trkpt>
      <trkpt lat="46.62115" lon="5.58949">
        <ele>560.11</ele>
        <time>2014-07-31T08:11:39Z</time>
      </trkpt>
      <trkpt lat="46.62078" lon="5.58932">
        <ele>562.51</ele>
        <time>2014-07-31T08:11:54Z</time>
      </trkpt>
      <trkpt lat="46.62059" lon="5.58924">
        <ele>563.47</ele>
        <time>2014-07-31T08:12:02Z</time>
      </trkpt>
      <trkpt lat="46.62026" lon="5.58909">
        <ele>565.39</ele>
        <time>2014-07-31T08:12:16Z</time>
      </trkpt>
      <trkpt lat="46.61999" lon="5.58853">
        <ele>567.8</ele>
        <time>2014-07-31T08:12:31Z</time>
      </trkpt>
      <trkpt lat="46.61995" lon="5.58779">
        <ele>570.68</ele>
        <time>2014-07-31T08:12:49Z</time>
      </trkpt>
      <trkpt lat="46.61989" lon="5.5872">
        <ele>571.64</ele>
        <time>2014-07-31T08:13:02Z</time>
      </trkpt>
      <trkpt lat="46.61958" lon="5.58684">
        <ele>572.6</ele>
        <time>2014-07-31T08:13:15Z</time>
      </trkpt>
      <trkpt lat="46.61921" lon="5.58692">
        <ele>575.01</ele>
        <time>2014-07-31T08:13:29Z</time>
      </trkpt>
      <trkpt lat="46.61888" lon="5.58714">
        <ele>576.93</ele>
        <time>2014-07-31T08:13:43Z</time>
      </trkpt>
      <trkpt lat="46.61858" lon="5.58728">
        <ele>579.33</ele>
        <time>2014-07-31T08:13:58Z</time>
      </trkpt>
      <trkpt lat="46.6183" lon="5.58746">
        <ele>581.25</ele>
        <time>2014-07-31T08:14:11Z</time>
      </trkpt>
      <trkpt lat="46.61799" lon="5.58764">
        <ele>583.18</ele>
        <time>2014-07-31T08:14:25Z</time>
      </trkpt>
      <trkpt lat="46.61771" lon="5.58784">
        <ele>585.58</ele>
        <time>2014-07-31T08:14:39Z</time>
      </trkpt>
      <trkpt lat="46.61735" lon="5.58815">
        <ele>587.5</ele>
        <time>2014-07-31T08:14:53Z</time>
      </trkpt>
      <trkpt lat="46.61698" lon="5.5886">
        <ele>589.91</ele>
        <time>2014-07-31T08:15:11Z</time>
      </trkpt>
      <trkpt lat="46.61666" lon="5.58896">
        <ele>591.83</ele>
        <time>2014-07-31T08:15:28Z</time>
      </trkpt>
      <trkpt lat="46.61638" lon="5.58917">
        <ele>593.75</ele>
        <time>2014-07-31T08:15:41Z</time>
      </trkpt>
      <trkpt lat="46.61637" lon="5.58918">
        <ele>593.75</ele>
        <time>2014-07-31T08:15:42Z</time>
      </trkpt>
      <trkpt lat="46.61636" lon="5.58929">
        <ele>594.23</ele>
        <time>2014-07-31T08:15:54Z</time>
      </trkpt>
      <trkpt lat="46.61636" lon="5.58929">
        <ele>594.23</ele>
        <time>2014-07-31T08:16:09Z</time>
      </trkpt>
      <trkpt lat="46.61636" lon="5.58929">
        <ele>593.75</ele>
        <time>2014-07-31T08:16:28Z</time>
      </trkpt>
      <trkpt lat="46.61636" lon="5.5893">
        <ele>593.75</ele>
        <time>2014-07-31T08:16:57Z</time>
      </trkpt>
      <trkpt lat="46.61636" lon="5.5893">
        <ele>594.23</ele>
        <time>2014-07-31T08:17:09Z</time>
      </trkpt>
      <trkpt lat="46.6164" lon="5.58935">
        <ele>594.23</ele>
        <time>2014-07-31T08:17:19Z</time>
      </trkpt>
      <trkpt lat="46.61649" lon="5.5896">
        <ele>594.23</ele>
        <time>2014-07-31T08:17:29Z</time>
      </trkpt>
      <trkpt lat="46.6165" lon="5.59008">
        <ele>596.15</ele>
        <time>2014-07-31T08:17:44Z</time>
      </trkpt>
      <trkpt lat="46.61638" lon="5.59032">
        <ele>598.08</ele>
        <time>2014-07-31T08:17:54Z</time>
      </trkpt>
      <trkpt lat="46.61634" lon="5.59037">
        <ele>598.08</ele>
        <time>2014-07-31T08:18:01Z</time>
      </trkpt>
      <trkpt lat="46.61635" lon="5.5904">
        <ele>597.6</ele>
        <time>2014-07-31T08:18:15Z</time>
      </trkpt>
      <trkpt lat="46.61635" lon="5.5904">
        <ele>597.6</ele>
        <time>2014-07-31T08:18:27Z</time>
      </trkpt>
      <trkpt lat="46.61633" lon="5.59036">
        <ele>598.08</ele>
        <time>2014-07-31T08:18:36Z</time>
      </trkpt>
      <trkpt lat="46.61637" lon="5.59048">
        <ele>597.6</ele>
        <time>2014-07-31T08:18:40Z</time>
      </trkpt>
      <trkpt lat="46.61654" lon="5.59097">
        <ele>594.23</ele>
        <time>2014-07-31T08:18:47Z</time>
      </trkpt>
      <trkpt lat="46.61657" lon="5.59137">
        <ele>590.39</ele>
        <time>2014-07-31T08:18:51Z</time>
      </trkpt>
      <trkpt lat="46.61671" lon="5.59175">
        <ele>586.06</ele>
        <time>2014-07-31T08:18:56Z</time>
      </trkpt>
      <trkpt lat="46.61672" lon="5.5919">
        <ele>584.14</ele>
        <time>2014-07-31T08:19:00Z</time>
      </trkpt>
      <trkpt lat="46.61671" lon="5.59191">
        <ele>583.18</ele>
        <time>2014-07-31T08:19:08Z</time>
      </trkpt>
      <trkpt lat="46.61671" lon="5.5919">
        <ele>583.66</ele>
        <time>2014-07-31T08:19:09Z</time>
      </trkpt>
      <trkpt lat="46.6167" lon="5.59182">
        <ele>584.62</ele>
        <time>2014-07-31T08:19:15Z</time>
      </trkpt>
      <trkpt lat="46.61669" lon="5.59173">
        <ele>585.58</ele>
        <time>2014-07-31T08:19:27Z</time>
      </trkpt>
      <trkpt lat="46.61669" lon="5.59173">
        <ele>585.58</ele>
        <time>2014-07-31T08:19:50Z</time>
      </trkpt>
      <trkpt lat="46.61671" lon="5.59173">
        <ele>585.58</ele>
        <time>2014-07-31T08:20:12Z</time>
      </trkpt>
      <trkpt lat="46.61672" lon="5.59174">
        <ele>585.58</ele>
        <time>2014-07-31T08:20:15Z</time>
      </trkpt>
      <trkpt lat="46.61674" lon="5.59179">
        <ele>585.58</ele>
        <time>2014-07-31T08:20:18Z</time>
      </trkpt>
      <trkpt lat="46.6165" lon="5.59198">
        <ele>582.22</ele>
        <time>2014-07-31T08:20:25Z</time>
      </trkpt>
      <trkpt lat="46.61637" lon="5.592">
        <ele>581.25</ele>
        <time>2014-07-31T08:20:27Z</time>
      </trkpt>
      <trkpt lat="46.61611" lon="5.5923">
        <ele>577.41</ele>
        <time>2014-07-31T08:20:32Z</time>
      </trkpt>
      <trkpt lat="46.61608" lon="5.59241">
        <ele>576.93</ele>
        <time>2014-07-31T08:20:33Z</time>
      </trkpt>
      <trkpt lat="46.61597" lon="5.59296">
        <ele>571.64</ele>
        <time>2014-07-31T08:20:38Z</time>
      </trkpt>
      <trkpt lat="46.61587" lon="5.59341">
        <ele>567.8</ele>
        <time>2014-07-31T08:20:42Z</time>
      </trkpt>
      <trkpt lat="46.61579" lon="5.59397">
        <ele>563.47</ele>
        <time>2014-07-31T08:20:46Z</time>
      </trkpt>
      <trkpt lat="46.61577" lon="5.59463">
        <ele>559.62</ele>
        <time>2014-07-31T08:20:50Z</time>
      </trkpt>
      <trkpt lat="46.61576" lon="5.59511">
        <ele>556.74</ele>
        <time>2014-07-31T08:20:53Z</time>
      </trkpt>
      <trkpt lat="46.61574" lon="5.59567">
        <ele>553.38</ele>
        <time>2014-07-31T08:20:57Z</time>
      </trkpt>
      <trkpt lat="46.61575" lon="5.59612">
        <ele>550.49</ele>
        <time>2014-07-31T08:21:01Z</time>
      </trkpt>
      <trkpt lat="46.61557" lon="5.59636">
        <ele>548.57</ele>
        <time>2014-07-31T08:21:08Z</time>
      </trkpt>
      <trkpt lat="46.61488" lon="5.59636">
        <ele>548.57</ele>
        <time>2014-07-31T08:21:25Z</time>
      </trkpt>
      <trkpt lat="46.61397" lon="5.59636">
        <ele>548.09</ele>
        <time>2014-07-31T08:21:42Z</time>
      </trkpt>
      <trkpt lat="46.61305" lon="5.59634">
        <ele>550.97</ele>
        <time>2014-07-31T08:22:01Z</time>
      </trkpt>
      <trkpt lat="46.61236" lon="5.59634">
        <ele>553.86</ele>
        <time>2014-07-31T08:22:19Z</time>
      </trkpt>
      <trkpt lat="46.61158" lon="5.59633">
        <ele>556.26</ele>
        <time>2014-07-31T08:22:39Z</time>
      </trkpt>
      <trkpt lat="46.61095" lon="5.59633">
        <ele>558.18</ele>
        <time>2014-07-31T08:22:56Z</time>
      </trkpt>
      <trkpt lat="46.6102" lon="5.59632">
        <ele>561.07</ele>
        <time>2014-07-31T08:23:16Z</time>
      </trkpt>
      <trkpt lat="46.60945" lon="5.59632">
        <ele>562.99</ele>
        <time>2014-07-31T08:23:35Z</time>
      </trkpt>
      <trkpt lat="46.60893" lon="5.59632">
        <ele>565.39</ele>
        <time>2014-07-31T08:23:49Z</time>
      </trkpt>
      <trkpt lat="46.60823" lon="5.59631">
        <ele>567.8</ele>
        <time>2014-07-31T08:24:08Z</time>
      </trkpt>
      <trkpt lat="46.60764" lon="5.5963">
        <ele>569.24</ele>
        <time>2014-07-31T08:24:23Z</time>
      </trkpt>
      <trkpt lat="46.6074" lon="5.5963">
        <ele>569.72</ele>
        <time>2014-07-31T08:24:29Z</time>
      </trkpt>
      <trkpt lat="46.60678" lon="5.59628">
        <ele>571.64</ele>
        <time>2014-07-31T08:24:45Z</time>
      </trkpt>
      <trkpt lat="46.60598" lon="5.59627">
        <ele>573.56</ele>
        <time>2014-07-31T08:25:05Z</time>
      </trkpt>
      <trkpt lat="46.60524" lon="5.59625">
        <ele>576.45</ele>
        <time>2014-07-31T08:25:24Z</time>
      </trkpt>
      <trkpt lat="46.60485" lon="5.59625">
        <ele>577.89</ele>
        <time>2014-07-31T08:25:34Z</time>
      </trkpt>
      <trkpt lat="46.60383" lon="5.59617">
        <ele>580.29</ele>
        <time>2014-07-31T08:25:58Z</time>
      </trkpt>
      <trkpt lat="46.60298" lon="5.59612">
        <ele>580.77</ele>
        <time>2014-07-31T08:26:16Z</time>
      </trkpt>
      <trkpt lat="46.60171" lon="5.596">
        <ele>579.33</ele>
        <time>2014-07-31T08:26:37Z</time>
      </trkpt>
      <trkpt lat="46.60021" lon="5.59585">
        <ele>578.37</ele>
        <time>2014-07-31T08:26:59Z</time>
      </trkpt>
      <trkpt lat="46.5987" lon="5.59572">
        <ele>576.93</ele>
        <time>2014-07-31T08:27:21Z</time>
      </trkpt>
      <trkpt lat="46.59737" lon="5.59558">
        <ele>573.56</ele>
        <time>2014-07-31T08:27:38Z</time>
      </trkpt>
      <trkpt lat="46.59597" lon="5.59542">
        <ele>573.56</ele>
        <time>2014-07-31T08:27:56Z</time>
      </trkpt>
      <trkpt lat="46.59448" lon="5.59535">
        <ele>571.64</ele>
        <time>2014-07-31T08:28:16Z</time>
      </trkpt>
      <trkpt lat="46.59323" lon="5.59535">
        <ele>568.28</ele>
        <time>2014-07-31T08:28:31Z</time>
      </trkpt>
      <trkpt lat="46.59314" lon="5.59535">
        <ele>567.8</ele>
        <time>2014-07-31T08:28:32Z</time>
      </trkpt>
      <trkpt lat="46.59201" lon="5.59531">
        <ele>564.91</ele>
        <time>2014-07-31T08:28:44Z</time>
      </trkpt>
      <trkpt lat="46.59043" lon="5.59518">
        <ele>562.51</ele>
        <time>2014-07-31T08:29:02Z</time>
      </trkpt>
      <trkpt lat="46.5892" lon="5.59511">
        <ele>561.07</ele>
        <time>2014-07-31T08:29:17Z</time>
      </trkpt>
      <trkpt lat="46.58769" lon="5.595">
        <ele>560.11</ele>
        <time>2014-07-31T08:29:37Z</time>
      </trkpt>
      <trkpt lat="46.58667" lon="5.59491">
        <ele>560.11</ele>
        <time>2014-07-31T08:29:52Z</time>
      </trkpt>
      <trkpt lat="46.58555" lon="5.5948">
        <ele>559.14</ele>
        <time>2014-07-31T08:30:09Z</time>
      </trkpt>
      <trkpt lat="46.58512" lon="5.59476">
        <ele>558.18</ele>
        <time>2014-07-31T08:30:18Z</time>
      </trkpt>
      <trkpt lat="46.58511" lon="5.59476">
        <ele>558.66</ele>
        <time>2014-07-31T08:30:31Z</time>
      </trkpt>
      <trkpt lat="46.58511" lon="5.59476">
        <ele>557.7</ele>
        <time>2014-07-31T08:30:44Z</time>
      </trkpt>
      <trkpt lat="46.58507" lon="5.59333">
        <ele>557.22</ele>
        <time>2014-07-31T08:33:21Z</time>
      </trkpt>
      <trkpt lat="46.58509" lon="5.59314">
        <ele>556.74</ele>
        <time>2014-07-31T08:33:23Z</time>
      </trkpt>
      <trkpt lat="46.58513" lon="5.59236">
        <ele>557.22</ele>
        <time>2014-07-31T08:33:36Z</time>
      </trkpt>
      <trkpt lat="46.58519" lon="5.59178">
        <ele>559.14</ele>
        <time>2014-07-31T08:33:49Z</time>
      </trkpt>
      <trkpt lat="46.58532" lon="5.59105">
        <ele>561.55</ele>
        <time>2014-07-31T08:34:05Z</time>
      </trkpt>
      <trkpt lat="46.58542" lon="5.59047">
        <ele>564.43</ele>
        <time>2014-07-31T08:34:19Z</time>
      </trkpt>
      <trkpt lat="46.58537" lon="5.58987">
        <ele>566.35</ele>
        <time>2014-07-31T08:34:34Z</time>
      </trkpt>
      <trkpt lat="46.58528" lon="5.5892">
        <ele>567.32</ele>
        <time>2014-07-31T08:34:50Z</time>
      </trkpt>
      <trkpt lat="46.5852" lon="5.58889">
        <ele>568.76</ele>
        <time>2014-07-31T08:34:59Z</time>
      </trkpt>
      <trkpt lat="46.58501" lon="5.58825">
        <ele>569.24</ele>
        <time>2014-07-31T08:35:13Z</time>
      </trkpt>
      <trkpt lat="46.58497" lon="5.58779">
        <ele>569.24</ele>
        <time>2014-07-31T08:35:25Z</time>
      </trkpt>
      <trkpt lat="46.58498" lon="5.58756">
        <ele>568.76</ele>
        <time>2014-07-31T08:35:29Z</time>
      </trkpt>
      <trkpt lat="46.58504" lon="5.58728">
        <ele>567.8</ele>
        <time>2014-07-31T08:35:33Z</time>
      </trkpt>
      <trkpt lat="46.58518" lon="5.587">
        <ele>566.83</ele>
        <time>2014-07-31T08:35:37Z</time>
      </trkpt>
      <trkpt lat="46.5857" lon="5.58656">
        <ele>563.47</ele>
        <time>2014-07-31T08:35:46Z</time>
      </trkpt>
      <trkpt lat="46.58639" lon="5.58616">
        <ele>561.07</ele>
        <time>2014-07-31T08:35:57Z</time>
      </trkpt>
      <trkpt lat="46.58652" lon="5.58605">
        <ele>560.59</ele>
        <time>2014-07-31T08:36:00Z</time>
      </trkpt>
      <trkpt lat="46.58662" lon="5.58584">
        <ele>561.07</ele>
        <time>2014-07-31T08:36:05Z</time>
      </trkpt>
      <trkpt lat="46.58677" lon="5.5851">
        <ele>561.07</ele>
        <time>2014-07-31T08:36:21Z</time>
      </trkpt>
      <trkpt lat="46.58694" lon="5.58453">
        <ele>562.03</ele>
        <time>2014-07-31T08:36:35Z</time>
      </trkpt>
      <trkpt lat="46.5871" lon="5.58389">
        <ele>563.95</ele>
        <time>2014-07-31T08:36:52Z</time>
      </trkpt>
      <trkpt lat="46.58726" lon="5.58339">
        <ele>565.87</ele>
        <time>2014-07-31T08:37:07Z</time>
      </trkpt>
      <trkpt lat="46.58748" lon="5.58292">
        <ele>568.28</ele>
        <time>2014-07-31T08:37:23Z</time>
      </trkpt>
      <trkpt lat="46.58775" lon="5.58248">
        <ele>570.2</ele>
        <time>2014-07-31T08:37:39Z</time>
      </trkpt>
      <trkpt lat="46.58804" lon="5.58223">
        <ele>572.12</ele>
        <time>2014-07-31T08:37:52Z</time>
      </trkpt>
      <trkpt lat="46.58837" lon="5.58191">
        <ele>574.53</ele>
        <time>2014-07-31T08:38:08Z</time>
      </trkpt>
      <trkpt lat="46.58865" lon="5.5815">
        <ele>576.45</ele>
        <time>2014-07-31T08:38:24Z</time>
      </trkpt>
      <trkpt lat="46.58884" lon="5.58104">
        <ele>579.33</ele>
        <time>2014-07-31T08:38:42Z</time>
      </trkpt>
      <trkpt lat="46.58892" lon="5.58065">
        <ele>582.22</ele>
        <time>2014-07-31T08:38:58Z</time>
      </trkpt>
      <trkpt lat="46.58882" lon="5.58049">
        <ele>583.18</ele>
        <time>2014-07-31T08:39:07Z</time>
      </trkpt>
      <trkpt lat="46.58874" lon="5.58047">
        <ele>583.66</ele>
        <time>2014-07-31T08:39:13Z</time>
      </trkpt>
      <trkpt lat="46.58843" lon="5.58063">
        <ele>584.62</ele>
        <time>2014-07-31T08:39:28Z</time>
      </trkpt>
      <trkpt lat="46.5881" lon="5.58059">
        <ele>585.58</ele>
        <time>2014-07-31T08:39:41Z</time>
      </trkpt>
      <trkpt lat="46.5879" lon="5.58024">
        <ele>587.5</ele>
        <time>2014-07-31T08:39:56Z</time>
      </trkpt>
      <trkpt lat="46.58775" lon="5.57984">
        <ele>589.43</ele>
        <time>2014-07-31T08:40:11Z</time>
      </trkpt>
      <trkpt lat="46.58764" lon="5.57944">
        <ele>590.87</ele>
        <time>2014-07-31T08:40:26Z</time>
      </trkpt>
      <trkpt lat="46.5875" lon="5.57903">
        <ele>593.27</ele>
        <time>2014-07-31T08:40:41Z</time>
      </trkpt>
      <trkpt lat="46.58745" lon="5.57865">
        <ele>594.23</ele>
        <time>2014-07-31T08:40:54Z</time>
      </trkpt>
      <trkpt lat="46.58746" lon="5.57849">
        <ele>594.71</ele>
        <time>2014-07-31T08:40:59Z</time>
      </trkpt>
      <trkpt lat="46.58747" lon="5.5783">
        <ele>595.19</ele>
        <time>2014-07-31T08:41:05Z</time>
      </trkpt>
      <trkpt lat="46.58759" lon="5.57787">
        <ele>596.64</ele>
        <time>2014-07-31T08:41:20Z</time>
      </trkpt>
      <trkpt lat="46.58789" lon="5.57763">
        <ele>598.08</ele>
        <time>2014-07-31T08:41:35Z</time>
      </trkpt>
      <trkpt lat="46.58808" lon="5.57747">
        <ele>599.52</ele>
        <time>2014-07-31T08:41:46Z</time>
      </trkpt>
      <trkpt lat="46.58807" lon="5.57698">
        <ele>600.96</ele>
        <time>2014-07-31T08:42:02Z</time>
      </trkpt>
      <trkpt lat="46.5881" lon="5.57665">
        <ele>601.44</ele>
        <time>2014-07-31T08:42:13Z</time>
      </trkpt>
      <trkpt lat="46.58799" lon="5.57657">
        <ele>601.44</ele>
        <time>2014-07-31T08:42:18Z</time>
      </trkpt>
      <trkpt lat="46.5879" lon="5.57654">
        <ele>601.44</ele>
        <time>2014-07-31T08:42:22Z</time>
      </trkpt>
      <trkpt lat="46.58786" lon="5.57649">
        <ele>600.96</ele>
        <time>2014-07-31T08:42:34Z</time>
      </trkpt>
      <trkpt lat="46.58783" lon="5.5765">
        <ele>600.96</ele>
        <time>2014-07-31T08:42:46Z</time>
      </trkpt>
      <trkpt lat="46.58768" lon="5.57653">
        <ele>600.48</ele>
        <time>2014-07-31T08:42:58Z</time>
      </trkpt>
      <trkpt lat="46.58768" lon="5.57653">
        <ele>600.48</ele>
        <time>2014-07-31T08:43:00Z</time>
      </trkpt>
      <trkpt lat="46.58765" lon="5.57654">
        <ele>600.48</ele>
        <time>2014-07-31T08:43:03Z</time>
      </trkpt>
      <trkpt lat="46.58749" lon="5.57651">
        <ele>599.52</ele>
        <time>2014-07-31T08:43:08Z</time>
      </trkpt>
      <trkpt lat="46.58671" lon="5.57654">
        <ele>598.08</ele>
        <time>2014-07-31T08:43:23Z</time>
      </trkpt>
      <trkpt lat="46.58665" lon="5.57655">
        <ele>598.08</ele>
        <time>2014-07-31T08:43:24Z</time>
      </trkpt>
      <trkpt lat="46.58637" lon="5.57668">
        <ele>597.6</ele>
        <time>2014-07-31T08:43:29Z</time>
      </trkpt>
      <trkpt lat="46.58616" lon="5.57682">
        <ele>596.15</ele>
        <time>2014-07-31T08:43:33Z</time>
      </trkpt>
      <trkpt lat="46.58604" lon="5.5769">
        <ele>595.67</ele>
        <time>2014-07-31T08:43:35Z</time>
      </trkpt>
      <trkpt lat="46.58588" lon="5.57705">
        <ele>594.23</ele>
        <time>2014-07-31T08:43:37Z</time>
      </trkpt>
      <trkpt lat="46.58583" lon="5.57712">
        <ele>593.75</ele>
        <time>2014-07-31T08:43:38Z</time>
      </trkpt>
      <trkpt lat="46.58561" lon="5.57811">
        <ele>590.87</ele>
        <time>2014-07-31T08:43:47Z</time>
      </trkpt>
      <trkpt lat="46.58545" lon="5.57868">
        <ele>587.5</ele>
        <time>2014-07-31T08:43:52Z</time>
      </trkpt>
      <trkpt lat="46.58523" lon="5.57928">
        <ele>584.62</ele>
        <time>2014-07-31T08:43:57Z</time>
      </trkpt>
      <trkpt lat="46.58473" lon="5.57984">
        <ele>580.29</ele>
        <time>2014-07-31T08:44:03Z</time>
      </trkpt>
      <trkpt lat="46.58442" lon="5.57997">
        <ele>578.37</ele>
        <time>2014-07-31T08:44:06Z</time>
      </trkpt>
      <trkpt lat="46.58423" lon="5.5801">
        <ele>577.89</ele>
        <time>2014-07-31T08:44:08Z</time>
      </trkpt>
      <trkpt lat="46.58409" lon="5.58031">
        <ele>576.45</ele>
        <time>2014-07-31T08:44:10Z</time>
      </trkpt>
      <trkpt lat="46.58391" lon="5.58066">
        <ele>574.53</ele>
        <time>2014-07-31T08:44:13Z</time>
      </trkpt>
      <trkpt lat="46.58381" lon="5.5809">
        <ele>573.56</ele>
        <time>2014-07-31T08:44:15Z</time>
      </trkpt>
      <trkpt lat="46.58343" lon="5.58173">
        <ele>571.16</ele>
        <time>2014-07-31T08:44:22Z</time>
      </trkpt>
      <trkpt lat="46.58299" lon="5.58284">
        <ele>567.8</ele>
        <time>2014-07-31T08:44:32Z</time>
      </trkpt>
      <trkpt lat="46.58281" lon="5.58366">
        <ele>564.43</ele>
        <time>2014-07-31T08:44:39Z</time>
      </trkpt>
      <trkpt lat="46.58261" lon="5.58425">
        <ele>561.55</ele>
        <time>2014-07-31T08:44:44Z</time>
      </trkpt>
      <trkpt lat="46.58241" lon="5.58475">
        <ele>559.62</ele>
        <time>2014-07-31T08:44:48Z</time>
      </trkpt>
      <trkpt lat="46.58193" lon="5.58574">
        <ele>555.3</ele>
        <time>2014-07-31T08:44:57Z</time>
      </trkpt>
      <trkpt lat="46.58168" lon="5.58586">
        <ele>554.82</ele>
        <time>2014-07-31T08:45:02Z</time>
      </trkpt>
      <trkpt lat="46.58157" lon="5.58582">
        <ele>554.34</ele>
        <time>2014-07-31T08:45:11Z</time>
      </trkpt>
      <trkpt lat="46.58157" lon="5.58582">
        <ele>554.34</ele>
        <time>2014-07-31T08:45:32Z</time>
      </trkpt>
      <trkpt lat="46.58156" lon="5.58582">
        <ele>553.86</ele>
        <time>2014-07-31T08:45:53Z</time>
      </trkpt>
      <trkpt lat="46.58156" lon="5.58582">
        <ele>553.86</ele>
        <time>2014-07-31T08:46:07Z</time>
      </trkpt>
      <trkpt lat="46.58153" lon="5.58583">
        <ele>553.86</ele>
        <time>2014-07-31T08:46:19Z</time>
      </trkpt>
      <trkpt lat="46.58151" lon="5.58582">
        <ele>553.86</ele>
        <time>2014-07-31T08:46:32Z</time>
      </trkpt>
      <trkpt lat="46.58129" lon="5.58586">
        <ele>554.34</ele>
        <time>2014-07-31T08:46:41Z</time>
      </trkpt>
      <trkpt lat="46.58106" lon="5.58598">
        <ele>554.34</ele>
        <time>2014-07-31T08:46:48Z</time>
      </trkpt>
      <trkpt lat="46.58075" lon="5.58632">
        <ele>553.86</ele>
        <time>2014-07-31T08:46:57Z</time>
      </trkpt>
      <trkpt lat="46.58059" lon="5.58646">
        <ele>554.34</ele>
        <time>2014-07-31T08:47:02Z</time>
      </trkpt>
      <trkpt lat="46.58043" lon="5.58627">
        <ele>554.34</ele>
        <time>2014-07-31T08:47:11Z</time>
      </trkpt>
      <trkpt lat="46.58022" lon="5.58596">
        <ele>555.78</ele>
        <time>2014-07-31T08:47:23Z</time>
      </trkpt>
      <trkpt lat="46.57991" lon="5.58563">
        <ele>556.26</ele>
        <time>2014-07-31T08:47:36Z</time>
      </trkpt>
      <trkpt lat="46.57965" lon="5.58556">
        <ele>557.7</ele>
        <time>2014-07-31T08:47:48Z</time>
      </trkpt>
      <trkpt lat="46.5794" lon="5.58542">
        <ele>559.14</ele>
        <time>2014-07-31T08:48:00Z</time>
      </trkpt>
      <trkpt lat="46.5792" lon="5.58523">
        <ele>560.59</ele>
        <time>2014-07-31T08:48:10Z</time>
      </trkpt>
      <trkpt lat="46.57898" lon="5.58521">
        <ele>562.51</ele>
        <time>2014-07-31T08:48:21Z</time>
      </trkpt>
      <trkpt lat="46.57893" lon="5.58518">
        <ele>562.51</ele>
        <time>2014-07-31T08:48:24Z</time>
      </trkpt>
      <trkpt lat="46.57876" lon="5.58491">
        <ele>563.47</ele>
        <time>2014-07-31T08:48:32Z</time>
      </trkpt>
      <trkpt lat="46.57861" lon="5.5848">
        <ele>564.43</ele>
        <time>2014-07-31T08:48:38Z</time>
      </trkpt>
      <trkpt lat="46.57838" lon="5.58496">
        <ele>565.39</ele>
        <time>2014-07-31T08:48:49Z</time>
      </trkpt>
      <trkpt lat="46.57831" lon="5.58541">
        <ele>564.91</ele>
        <time>2014-07-31T08:48:59Z</time>
      </trkpt>
      <trkpt lat="46.57825" lon="5.58575">
        <ele>562.99</ele>
        <time>2014-07-31T08:49:03Z</time>
      </trkpt>
      <trkpt lat="46.57806" lon="5.58601">
        <ele>562.03</ele>
        <time>2014-07-31T08:49:07Z</time>
      </trkpt>
      <trkpt lat="46.57761" lon="5.58659">
        <ele>560.59</ele>
        <time>2014-07-31T08:49:16Z</time>
      </trkpt>
      <trkpt lat="46.57733" lon="5.58678">
        <ele>561.07</ele>
        <time>2014-07-31T08:49:21Z</time>
      </trkpt>
      <trkpt lat="46.57716" lon="5.58684">
        <ele>561.07</ele>
        <time>2014-07-31T08:49:24Z</time>
      </trkpt>
      <trkpt lat="46.57661" lon="5.58722">
        <ele>562.03</ele>
        <time>2014-07-31T08:49:36Z</time>
      </trkpt>
      <trkpt lat="46.57644" lon="5.58726">
        <ele>561.55</ele>
        <time>2014-07-31T08:49:39Z</time>
      </trkpt>
      <trkpt lat="46.57568" lon="5.58732">
        <ele>560.59</ele>
        <time>2014-07-31T08:49:52Z</time>
      </trkpt>
      <trkpt lat="46.57562" lon="5.58732">
        <ele>560.59</ele>
        <time>2014-07-31T08:49:53Z</time>
      </trkpt>
      <trkpt lat="46.57555" lon="5.58734">
        <ele>560.59</ele>
        <time>2014-07-31T08:49:54Z</time>
      </trkpt>
      <trkpt lat="46.57525" lon="5.58751">
        <ele>559.14</ele>
        <time>2014-07-31T08:49:58Z</time>
      </trkpt>
      <trkpt lat="46.57439" lon="5.58806">
        <ele>555.78</ele>
        <time>2014-07-31T08:50:09Z</time>
      </trkpt>
      <trkpt lat="46.57415" lon="5.58819">
        <ele>553.86</ele>
        <time>2014-07-31T08:50:12Z</time>
      </trkpt>
      <trkpt lat="46.57324" lon="5.58841">
        <ele>553.86</ele>
        <time>2014-07-31T08:50:23Z</time>
      </trkpt>
      <trkpt lat="46.57232" lon="5.58846">
        <ele>550.49</ele>
        <time>2014-07-31T08:50:35Z</time>
      </trkpt>
      <trkpt lat="46.57106" lon="5.58839">
        <ele>548.09</ele>
        <time>2014-07-31T08:50:51Z</time>
      </trkpt>
      <trkpt lat="46.57045" lon="5.5884">
        <ele>544.72</ele>
        <time>2014-07-31T08:50:58Z</time>
      </trkpt>
      <trkpt lat="46.56927" lon="5.58837">
        <ele>542.8</ele>
        <time>2014-07-31T08:51:11Z</time>
      </trkpt>
      <trkpt lat="46.56834" lon="5.58848">
        <ele>541.36</ele>
        <time>2014-07-31T08:51:23Z</time>
      </trkpt>
      <trkpt lat="46.56792" lon="5.58848">
        <ele>539.92</ele>
        <time>2014-07-31T08:51:28Z</time>
      </trkpt>
      <trkpt lat="46.56751" lon="5.58872">
        <ele>538.48</ele>
        <time>2014-07-31T08:51:33Z</time>
      </trkpt>
      <trkpt lat="46.56723" lon="5.5891">
        <ele>536.55</ele>
        <time>2014-07-31T08:51:37Z</time>
      </trkpt>
      <trkpt lat="46.56705" lon="5.58947">
        <ele>534.63</ele>
        <time>2014-07-31T08:51:40Z</time>
      </trkpt>
      <trkpt lat="46.5667" lon="5.5898">
        <ele>531.75</ele>
        <time>2014-07-31T08:51:44Z</time>
      </trkpt>
      <trkpt lat="46.56546" lon="5.59031">
        <ele>529.34</ele>
        <time>2014-07-31T08:51:57Z</time>
      </trkpt>
      <trkpt lat="46.56444" lon="5.59037">
        <ele>527.9</ele>
        <time>2014-07-31T08:52:08Z</time>
      </trkpt>
      <trkpt lat="46.56418" lon="5.59038">
        <ele>527.9</ele>
        <time>2014-07-31T08:52:11Z</time>
      </trkpt>
      <trkpt lat="46.5629" lon="5.59005">
        <ele>525.98</ele>
        <time>2014-07-31T08:52:26Z</time>
      </trkpt>
      <trkpt lat="46.5619" lon="5.58998">
        <ele>525.02</ele>
        <time>2014-07-31T08:52:38Z</time>
      </trkpt>
      <trkpt lat="46.56103" lon="5.59033">
        <ele>524.54</ele>
        <time>2014-07-31T08:52:50Z</time>
      </trkpt>
      <trkpt lat="46.56038" lon="5.59022">
        <ele>520.69</ele>
        <time>2014-07-31T08:52:57Z</time>
      </trkpt>
      <trkpt lat="46.55931" lon="5.59031">
        <ele>518.77</ele>
        <time>2014-07-31T08:53:08Z</time>
      </trkpt>
      <trkpt lat="46.55876" lon="5.59034">
        <ele>518.77</ele>
        <time>2014-07-31T08:53:14Z</time>
      </trkpt>
      <trkpt lat="46.55836" lon="5.59001">
        <ele>519.73</ele>
        <time>2014-07-31T08:53:20Z</time>
      </trkpt>
      <trkpt lat="46.55801" lon="5.58935">
        <ele>522.61</ele>
        <time>2014-07-31T08:53:32Z</time>
      </trkpt>
      <trkpt lat="46.55778" lon="5.58899">
        <ele>524.54</ele>
        <time>2014-07-31T08:53:46Z</time>
      </trkpt>
      <trkpt lat="46.55744" lon="5.58857">
        <ele>522.61</ele>
        <time>2014-07-31T08:54:01Z</time>
      </trkpt>
      <trkpt lat="46.55737" lon="5.58851">
        <ele>522.61</ele>
        <time>2014-07-31T08:54:11Z</time>
      </trkpt>
      <trkpt lat="46.55737" lon="5.58851">
        <ele>522.13</ele>
        <time>2014-07-31T08:54:28Z</time>
      </trkpt>
      <trkpt lat="46.55737" lon="5.58851">
        <ele>522.13</ele>
        <time>2014-07-31T08:54:46Z</time>
      </trkpt>
      <trkpt lat="46.55735" lon="5.58846">
        <ele>522.13</ele>
        <time>2014-07-31T08:54:50Z</time>
      </trkpt>
      <trkpt lat="46.55738" lon="5.58797">
        <ele>521.65</ele>
        <time>2014-07-31T08:55:00Z</time>
      </trkpt>
      <trkpt lat="46.55737" lon="5.58779">
        <ele>521.17</ele>
        <time>2014-07-31T08:55:03Z</time>
      </trkpt>
      <trkpt lat="46.55735" lon="5.58759">
        <ele>520.69</ele>
        <time>2014-07-31T08:55:06Z</time>
      </trkpt>
      <trkpt lat="46.55734" lon="5.58746">
        <ele>520.21</ele>
        <time>2014-07-31T08:55:08Z</time>
      </trkpt>
      <trkpt lat="46.5572" lon="5.58724">
        <ele>519.73</ele>
        <time>2014-07-31T08:55:12Z</time>
      </trkpt>
      <trkpt lat="46.55659" lon="5.58668">
        <ele>518.29</ele>
        <time>2014-07-31T08:55:25Z</time>
      </trkpt>
      <trkpt lat="46.5565" lon="5.58659">
        <ele>518.29</ele>
        <time>2014-07-31T08:55:30Z</time>
      </trkpt>
      <trkpt lat="46.55645" lon="5.5861">
        <ele>519.25</ele>
        <time>2014-07-31T08:55:40Z</time>
      </trkpt>
      <trkpt lat="46.55647" lon="5.58573">
        <ele>519.73</ele>
        <time>2014-07-31T08:55:47Z</time>
      </trkpt>
      <trkpt lat="46.55625" lon="5.58557">
        <ele>521.17</ele>
        <time>2014-07-31T08:55:54Z</time>
      </trkpt>
      <trkpt lat="46.55606" lon="5.58559">
        <ele>520.69</ele>
        <time>2014-07-31T08:55:58Z</time>
      </trkpt>
      <trkpt lat="46.55584" lon="5.58562">
        <ele>520.21</ele>
        <time>2014-07-31T08:56:03Z</time>
      </trkpt>
      <trkpt lat="46.55531" lon="5.58554">
        <ele>519.25</ele>
        <time>2014-07-31T08:56:13Z</time>
      </trkpt>
      <trkpt lat="46.55521" lon="5.58551">
        <ele>519.25</ele>
        <time>2014-07-31T08:56:15Z</time>
      </trkpt>
      <trkpt lat="46.55496" lon="5.58551">
        <ele>518.77</ele>
        <time>2014-07-31T08:56:20Z</time>
      </trkpt>
      <trkpt lat="46.55487" lon="5.58551">
        <ele>518.77</ele>
        <time>2014-07-31T08:56:22Z</time>
      </trkpt>
      <trkpt lat="46.55464" lon="5.58573">
        <ele>518.29</ele>
        <time>2014-07-31T08:56:28Z</time>
      </trkpt>
      <trkpt lat="46.55451" lon="5.58609">
        <ele>517.33</ele>
        <time>2014-07-31T08:56:33Z</time>
      </trkpt>
      <trkpt lat="46.55446" lon="5.58624">
        <ele>517.33</ele>
        <time>2014-07-31T08:56:35Z</time>
      </trkpt>
      <trkpt lat="46.55426" lon="5.58656">
        <ele>516.85</ele>
        <time>2014-07-31T08:56:40Z</time>
      </trkpt>
      <trkpt lat="46.55388" lon="5.58703">
        <ele>516.37</ele>
        <time>2014-07-31T08:56:48Z</time>
      </trkpt>
      <trkpt lat="46.55344" lon="5.58722">
        <ele>514.92</ele>
        <time>2014-07-31T08:56:55Z</time>
      </trkpt>
      <trkpt lat="46.55241" lon="5.5869">
        <ele>514.44</ele>
        <time>2014-07-31T08:57:10Z</time>
      </trkpt>
      <trkpt lat="46.55206" lon="5.58678">
        <ele>515.4</ele>
        <time>2014-07-31T08:57:16Z</time>
      </trkpt>
      <trkpt lat="46.55126" lon="5.58635">
        <ele>512.04</ele>
        <time>2014-07-31T08:57:28Z</time>
      </trkpt>
      <trkpt lat="46.55001" lon="5.58568">
        <ele>508.67</ele>
        <time>2014-07-31T08:57:43Z</time>
      </trkpt>
      <trkpt lat="46.54876" lon="5.58502">
        <ele>509.16</ele>
        <time>2014-07-31T08:57:59Z</time>
      </trkpt>
      <trkpt lat="46.54784" lon="5.58479">
        <ele>510.6</ele>
        <time>2014-07-31T08:58:14Z</time>
      </trkpt>
      <trkpt lat="46.54689" lon="5.58461">
        <ele>510.6</ele>
        <time>2014-07-31T08:58:29Z</time>
      </trkpt>
      <trkpt lat="46.54581" lon="5.58438">
        <ele>511.08</ele>
        <time>2014-07-31T08:58:46Z</time>
      </trkpt>
      <trkpt lat="46.54491" lon="5.5842">
        <ele>510.12</ele>
        <time>2014-07-31T08:59:02Z</time>
      </trkpt>
      <trkpt lat="46.54395" lon="5.58381">
        <ele>507.71</ele>
        <time>2014-07-31T08:59:16Z</time>
      </trkpt>
      <trkpt lat="46.5429" lon="5.58328">
        <ele>504.83</ele>
        <time>2014-07-31T08:59:30Z</time>
      </trkpt>
      <trkpt lat="46.54208" lon="5.58284">
        <ele>504.35</ele>
        <time>2014-07-31T08:59:42Z</time>
      </trkpt>
      <trkpt lat="46.5418" lon="5.58239">
        <ele>505.31</ele>
        <time>2014-07-31T08:59:49Z</time>
      </trkpt>
      <trkpt lat="46.54165" lon="5.58174">
        <ele>508.19</ele>
        <time>2014-07-31T09:00:01Z</time>
      </trkpt>
      <trkpt lat="46.54125" lon="5.5812">
        <ele>509.64</ele>
        <time>2014-07-31T09:00:17Z</time>
      </trkpt>
      <trkpt lat="46.54087" lon="5.58082">
        <ele>512.04</ele>
        <time>2014-07-31T09:00:32Z</time>
      </trkpt>
      <trkpt lat="46.54072" lon="5.58065">
        <ele>513.48</ele>
        <time>2014-07-31T09:00:39Z</time>
      </trkpt>
      <trkpt lat="46.54043" lon="5.5803">
        <ele>514.44</ele>
        <time>2014-07-31T09:00:53Z</time>
      </trkpt>
      <trkpt lat="46.54027" lon="5.58019">
        <ele>513.48</ele>
        <time>2014-07-31T09:00:58Z</time>
      </trkpt>
      <trkpt lat="46.53999" lon="5.58004">
        <ele>512.52</ele>
        <time>2014-07-31T09:01:05Z</time>
      </trkpt>
      <trkpt lat="46.53947" lon="5.57988">
        <ele>509.64</ele>
        <time>2014-07-31T09:01:14Z</time>
      </trkpt>
      <trkpt lat="46.53911" lon="5.57983">
        <ele>506.27</ele>
        <time>2014-07-31T09:01:18Z</time>
      </trkpt>
      <trkpt lat="46.5387" lon="5.57974">
        <ele>502.91</ele>
        <time>2014-07-31T09:01:22Z</time>
      </trkpt>
      <trkpt lat="46.53798" lon="5.57951">
        <ele>500.02</ele>
        <time>2014-07-31T09:01:29Z</time>
      </trkpt>
      <trkpt lat="46.53736" lon="5.57931">
        <ele>496.18</ele>
        <time>2014-07-31T09:01:35Z</time>
      </trkpt>
      <trkpt lat="46.53725" lon="5.57928">
        <ele>496.18</ele>
        <time>2014-07-31T09:01:36Z</time>
      </trkpt>
      <trkpt lat="46.53618" lon="5.57893">
        <ele>492.81</ele>
        <time>2014-07-31T09:01:47Z</time>
      </trkpt>
      <trkpt lat="46.53527" lon="5.57846">
        <ele>493.77</ele>
        <time>2014-07-31T09:01:59Z</time>
      </trkpt>
      <trkpt lat="46.53489" lon="5.5781">
        <ele>496.66</ele>
        <time>2014-07-31T09:02:08Z</time>
      </trkpt>
      <trkpt lat="46.53456" lon="5.57777">
        <ele>498.58</ele>
        <time>2014-07-31T09:02:19Z</time>
      </trkpt>
      <trkpt lat="46.53424" lon="5.57762">
        <ele>498.58</ele>
        <time>2014-07-31T09:02:27Z</time>
      </trkpt>
      <trkpt lat="46.53417" lon="5.5776">
        <ele>498.58</ele>
        <time>2014-07-31T09:02:29Z</time>
      </trkpt>
      <trkpt lat="46.53354" lon="5.57741">
        <ele>499.06</ele>
        <time>2014-07-31T09:02:41Z</time>
      </trkpt>
      <trkpt lat="46.53307" lon="5.57702">
        <ele>501.46</ele>
        <time>2014-07-31T09:02:54Z</time>
      </trkpt>
      <trkpt lat="46.53292" lon="5.57665">
        <ele>501.46</ele>
        <time>2014-07-31T09:03:02Z</time>
      </trkpt>
      <trkpt lat="46.53291" lon="5.57652">
        <ele>501.46</ele>
        <time>2014-07-31T09:03:04Z</time>
      </trkpt>
      <trkpt lat="46.53292" lon="5.57603">
        <ele>500.5</ele>
        <time>2014-07-31T09:03:10Z</time>
      </trkpt>
      <trkpt lat="46.53288" lon="5.57568">
        <ele>500.5</ele>
        <time>2014-07-31T09:03:14Z</time>
      </trkpt>
      <trkpt lat="46.53261" lon="5.57477">
        <ele>500.5</ele>
        <time>2014-07-31T09:03:26Z</time>
      </trkpt>
      <trkpt lat="46.53234" lon="5.57437">
        <ele>500.5</ele>
        <time>2014-07-31T09:03:33Z</time>
      </trkpt>
      <trkpt lat="46.53153" lon="5.57359">
        <ele>498.58</ele>
        <time>2014-07-31T09:03:49Z</time>
      </trkpt>
      <trkpt lat="46.53124" lon="5.57339">
        <ele>498.1</ele>
        <time>2014-07-31T09:03:54Z</time>
      </trkpt>
      <trkpt lat="46.53074" lon="5.57262">
        <ele>496.66</ele>
        <time>2014-07-31T09:04:05Z</time>
      </trkpt>
      <trkpt lat="46.53065" lon="5.57238">
        <ele>496.66</ele>
        <time>2014-07-31T09:04:08Z</time>
      </trkpt>
      <trkpt lat="46.53036" lon="5.57168">
        <ele>495.22</ele>
        <time>2014-07-31T09:04:18Z</time>
      </trkpt>
      <trkpt lat="46.52993" lon="5.57063">
        <ele>494.74</ele>
        <time>2014-07-31T09:04:32Z</time>
      </trkpt>
      <trkpt lat="46.52957" lon="5.57007">
        <ele>495.22</ele>
        <time>2014-07-31T09:04:42Z</time>
      </trkpt>
      <trkpt lat="46.52941" lon="5.56978">
        <ele>495.22</ele>
        <time>2014-07-31T09:04:47Z</time>
      </trkpt>
      <trkpt lat="46.52933" lon="5.56952">
        <ele>495.22</ele>
        <time>2014-07-31T09:04:51Z</time>
      </trkpt>
      <trkpt lat="46.52929" lon="5.56938">
        <ele>495.22</ele>
        <time>2014-07-31T09:04:53Z</time>
      </trkpt>
      <trkpt lat="46.5291" lon="5.56858">
        <ele>495.22</ele>
        <time>2014-07-31T09:05:05Z</time>
      </trkpt>
      <trkpt lat="46.52908" lon="5.56838">
        <ele>495.7</ele>
        <time>2014-07-31T09:05:08Z</time>
      </trkpt>
      <trkpt lat="46.52903" lon="5.56819">
        <ele>495.7</ele>
        <time>2014-07-31T09:05:11Z</time>
      </trkpt>
      <trkpt lat="46.52895" lon="5.5678">
        <ele>495.7</ele>
        <time>2014-07-31T09:05:17Z</time>
      </trkpt>
      <trkpt lat="46.52889" lon="5.56761">
        <ele>495.7</ele>
        <time>2014-07-31T09:05:20Z</time>
      </trkpt>
      <trkpt lat="46.5286" lon="5.56632">
        <ele>494.74</ele>
        <time>2014-07-31T09:05:37Z</time>
      </trkpt>
      <trkpt lat="46.52825" lon="5.56488">
        <ele>492.33</ele>
        <time>2014-07-31T09:05:54Z</time>
      </trkpt>
      <trkpt lat="46.52788" lon="5.56339">
        <ele>491.85</ele>
        <time>2014-07-31T09:06:11Z</time>
      </trkpt>
      <trkpt lat="46.52754" lon="5.56195">
        <ele>490.89</ele>
        <time>2014-07-31T09:06:28Z</time>
      </trkpt>
      <trkpt lat="46.52726" lon="5.56091">
        <ele>490.89</ele>
        <time>2014-07-31T09:06:42Z</time>
      </trkpt>
      <trkpt lat="46.52716" lon="5.56082">
        <ele>490.89</ele>
        <time>2014-07-31T09:06:45Z</time>
      </trkpt>
      <trkpt lat="46.52644" lon="5.56106">
        <ele>489.93</ele>
        <time>2014-07-31T09:07:00Z</time>
      </trkpt>
      <trkpt lat="46.52619" lon="5.56117">
        <ele>489.93</ele>
        <time>2014-07-31T09:07:05Z</time>
      </trkpt>
      <trkpt lat="46.52605" lon="5.56165">
        <ele>490.41</ele>
        <time>2014-07-31T09:07:17Z</time>
      </trkpt>
      <trkpt lat="46.52597" lon="5.56275">
        <ele>492.33</ele>
        <time>2014-07-31T09:07:35Z</time>
      </trkpt>
      <trkpt lat="46.52591" lon="5.56375">
        <ele>494.26</ele>
        <time>2014-07-31T09:07:51Z</time>
      </trkpt>
      <trkpt lat="46.52588" lon="5.56419">
        <ele>494.74</ele>
        <time>2014-07-31T09:07:59Z</time>
      </trkpt>
      <trkpt lat="46.52581" lon="5.56538">
        <ele>493.77</ele>
        <time>2014-07-31T09:08:15Z</time>
      </trkpt>
      <trkpt lat="46.52565" lon="5.56708">
        <ele>491.85</ele>
        <time>2014-07-31T09:08:33Z</time>
      </trkpt>
      <trkpt lat="46.52551" lon="5.56879">
        <ele>490.89</ele>
        <time>2014-07-31T09:08:52Z</time>
      </trkpt>
      <trkpt lat="46.52536" lon="5.57066">
        <ele>490.89</ele>
        <time>2014-07-31T09:09:13Z</time>
      </trkpt>
      <trkpt lat="46.52522" lon="5.57255">
        <ele>490.89</ele>
        <time>2014-07-31T09:09:36Z</time>
      </trkpt>
      <trkpt lat="46.52508" lon="5.5743">
        <ele>491.37</ele>
        <time>2014-07-31T09:09:58Z</time>
      </trkpt>
      <trkpt lat="46.52495" lon="5.57604">
        <ele>490.89</ele>
        <time>2014-07-31T09:10:20Z</time>
      </trkpt>
      <trkpt lat="46.52484" lon="5.57748">
        <ele>490.41</ele>
        <time>2014-07-31T09:10:38Z</time>
      </trkpt>
      <trkpt lat="46.52472" lon="5.57906">
        <ele>490.41</ele>
        <time>2014-07-31T09:10:59Z</time>
      </trkpt>
      <trkpt lat="46.52461" lon="5.58051">
        <ele>490.41</ele>
        <time>2014-07-31T09:11:18Z</time>
      </trkpt>
      <trkpt lat="46.5245" lon="5.58198">
        <ele>490.89</ele>
        <time>2014-07-31T09:11:38Z</time>
      </trkpt>
      <trkpt lat="46.52439" lon="5.58341">
        <ele>491.85</ele>
        <time>2014-07-31T09:11:58Z</time>
      </trkpt>
      <trkpt lat="46.52428" lon="5.5849">
        <ele>491.85</ele>
        <time>2014-07-31T09:12:18Z</time>
      </trkpt>
      <trkpt lat="46.52417" lon="5.58648">
        <ele>491.37</ele>
        <time>2014-07-31T09:12:39Z</time>
      </trkpt>
      <trkpt lat="46.52406" lon="5.58779">
        <ele>491.37</ele>
        <time>2014-07-31T09:12:56Z</time>
      </trkpt>
      <trkpt lat="46.52396" lon="5.58919">
        <ele>492.81</ele>
        <time>2014-07-31T09:13:14Z</time>
      </trkpt>
      <trkpt lat="46.52385" lon="5.59051">
        <ele>492.81</ele>
        <time>2014-07-31T09:13:32Z</time>
      </trkpt>
      <trkpt lat="46.52374" lon="5.59199">
        <ele>494.26</ele>
        <time>2014-07-31T09:13:53Z</time>
      </trkpt>
      <trkpt lat="46.52369" lon="5.59259">
        <ele>494.74</ele>
        <time>2014-07-31T09:14:02Z</time>
      </trkpt>
      <trkpt lat="46.52367" lon="5.59278">
        <ele>494.74</ele>
        <time>2014-07-31T09:14:05Z</time>
      </trkpt>
      <trkpt lat="46.52361" lon="5.59367">
        <ele>496.66</ele>
        <time>2014-07-31T09:14:21Z</time>
      </trkpt>
      <trkpt lat="46.52354" lon="5.59463">
        <ele>499.06</ele>
        <time>2014-07-31T09:14:39Z</time>
      </trkpt>
      <trkpt lat="46.52347" lon="5.59565">
        <ele>500.98</ele>
        <time>2014-07-31T09:14:57Z</time>
      </trkpt>
      <trkpt lat="46.52339" lon="5.59674">
        <ele>501.95</ele>
        <time>2014-07-31T09:15:15Z</time>
      </trkpt>
      <trkpt lat="46.52329" lon="5.59799">
        <ele>503.39</ele>
        <time>2014-07-31T09:15:34Z</time>
      </trkpt>
      <trkpt lat="46.5232" lon="5.5992">
        <ele>503.39</ele>
        <time>2014-07-31T09:15:51Z</time>
      </trkpt>
      <trkpt lat="46.5231" lon="5.60067">
        <ele>505.31</ele>
        <time>2014-07-31T09:16:13Z</time>
      </trkpt>
      <trkpt lat="46.523" lon="5.60189">
        <ele>505.31</ele>
        <time>2014-07-31T09:16:31Z</time>
      </trkpt>
      <trkpt lat="46.52291" lon="5.60296">
        <ele>506.27</ele>
        <time>2014-07-31T09:16:47Z</time>
      </trkpt>
      <trkpt lat="46.52282" lon="5.60409">
        <ele>507.71</ele>
        <time>2014-07-31T09:17:04Z</time>
      </trkpt>
      <trkpt lat="46.52279" lon="5.60443">
        <ele>507.23</ele>
        <time>2014-07-31T09:17:09Z</time>
      </trkpt>
      <trkpt lat="46.52268" lon="5.60586">
        <ele>508.19</ele>
        <time>2014-07-31T09:17:30Z</time>
      </trkpt>
      <trkpt lat="46.5226" lon="5.60663">
        <ele>509.64</ele>
        <time>2014-07-31T09:17:42Z</time>
      </trkpt>
      <trkpt lat="46.52228" lon="5.6071">
        <ele>511.08</ele>
        <time>2014-07-31T09:17:55Z</time>
      </trkpt>
      <trkpt lat="46.52219" lon="5.6072">
        <ele>511.56</ele>
        <time>2014-07-31T09:17:58Z</time>
      </trkpt>
      <trkpt lat="46.52215" lon="5.60736">
        <ele>512.52</ele>
        <time>2014-07-31T09:18:02Z</time>
      </trkpt>
      <trkpt lat="46.52231" lon="5.60785">
        <ele>513.96</ele>
        <time>2014-07-31T09:18:15Z</time>
      </trkpt>
      <trkpt lat="46.52252" lon="5.60819">
        <ele>514.44</ele>
        <time>2014-07-31T09:18:25Z</time>
      </trkpt>
      <trkpt lat="46.52248" lon="5.60837">
        <ele>515.4</ele>
        <time>2014-07-31T09:18:34Z</time>
      </trkpt>
      <trkpt lat="46.52246" lon="5.60838">
        <ele>515.4</ele>
        <time>2014-07-31T09:18:51Z</time>
      </trkpt>
      <trkpt lat="46.52246" lon="5.60838">
        <ele>515.4</ele>
        <time>2014-07-31T09:19:13Z</time>
      </trkpt>
      <trkpt lat="46.52246" lon="5.60838">
        <ele>515.4</ele>
        <time>2014-07-31T09:19:19Z</time>
      </trkpt>
      <trkpt lat="46.52248" lon="5.6084">
        <ele>514.92</ele>
        <time>2014-07-31T09:19:34Z</time>
      </trkpt>
      <trkpt lat="46.52247" lon="5.60844">
        <ele>515.4</ele>
        <time>2014-07-31T09:19:39Z</time>
      </trkpt>
      <trkpt lat="46.52247" lon="5.60875">
        <ele>516.37</ele>
        <time>2014-07-31T09:19:47Z</time>
      </trkpt>
      <trkpt lat="46.52249" lon="5.60945">
        <ele>516.85</ele>
        <time>2014-07-31T09:20:02Z</time>
      </trkpt>
      <trkpt lat="46.5225" lon="5.60967">
        <ele>517.33</ele>
        <time>2014-07-31T09:20:06Z</time>
      </trkpt>
      <trkpt lat="46.52237" lon="5.60984">
        <ele>516.85</ele>
        <time>2014-07-31T09:20:12Z</time>
      </trkpt>
      <trkpt lat="46.52225" lon="5.60979">
        <ele>516.37</ele>
        <time>2014-07-31T09:20:17Z</time>
      </trkpt>
      <trkpt lat="46.52243" lon="5.60991">
        <ele>516.85</ele>
        <time>2014-07-31T09:20:26Z</time>
      </trkpt>
      <trkpt lat="46.52253" lon="5.61016">
        <ele>516.85</ele>
        <time>2014-07-31T09:20:31Z</time>
      </trkpt>
      <trkpt lat="46.52258" lon="5.6105">
        <ele>515.4</ele>
        <time>2014-07-31T09:20:43Z</time>
      </trkpt>
      <trkpt lat="46.52255" lon="5.61072">
        <ele>515.4</ele>
        <time>2014-07-31T09:20:54Z</time>
      </trkpt>
      <trkpt lat="46.52247" lon="5.61104">
        <ele>515.4</ele>
        <time>2014-07-31T09:21:01Z</time>
      </trkpt>
      <trkpt lat="46.52247" lon="5.61117">
        <ele>515.4</ele>
        <time>2014-07-31T09:21:04Z</time>
      </trkpt>
      <trkpt lat="46.5222" lon="5.61128">
        <ele>516.85</ele>
        <time>2014-07-31T09:21:15Z</time>
      </trkpt>
      <trkpt lat="46.52208" lon="5.6116">
        <ele>518.77</ele>
        <time>2014-07-31T09:21:25Z</time>
      </trkpt>
      <trkpt lat="46.52206" lon="5.6118">
        <ele>519.73</ele>
        <time>2014-07-31T09:21:36Z</time>
      </trkpt>
      <trkpt lat="46.52206" lon="5.6118">
        <ele>518.77</ele>
        <time>2014-07-31T09:21:40Z</time>
      </trkpt>
      <trkpt lat="46.52216" lon="5.61179">
        <ele>520.21</ele>
        <time>2014-07-31T09:27:48Z</time>
      </trkpt>
      <trkpt lat="46.52212" lon="5.61191">
        <ele>522.13</ele>
        <time>2014-07-31T09:27:59Z</time>
      </trkpt>
      <trkpt lat="46.52211" lon="5.61192">
        <ele>522.13</ele>
        <time>2014-07-31T09:28:00Z</time>
      </trkpt>
      <trkpt lat="46.52213" lon="5.61213">
        <ele>522.61</ele>
        <time>2014-07-31T09:28:10Z</time>
      </trkpt>
      <trkpt lat="46.5221" lon="5.61216">
        <ele>522.13</ele>
        <time>2014-07-31T09:28:21Z</time>
      </trkpt>
      <trkpt lat="46.52208" lon="5.61213">
        <ele>522.13</ele>
        <time>2014-07-31T09:28:24Z</time>
      </trkpt>
      <trkpt lat="46.52208" lon="5.61175">
        <ele>522.13</ele>
        <time>2014-07-31T09:28:37Z</time>
      </trkpt>
      <trkpt lat="46.52198" lon="5.61166">
        <ele>521.17</ele>
        <time>2014-07-31T09:28:41Z</time>
      </trkpt>
      <trkpt lat="46.52191" lon="5.61162">
        <ele>520.69</ele>
        <time>2014-07-31T09:28:43Z</time>
      </trkpt>
      <trkpt lat="46.52168" lon="5.61145">
        <ele>518.77</ele>
        <time>2014-07-31T09:28:49Z</time>
      </trkpt>
      <trkpt lat="46.52163" lon="5.61143">
        <ele>517.81</ele>
        <time>2014-07-31T09:28:51Z</time>
      </trkpt>
      <trkpt lat="46.52159" lon="5.61138">
        <ele>516.85</ele>
        <time>2014-07-31T09:29:03Z</time>
      </trkpt>
      <trkpt lat="46.52161" lon="5.61137">
        <ele>516.85</ele>
        <time>2014-07-31T09:29:15Z</time>
      </trkpt>
      <trkpt lat="46.52161" lon="5.61119">
        <ele>516.85</ele>
        <time>2014-07-31T09:29:21Z</time>
      </trkpt>
      <trkpt lat="46.52164" lon="5.61104">
        <ele>517.33</ele>
        <time>2014-07-31T09:29:26Z</time>
      </trkpt>
      <trkpt lat="46.52161" lon="5.61084">
        <ele>516.85</ele>
        <time>2014-07-31T09:29:32Z</time>
      </trkpt>
      <trkpt lat="46.52164" lon="5.61064">
        <ele>515.88</ele>
        <time>2014-07-31T09:29:36Z</time>
      </trkpt>
      <trkpt lat="46.52149" lon="5.61052">
        <ele>515.88</ele>
        <time>2014-07-31T09:29:42Z</time>
      </trkpt>
      <trkpt lat="46.52112" lon="5.61053">
        <ele>514.92</ele>
        <time>2014-07-31T09:29:51Z</time>
      </trkpt>
      <trkpt lat="46.5211" lon="5.61048">
        <ele>514.92</ele>
        <time>2014-07-31T09:30:02Z</time>
      </trkpt>
      <trkpt lat="46.5211" lon="5.61048">
        <ele>514.92</ele>
        <time>2014-07-31T09:30:24Z</time>
      </trkpt>
      <trkpt lat="46.5211" lon="5.61051">
        <ele>515.4</ele>
        <time>2014-07-31T09:30:48Z</time>
      </trkpt>
      <trkpt lat="46.52112" lon="5.6105">
        <ele>515.4</ele>
        <time>2014-07-31T09:30:53Z</time>
      </trkpt>
      <trkpt lat="46.5211" lon="5.61053">
        <ele>515.4</ele>
        <time>2014-07-31T09:30:56Z</time>
      </trkpt>
      <trkpt lat="46.52086" lon="5.61056">
        <ele>514.92</ele>
        <time>2014-07-31T09:31:06Z</time>
      </trkpt>
      <trkpt lat="46.52086" lon="5.61091">
        <ele>514.92</ele>
        <time>2014-07-31T09:31:13Z</time>
      </trkpt>
      <trkpt lat="46.52092" lon="5.61152">
        <ele>514.44</ele>
        <time>2014-07-31T09:31:24Z</time>
      </trkpt>
      <trkpt lat="46.52093" lon="5.61158">
        <ele>514.44</ele>
        <time>2014-07-31T09:31:25Z</time>
      </trkpt>
      <trkpt lat="46.52095" lon="5.61209">
        <ele>513.48</ele>
        <time>2014-07-31T09:31:34Z</time>
      </trkpt>
      <trkpt lat="46.5209" lon="5.61215">
        <ele>513</ele>
        <time>2014-07-31T09:31:47Z</time>
      </trkpt>
      <trkpt lat="46.5209" lon="5.61216">
        <ele>513</ele>
        <time>2014-07-31T09:32:03Z</time>
      </trkpt>
      <trkpt lat="46.52096" lon="5.61236">
        <ele>513</ele>
        <time>2014-07-31T09:32:12Z</time>
      </trkpt>
      <trkpt lat="46.52097" lon="5.61308">
        <ele>512.04</ele>
        <time>2014-07-31T09:32:27Z</time>
      </trkpt>
      <trkpt lat="46.52098" lon="5.61322">
        <ele>511.08</ele>
        <time>2014-07-31T09:32:36Z</time>
      </trkpt>
      <trkpt lat="46.52098" lon="5.61322">
        <ele>511.08</ele>
        <time>2014-07-31T09:32:40Z</time>
      </trkpt>
      <trkpt lat="46.52105" lon="5.61357">
        <ele>510.6</ele>
        <time>2014-07-31T09:32:52Z</time>
      </trkpt>
      <trkpt lat="46.52109" lon="5.61384">
        <ele>510.12</ele>
        <time>2014-07-31T09:32:57Z</time>
      </trkpt>
      <trkpt lat="46.52121" lon="5.61412">
        <ele>509.64</ele>
        <time>2014-07-31T09:33:02Z</time>
      </trkpt>
      <trkpt lat="46.52182" lon="5.6148">
        <ele>508.19</ele>
        <time>2014-07-31T09:33:16Z</time>
      </trkpt>
      <trkpt lat="46.52237" lon="5.61542">
        <ele>507.71</ele>
        <time>2014-07-31T09:33:27Z</time>
      </trkpt>
      <trkpt lat="46.52256" lon="5.61563">
        <ele>507.71</ele>
        <time>2014-07-31T09:33:31Z</time>
      </trkpt>
      <trkpt lat="46.52279" lon="5.61586">
        <ele>507.71</ele>
        <time>2014-07-31T09:33:36Z</time>
      </trkpt>
      <trkpt lat="46.52292" lon="5.61596">
        <ele>507.71</ele>
        <time>2014-07-31T09:33:39Z</time>
      </trkpt>
      <trkpt lat="46.52321" lon="5.61619">
        <ele>507.71</ele>
        <time>2014-07-31T09:33:46Z</time>
      </trkpt>
      <trkpt lat="46.52332" lon="5.6163">
        <ele>507.23</ele>
        <time>2014-07-31T09:33:49Z</time>
      </trkpt>
      <trkpt lat="46.52347" lon="5.61653">
        <ele>506.27</ele>
        <time>2014-07-31T09:33:53Z</time>
      </trkpt>
      <trkpt lat="46.52367" lon="5.61731">
        <ele>502.43</ele>
        <time>2014-07-31T09:34:01Z</time>
      </trkpt>
      <trkpt lat="46.52378" lon="5.61783">
        <ele>499.54</ele>
        <time>2014-07-31T09:34:06Z</time>
      </trkpt>
      <trkpt lat="46.52386" lon="5.61826">
        <ele>497.62</ele>
        <time>2014-07-31T09:34:10Z</time>
      </trkpt>
      <trkpt lat="46.52391" lon="5.61861">
        <ele>496.18</ele>
        <time>2014-07-31T09:34:13Z</time>
      </trkpt>
      <trkpt lat="46.52388" lon="5.61979">
        <ele>493.29</ele>
        <time>2014-07-31T09:34:23Z</time>
      </trkpt>
      <trkpt lat="46.52378" lon="5.62144">
        <ele>491.85</ele>
        <time>2014-07-31T09:34:39Z</time>
      </trkpt>
      <trkpt lat="46.52373" lon="5.62195">
        <ele>491.37</ele>
        <time>2014-07-31T09:34:49Z</time>
      </trkpt>
      <trkpt lat="46.52373" lon="5.62195">
        <ele>491.37</ele>
        <time>2014-07-31T09:34:53Z</time>
      </trkpt>
      <trkpt lat="46.52373" lon="5.62201">
        <ele>491.85</ele>
        <time>2014-07-31T09:35:06Z</time>
      </trkpt>
      <trkpt lat="46.52373" lon="5.62203">
        <ele>491.85</ele>
        <time>2014-07-31T09:35:14Z</time>
      </trkpt>
      <trkpt lat="46.52373" lon="5.6221">
        <ele>491.85</ele>
        <time>2014-07-31T09:35:18Z</time>
      </trkpt>
      <trkpt lat="46.52369" lon="5.62259">
        <ele>492.81</ele>
        <time>2014-07-31T09:35:32Z</time>
      </trkpt>
      <trkpt lat="46.52368" lon="5.62341">
        <ele>495.22</ele>
        <time>2014-07-31T09:35:51Z</time>
      </trkpt>
      <trkpt lat="46.52378" lon="5.62409">
        <ele>498.1</ele>
        <time>2014-07-31T09:36:08Z</time>
      </trkpt>
      <trkpt lat="46.5238" lon="5.62417">
        <ele>498.58</ele>
        <time>2014-07-31T09:36:10Z</time>
      </trkpt>
      <trkpt lat="46.52367" lon="5.6247">
        <ele>499.54</ele>
        <time>2014-07-31T09:36:23Z</time>
      </trkpt>
      <trkpt lat="46.52372" lon="5.62531">
        <ele>500.02</ele>
        <time>2014-07-31T09:36:36Z</time>
      </trkpt>
      <trkpt lat="46.52372" lon="5.62578">
        <ele>500.5</ele>
        <time>2014-07-31T09:36:45Z</time>
      </trkpt>
      <trkpt lat="46.52366" lon="5.62615">
        <ele>500.5</ele>
        <time>2014-07-31T09:36:51Z</time>
      </trkpt>
      <trkpt lat="46.52359" lon="5.62635">
        <ele>500.5</ele>
        <time>2014-07-31T09:36:54Z</time>
      </trkpt>
      <trkpt lat="46.52335" lon="5.62676">
        <ele>499.06</ele>
        <time>2014-07-31T09:37:00Z</time>
      </trkpt>
      <trkpt lat="46.52308" lon="5.62699">
        <ele>496.66</ele>
        <time>2014-07-31T09:37:04Z</time>
      </trkpt>
      <trkpt lat="46.52254" lon="5.62711">
        <ele>492.81</ele>
        <time>2014-07-31T09:37:10Z</time>
      </trkpt>
      <trkpt lat="46.52225" lon="5.62709">
        <ele>491.37</ele>
        <time>2014-07-31T09:37:13Z</time>
      </trkpt>
      <trkpt lat="46.52176" lon="5.62704">
        <ele>488.49</ele>
        <time>2014-07-31T09:37:18Z</time>
      </trkpt>
      <trkpt lat="46.52156" lon="5.62703">
        <ele>488.01</ele>
        <time>2014-07-31T09:37:20Z</time>
      </trkpt>
      <trkpt lat="46.52137" lon="5.62703">
        <ele>487.05</ele>
        <time>2014-07-31T09:37:22Z</time>
      </trkpt>
      <trkpt lat="46.52093" lon="5.62728">
        <ele>487.05</ele>
        <time>2014-07-31T09:37:28Z</time>
      </trkpt>
      <trkpt lat="46.52016" lon="5.62841">
        <ele>487.05</ele>
        <time>2014-07-31T09:37:44Z</time>
      </trkpt>
      <trkpt lat="46.51934" lon="5.62965">
        <ele>486.08</ele>
        <time>2014-07-31T09:38:02Z</time>
      </trkpt>
      <trkpt lat="46.5192" lon="5.62985">
        <ele>486.08</ele>
        <time>2014-07-31T09:38:05Z</time>
      </trkpt>
      <trkpt lat="46.5191" lon="5.62997">
        <ele>486.08</ele>
        <time>2014-07-31T09:38:07Z</time>
      </trkpt>
      <trkpt lat="46.51824" lon="5.63045">
        <ele>485.6</ele>
        <time>2014-07-31T09:38:21Z</time>
      </trkpt>
      <trkpt lat="46.51749" lon="5.63127">
        <ele>483.68</ele>
        <time>2014-07-31T09:38:34Z</time>
      </trkpt>
      <trkpt lat="46.51706" lon="5.63234">
        <ele>480.8</ele>
        <time>2014-07-31T09:38:44Z</time>
      </trkpt>
      <trkpt lat="46.51674" lon="5.63333">
        <ele>477.43</ele>
        <time>2014-07-31T09:38:52Z</time>
      </trkpt>
      <trkpt lat="46.51662" lon="5.63371">
        <ele>476.47</ele>
        <time>2014-07-31T09:38:55Z</time>
      </trkpt>
      <trkpt lat="46.51632" lon="5.63499">
        <ele>473.11</ele>
        <time>2014-07-31T09:39:05Z</time>
      </trkpt>
      <trkpt lat="46.51629" lon="5.63524">
        <ele>471.66</ele>
        <time>2014-07-31T09:39:07Z</time>
      </trkpt>
      <trkpt lat="46.51629" lon="5.63549">
        <ele>470.7</ele>
        <time>2014-07-31T09:39:09Z</time>
      </trkpt>
      <trkpt lat="46.51646" lon="5.6362">
        <ele>468.3</ele>
        <time>2014-07-31T09:39:15Z</time>
      </trkpt>
      <trkpt lat="46.51668" lon="5.63691">
        <ele>466.38</ele>
        <time>2014-07-31T09:39:21Z</time>
      </trkpt>
      <trkpt lat="46.51671" lon="5.6376">
        <ele>466.86</ele>
        <time>2014-07-31T09:39:27Z</time>
      </trkpt>
      <trkpt lat="46.51647" lon="5.63909">
        <ele>465.9</ele>
        <time>2014-07-31T09:39:43Z</time>
      </trkpt>
      <trkpt lat="46.51642" lon="5.64012">
        <ele>465.9</ele>
        <time>2014-07-31T09:39:55Z</time>
      </trkpt>
      <trkpt lat="46.51607" lon="5.64076">
        <ele>464.45</ele>
        <time>2014-07-31T09:40:04Z</time>
      </trkpt>
      <trkpt lat="46.516" lon="5.64079">
        <ele>464.45</ele>
        <time>2014-07-31T09:40:05Z</time>
      </trkpt>
      <trkpt lat="46.51527" lon="5.64102">
        <ele>462.53</ele>
        <time>2014-07-31T09:40:15Z</time>
      </trkpt>
      <trkpt lat="46.51457" lon="5.6418">
        <ele>460.13</ele>
        <time>2014-07-31T09:40:27Z</time>
      </trkpt>
      <trkpt lat="46.51387" lon="5.64277">
        <ele>456.76</ele>
        <time>2014-07-31T09:40:40Z</time>
      </trkpt>
      <trkpt lat="46.51312" lon="5.64382">
        <ele>455.8</ele>
        <time>2014-07-31T09:40:55Z</time>
      </trkpt>
      <trkpt lat="46.51236" lon="5.64487">
        <ele>454.84</ele>
        <time>2014-07-31T09:41:11Z</time>
      </trkpt>
      <trkpt lat="46.51155" lon="5.64599">
        <ele>454.36</ele>
        <time>2014-07-31T09:41:29Z</time>
      </trkpt>
      <trkpt lat="46.51077" lon="5.64704">
        <ele>454.36</ele>
        <time>2014-07-31T09:41:46Z</time>
      </trkpt>
      <trkpt lat="46.50999" lon="5.64813">
        <ele>454.36</ele>
        <time>2014-07-31T09:42:04Z</time>
      </trkpt>
      <trkpt lat="46.50928" lon="5.64909">
        <ele>454.36</ele>
        <time>2014-07-31T09:42:20Z</time>
      </trkpt>
      <trkpt lat="46.5085" lon="5.65015">
        <ele>455.32</ele>
        <time>2014-07-31T09:42:39Z</time>
      </trkpt>
      <trkpt lat="46.5079" lon="5.651">
        <ele>455.8</ele>
        <time>2014-07-31T09:42:54Z</time>
      </trkpt>
      <trkpt lat="46.50703" lon="5.65219">
        <ele>457.24</ele>
        <time>2014-07-31T09:43:16Z</time>
      </trkpt>
      <trkpt lat="46.50635" lon="5.65311">
        <ele>457.72</ele>
        <time>2014-07-31T09:43:34Z</time>
      </trkpt>
      <trkpt lat="46.50574" lon="5.65394">
        <ele>459.17</ele>
        <time>2014-07-31T09:43:52Z</time>
      </trkpt>
      <trkpt lat="46.5052" lon="5.65467">
        <ele>460.61</ele>
        <time>2014-07-31T09:44:08Z</time>
      </trkpt>
      <trkpt lat="46.50449" lon="5.65565">
        <ele>461.57</ele>
        <time>2014-07-31T09:44:29Z</time>
      </trkpt>
      <trkpt lat="46.50396" lon="5.65634">
        <ele>463.01</ele>
        <time>2014-07-31T09:44:44Z</time>
      </trkpt>
      <trkpt lat="46.50374" lon="5.65643">
        <ele>463.01</ele>
        <time>2014-07-31T09:44:49Z</time>
      </trkpt>
      <trkpt lat="46.50361" lon="5.65641">
        <ele>463.49</ele>
        <time>2014-07-31T09:44:52Z</time>
      </trkpt>
      <trkpt lat="46.50321" lon="5.65618">
        <ele>465.42</ele>
        <time>2014-07-31T09:45:04Z</time>
      </trkpt>
      <trkpt lat="46.50284" lon="5.65584">
        <ele>467.82</ele>
        <time>2014-07-31T09:45:19Z</time>
      </trkpt>
      <trkpt lat="46.50246" lon="5.65552">
        <ele>470.22</ele>
        <time>2014-07-31T09:45:35Z</time>
      </trkpt>
      <trkpt lat="46.50214" lon="5.65554">
        <ele>472.14</ele>
        <time>2014-07-31T09:45:47Z</time>
      </trkpt>
      <trkpt lat="46.50177" lon="5.65539">
        <ele>474.07</ele>
        <time>2014-07-31T09:46:00Z</time>
      </trkpt>
      <trkpt lat="46.50144" lon="5.65516">
        <ele>475.99</ele>
        <time>2014-07-31T09:46:15Z</time>
      </trkpt>
      <trkpt lat="46.50108" lon="5.65492">
        <ele>477.91</ele>
        <time>2014-07-31T09:46:31Z</time>
      </trkpt>
      <trkpt lat="46.50076" lon="5.65476">
        <ele>479.35</ele>
        <time>2014-07-31T09:46:45Z</time>
      </trkpt>
      <trkpt lat="46.50043" lon="5.65459">
        <ele>481.76</ele>
        <time>2014-07-31T09:47:01Z</time>
      </trkpt>
      <trkpt lat="46.50014" lon="5.65433">
        <ele>483.68</ele>
        <time>2014-07-31T09:47:16Z</time>
      </trkpt>
      <trkpt lat="46.49985" lon="5.65414">
        <ele>484.64</ele>
        <time>2014-07-31T09:47:29Z</time>
      </trkpt>
      <trkpt lat="46.4995" lon="5.654">
        <ele>487.05</ele>
        <time>2014-07-31T09:47:45Z</time>
      </trkpt>
      <trkpt lat="46.49916" lon="5.65391">
        <ele>488.97</ele>
        <time>2014-07-31T09:48:00Z</time>
      </trkpt>
      <trkpt lat="46.49882" lon="5.65391">
        <ele>490.41</ele>
        <time>2014-07-31T09:48:15Z</time>
      </trkpt>
      <trkpt lat="46.4985" lon="5.65382">
        <ele>492.33</ele>
        <time>2014-07-31T09:48:28Z</time>
      </trkpt>
      <trkpt lat="46.49818" lon="5.65379">
        <ele>493.77</ele>
        <time>2014-07-31T09:48:42Z</time>
      </trkpt>
      <trkpt lat="46.49788" lon="5.654">
        <ele>495.7</ele>
        <time>2014-07-31T09:48:57Z</time>
      </trkpt>
      <trkpt lat="46.49757" lon="5.65405">
        <ele>497.62</ele>
        <time>2014-07-31T09:49:11Z</time>
      </trkpt>
      <trkpt lat="46.49725" lon="5.6541">
        <ele>499.06</ele>
        <time>2014-07-31T09:49:25Z</time>
      </trkpt>
      <trkpt lat="46.49692" lon="5.65425">
        <ele>500.98</ele>
        <time>2014-07-31T09:49:40Z</time>
      </trkpt>
      <trkpt lat="46.49658" lon="5.65421">
        <ele>502.91</ele>
        <time>2014-07-31T09:49:55Z</time>
      </trkpt>
      <trkpt lat="46.4963" lon="5.65421">
        <ele>503.87</ele>
        <time>2014-07-31T09:50:08Z</time>
      </trkpt>
      <trkpt lat="46.49628" lon="5.65422">
        <ele>504.35</ele>
        <time>2014-07-31T09:50:09Z</time>
      </trkpt>
      <trkpt lat="46.49613" lon="5.65423">
        <ele>505.31</ele>
        <time>2014-07-31T09:50:16Z</time>
      </trkpt>
      <trkpt lat="46.49589" lon="5.65427">
        <ele>506.27</ele>
        <time>2014-07-31T09:50:27Z</time>
      </trkpt>
      <trkpt lat="46.49555" lon="5.65433">
        <ele>508.19</ele>
        <time>2014-07-31T09:50:41Z</time>
      </trkpt>
      <trkpt lat="46.49527" lon="5.6544">
        <ele>509.16</ele>
        <time>2014-07-31T09:50:54Z</time>
      </trkpt>
      <trkpt lat="46.49487" lon="5.65438">
        <ele>511.56</ele>
        <time>2014-07-31T09:51:10Z</time>
      </trkpt>
      <trkpt lat="46.49447" lon="5.65449">
        <ele>513.48</ele>
        <time>2014-07-31T09:51:26Z</time>
      </trkpt>
      <trkpt lat="46.49428" lon="5.65478">
        <ele>514.44</ele>
        <time>2014-07-31T09:51:38Z</time>
      </trkpt>
      <trkpt lat="46.49407" lon="5.65515">
        <ele>516.37</ele>
        <time>2014-07-31T09:51:53Z</time>
      </trkpt>
      <trkpt lat="46.49379" lon="5.65548">
        <ele>518.29</ele>
        <time>2014-07-31T09:52:09Z</time>
      </trkpt>
      <trkpt lat="46.4935" lon="5.65571">
        <ele>519.73</ele>
        <time>2014-07-31T09:52:23Z</time>
      </trkpt>
      <trkpt lat="46.49328" lon="5.65587">
        <ele>521.17</ele>
        <time>2014-07-31T09:52:34Z</time>
      </trkpt>
      <trkpt lat="46.49302" lon="5.65618">
        <ele>522.61</ele>
        <time>2014-07-31T09:52:49Z</time>
      </trkpt>
      <trkpt lat="46.49272" lon="5.65649">
        <ele>524.54</ele>
        <time>2014-07-31T09:53:05Z</time>
      </trkpt>
      <trkpt lat="46.49241" lon="5.65668">
        <ele>525.98</ele>
        <time>2014-07-31T09:53:19Z</time>
      </trkpt>
      <trkpt lat="46.49212" lon="5.65698">
        <ele>527.9</ele>
        <time>2014-07-31T09:53:33Z</time>
      </trkpt>
      <trkpt lat="46.49187" lon="5.6573">
        <ele>529.34</ele>
        <time>2014-07-31T09:53:45Z</time>
      </trkpt>
      <trkpt lat="46.49185" lon="5.65732">
        <ele>529.34</ele>
        <time>2014-07-31T09:54:00Z</time>
      </trkpt>
      <trkpt lat="46.49185" lon="5.65733">
        <ele>529.34</ele>
        <time>2014-07-31T09:54:21Z</time>
      </trkpt>
      <trkpt lat="46.49185" lon="5.65734">
        <ele>529.34</ele>
        <time>2014-07-31T09:54:26Z</time>
      </trkpt>
      <trkpt lat="46.49189" lon="5.65729">
        <ele>528.86</ele>
        <time>2014-07-31T09:54:30Z</time>
      </trkpt>
      <trkpt lat="46.49194" lon="5.65714">
        <ele>528.38</ele>
        <time>2014-07-31T09:54:34Z</time>
      </trkpt>
      <trkpt lat="46.49182" lon="5.657">
        <ele>527.9</ele>
        <time>2014-07-31T09:54:39Z</time>
      </trkpt>
      <trkpt lat="46.49168" lon="5.65702">
        <ele>527.42</ele>
        <time>2014-07-31T09:54:42Z</time>
      </trkpt>
      <trkpt lat="46.49148" lon="5.65692">
        <ele>525.98</ele>
        <time>2014-07-31T09:54:46Z</time>
      </trkpt>
      <trkpt lat="46.49134" lon="5.65681">
        <ele>525.98</ele>
        <time>2014-07-31T09:54:49Z</time>
      </trkpt>
      <trkpt lat="46.49115" lon="5.6567">
        <ele>525.5</ele>
        <time>2014-07-31T09:54:53Z</time>
      </trkpt>
      <trkpt lat="46.49064" lon="5.65671">
        <ele>526.94</ele>
        <time>2014-07-31T09:55:07Z</time>
      </trkpt>
      <trkpt lat="46.49018" lon="5.65679">
        <ele>528.86</ele>
        <time>2014-07-31T09:55:23Z</time>
      </trkpt>
      <trkpt lat="46.48978" lon="5.65685">
        <ele>530.3</ele>
        <time>2014-07-31T09:55:37Z</time>
      </trkpt>
      <trkpt lat="46.48939" lon="5.65678">
        <ele>532.23</ele>
        <time>2014-07-31T09:55:51Z</time>
      </trkpt>
      <trkpt lat="46.48893" lon="5.65654">
        <ele>534.15</ele>
        <time>2014-07-31T09:56:08Z</time>
      </trkpt>
      <trkpt lat="46.48857" lon="5.65645">
        <ele>536.07</ele>
        <time>2014-07-31T09:56:21Z</time>
      </trkpt>
      <trkpt lat="46.4881" lon="5.65632">
        <ele>537.51</ele>
        <time>2014-07-31T09:56:37Z</time>
      </trkpt>
      <trkpt lat="46.48768" lon="5.65605">
        <ele>539.92</ele>
        <time>2014-07-31T09:56:52Z</time>
      </trkpt>
      <trkpt lat="46.48727" lon="5.65605">
        <ele>541.84</ele>
        <time>2014-07-31T09:57:07Z</time>
      </trkpt>
      <trkpt lat="46.48683" lon="5.65603">
        <ele>543.76</ele>
        <time>2014-07-31T09:57:22Z</time>
      </trkpt>
      <trkpt lat="46.48647" lon="5.6559">
        <ele>545.2</ele>
        <time>2014-07-31T09:57:34Z</time>
      </trkpt>
      <trkpt lat="46.48609" lon="5.65561">
        <ele>547.13</ele>
        <time>2014-07-31T09:57:48Z</time>
      </trkpt>
      <trkpt lat="46.48573" lon="5.65529">
        <ele>549.05</ele>
        <time>2014-07-31T09:58:02Z</time>
      </trkpt>
      <trkpt lat="46.48537" lon="5.65527">
        <ele>550.97</ele>
        <time>2014-07-31T09:58:15Z</time>
      </trkpt>
      <trkpt lat="46.48505" lon="5.65543">
        <ele>552.9</ele>
        <time>2014-07-31T09:58:28Z</time>
      </trkpt>
      <trkpt lat="46.48468" lon="5.65556">
        <ele>554.34</ele>
        <time>2014-07-31T09:58:42Z</time>
      </trkpt>
      <trkpt lat="46.4842" lon="5.65553">
        <ele>556.74</ele>
        <time>2014-07-31T09:58:56Z</time>
      </trkpt>
      <trkpt lat="46.48379" lon="5.65578">
        <ele>559.14</ele>
        <time>2014-07-31T09:59:11Z</time>
      </trkpt>
      <trkpt lat="46.4834" lon="5.65562">
        <ele>561.07</ele>
        <time>2014-07-31T09:59:24Z</time>
      </trkpt>
      <trkpt lat="46.4833" lon="5.65509">
        <ele>562.99</ele>
        <time>2014-07-31T09:59:38Z</time>
      </trkpt>
      <trkpt lat="46.48303" lon="5.65474">
        <ele>564.91</ele>
        <time>2014-07-31T09:59:52Z</time>
      </trkpt>
      <trkpt lat="46.48268" lon="5.65458">
        <ele>566.35</ele>
        <time>2014-07-31T10:00:07Z</time>
      </trkpt>
      <trkpt lat="46.48232" lon="5.65443">
        <ele>568.28</ele>
        <time>2014-07-31T10:00:21Z</time>
      </trkpt>
      <trkpt lat="46.48206" lon="5.65431">
        <ele>570.2</ele>
        <time>2014-07-31T10:00:35Z</time>
      </trkpt>
      <trkpt lat="46.48168" lon="5.65429">
        <ele>571.16</ele>
        <time>2014-07-31T10:00:47Z</time>
      </trkpt>
      <trkpt lat="46.48132" lon="5.65421">
        <ele>573.08</ele>
        <time>2014-07-31T10:01:00Z</time>
      </trkpt>
      <trkpt lat="46.48103" lon="5.65414">
        <ele>574.53</ele>
        <time>2014-07-31T10:01:12Z</time>
      </trkpt>
      <trkpt lat="46.48055" lon="5.65406">
        <ele>576.93</ele>
        <time>2014-07-31T10:01:28Z</time>
      </trkpt>
      <trkpt lat="46.48003" lon="5.65397">
        <ele>577.89</ele>
        <time>2014-07-31T10:01:43Z</time>
      </trkpt>
      <trkpt lat="46.47962" lon="5.65392">
        <ele>577.41</ele>
        <time>2014-07-31T10:01:55Z</time>
      </trkpt>
      <trkpt lat="46.47958" lon="5.6539">
        <ele>577.41</ele>
        <time>2014-07-31T10:01:56Z</time>
      </trkpt>
      <trkpt lat="46.4794" lon="5.65381">
        <ele>576.45</ele>
        <time>2014-07-31T10:02:00Z</time>
      </trkpt>
      <trkpt lat="46.47901" lon="5.6535">
        <ele>574.04</ele>
        <time>2014-07-31T10:02:07Z</time>
      </trkpt>
      <trkpt lat="46.47865" lon="5.65336">
        <ele>572.6</ele>
        <time>2014-07-31T10:02:12Z</time>
      </trkpt>
      <trkpt lat="46.47809" lon="5.65364">
        <ele>571.64</ele>
        <time>2014-07-31T10:02:20Z</time>
      </trkpt>
      <trkpt lat="46.47785" lon="5.65394">
        <ele>570.68</ele>
        <time>2014-07-31T10:02:24Z</time>
      </trkpt>
      <trkpt lat="46.47722" lon="5.65435">
        <ele>571.64</ele>
        <time>2014-07-31T10:02:35Z</time>
      </trkpt>
      <trkpt lat="46.47633" lon="5.65517">
        <ele>570.68</ele>
        <time>2014-07-31T10:02:52Z</time>
      </trkpt>
      <trkpt lat="46.47592" lon="5.65543">
        <ele>570.2</ele>
        <time>2014-07-31T10:02:59Z</time>
      </trkpt>
      <trkpt lat="46.47561" lon="5.65545">
        <ele>569.72</ele>
        <time>2014-07-31T10:03:04Z</time>
      </trkpt>
      <trkpt lat="46.47525" lon="5.65524">
        <ele>570.2</ele>
        <time>2014-07-31T10:03:11Z</time>
      </trkpt>
      <trkpt lat="46.47464" lon="5.65517">
        <ele>569.72</ele>
        <time>2014-07-31T10:03:22Z</time>
      </trkpt>
      <trkpt lat="46.47389" lon="5.65565">
        <ele>570.2</ele>
        <time>2014-07-31T10:03:37Z</time>
      </trkpt>
      <trkpt lat="46.4735" lon="5.65632">
        <ele>570.2</ele>
        <time>2014-07-31T10:03:47Z</time>
      </trkpt>
      <trkpt lat="46.47296" lon="5.65656">
        <ele>570.2</ele>
        <time>2014-07-31T10:03:57Z</time>
      </trkpt>
      <trkpt lat="46.47291" lon="5.65654">
        <ele>570.2</ele>
        <time>2014-07-31T10:03:58Z</time>
      </trkpt>
      <trkpt lat="46.47281" lon="5.65649">
        <ele>569.72</ele>
        <time>2014-07-31T10:04:00Z</time>
      </trkpt>
      <trkpt lat="46.47235" lon="5.65611">
        <ele>571.16</ele>
        <time>2014-07-31T10:04:13Z</time>
      </trkpt>
      <trkpt lat="46.47166" lon="5.65602">
        <ele>571.64</ele>
        <time>2014-07-31T10:04:28Z</time>
      </trkpt>
      <trkpt lat="46.47136" lon="5.656">
        <ele>572.12</ele>
        <time>2014-07-31T10:04:34Z</time>
      </trkpt>
      <trkpt lat="46.47075" lon="5.65596">
        <ele>574.04</ele>
        <time>2014-07-31T10:04:49Z</time>
      </trkpt>
      <trkpt lat="46.47038" lon="5.65589">
        <ele>574.53</ele>
        <time>2014-07-31T10:04:57Z</time>
      </trkpt>
      <trkpt lat="46.46948" lon="5.65591">
        <ele>575.49</ele>
        <time>2014-07-31T10:05:16Z</time>
      </trkpt>
      <trkpt lat="46.46875" lon="5.65601">
        <ele>575.49</ele>
        <time>2014-07-31T10:05:31Z</time>
      </trkpt>
      <trkpt lat="46.46776" lon="5.65614">
        <ele>575.49</ele>
        <time>2014-07-31T10:05:49Z</time>
      </trkpt>
      <trkpt lat="46.46699" lon="5.65633">
        <ele>576.93</ele>
        <time>2014-07-31T10:06:05Z</time>
      </trkpt>
      <trkpt lat="46.46613" lon="5.6564">
        <ele>576.45</ele>
        <time>2014-07-31T10:06:22Z</time>
      </trkpt>
      <trkpt lat="46.46523" lon="5.65647">
        <ele>575.01</ele>
        <time>2014-07-31T10:06:37Z</time>
      </trkpt>
      <trkpt lat="46.46509" lon="5.65644">
        <ele>574.53</ele>
        <time>2014-07-31T10:06:39Z</time>
      </trkpt>
      <trkpt lat="46.46484" lon="5.65632">
        <ele>574.53</ele>
        <time>2014-07-31T10:06:43Z</time>
      </trkpt>
      <trkpt lat="46.46462" lon="5.65613">
        <ele>574.53</ele>
        <time>2014-07-31T10:06:47Z</time>
      </trkpt>
      <trkpt lat="46.46423" lon="5.65599">
        <ele>573.56</ele>
        <time>2014-07-31T10:06:53Z</time>
      </trkpt>
      <trkpt lat="46.46346" lon="5.65581">
        <ele>572.6</ele>
        <time>2014-07-31T10:07:04Z</time>
      </trkpt>
      <trkpt lat="46.46322" lon="5.6555">
        <ele>572.6</ele>
        <time>2014-07-31T10:07:09Z</time>
      </trkpt>
      <trkpt lat="46.46306" lon="5.65514">
        <ele>573.08</ele>
        <time>2014-07-31T10:07:14Z</time>
      </trkpt>
      <trkpt lat="46.4629" lon="5.65493">
        <ele>573.08</ele>
        <time>2014-07-31T10:07:18Z</time>
      </trkpt>
      <trkpt lat="46.4628" lon="5.65487">
        <ele>573.08</ele>
        <time>2014-07-31T10:07:20Z</time>
      </trkpt>
      <trkpt lat="46.46186" lon="5.6547">
        <ele>574.53</ele>
        <time>2014-07-31T10:07:38Z</time>
      </trkpt>
      <trkpt lat="46.46162" lon="5.65466">
        <ele>575.01</ele>
        <time>2014-07-31T10:07:43Z</time>
      </trkpt>
      <trkpt lat="46.46092" lon="5.65457">
        <ele>575.97</ele>
        <time>2014-07-31T10:07:57Z</time>
      </trkpt>
      <trkpt lat="46.46015" lon="5.65451">
        <ele>577.89</ele>
        <time>2014-07-31T10:08:13Z</time>
      </trkpt>
      <trkpt lat="46.45955" lon="5.65423">
        <ele>579.81</ele>
        <time>2014-07-31T10:08:28Z</time>
      </trkpt>
      <trkpt lat="46.45899" lon="5.65394">
        <ele>581.25</ele>
        <time>2014-07-31T10:08:43Z</time>
      </trkpt>
      <trkpt lat="46.45836" lon="5.65381">
        <ele>584.14</ele>
        <time>2014-07-31T10:09:01Z</time>
      </trkpt>
      <trkpt lat="46.45785" lon="5.6538">
        <ele>585.58</ele>
        <time>2014-07-31T10:09:16Z</time>
      </trkpt>
      <trkpt lat="46.45724" lon="5.6538">
        <ele>586.06</ele>
        <time>2014-07-31T10:09:32Z</time>
      </trkpt>
      <trkpt lat="46.45673" lon="5.65377">
        <ele>587.02</ele>
        <time>2014-07-31T10:09:45Z</time>
      </trkpt>
      <trkpt lat="46.45616" lon="5.65368">
        <ele>588.95</ele>
        <time>2014-07-31T10:10:01Z</time>
      </trkpt>
      <trkpt lat="46.45568" lon="5.6534">
        <ele>590.87</ele>
        <time>2014-07-31T10:10:16Z</time>
      </trkpt>
      <trkpt lat="46.45525" lon="5.65337">
        <ele>592.31</ele>
        <time>2014-07-31T10:10:29Z</time>
      </trkpt>
      <trkpt lat="46.45492" lon="5.65365">
        <ele>592.31</ele>
        <time>2014-07-31T10:10:40Z</time>
      </trkpt>
      <trkpt lat="46.45459" lon="5.65388">
        <ele>592.31</ele>
        <time>2014-07-31T10:10:51Z</time>
      </trkpt>
      <trkpt lat="46.45424" lon="5.65403">
        <ele>594.23</ele>
        <time>2014-07-31T10:11:03Z</time>
      </trkpt>
      <trkpt lat="46.45379" lon="5.65409">
        <ele>595.67</ele>
        <time>2014-07-31T10:11:17Z</time>
      </trkpt>
      <trkpt lat="46.45333" lon="5.65418">
        <ele>597.6</ele>
        <time>2014-07-31T10:11:32Z</time>
      </trkpt>
      <trkpt lat="46.45297" lon="5.65426">
        <ele>598.08</ele>
        <time>2014-07-31T10:11:44Z</time>
      </trkpt>
      <trkpt lat="46.45253" lon="5.65433">
        <ele>597.6</ele>
        <time>2014-07-31T10:11:57Z</time>
      </trkpt>
      <trkpt lat="46.45236" lon="5.65437">
        <ele>597.12</ele>
        <time>2014-07-31T10:12:01Z</time>
      </trkpt>
      <trkpt lat="46.45185" lon="5.65452">
        <ele>595.67</ele>
        <time>2014-07-31T10:12:11Z</time>
      </trkpt>
      <trkpt lat="46.45104" lon="5.65496">
        <ele>592.79</ele>
        <time>2014-07-31T10:12:25Z</time>
      </trkpt>
      <trkpt lat="46.45091" lon="5.65501">
        <ele>592.31</ele>
        <time>2014-07-31T10:12:27Z</time>
      </trkpt>
      <trkpt lat="46.44998" lon="5.65523">
        <ele>588.95</ele>
        <time>2014-07-31T10:12:40Z</time>
      </trkpt>
      <trkpt lat="46.44923" lon="5.65538">
        <ele>585.58</ele>
        <time>2014-07-31T10:12:50Z</time>
      </trkpt>
      <trkpt lat="46.44852" lon="5.6556">
        <ele>582.7</ele>
        <time>2014-07-31T10:12:59Z</time>
      </trkpt>
      <trkpt lat="46.44836" lon="5.65565">
        <ele>581.73</ele>
        <time>2014-07-31T10:13:01Z</time>
      </trkpt>
      <trkpt lat="46.44753" lon="5.65556">
        <ele>577.89</ele>
        <time>2014-07-31T10:13:11Z</time>
      </trkpt>
      <trkpt lat="46.44665" lon="5.65539">
        <ele>575.01</ele>
        <time>2014-07-31T10:13:21Z</time>
      </trkpt>
      <trkpt lat="46.44562" lon="5.65511">
        <ele>572.12</ele>
        <time>2014-07-31T10:13:34Z</time>
      </trkpt>
      <trkpt lat="46.44471" lon="5.65494">
        <ele>568.76</ele>
        <time>2014-07-31T10:13:45Z</time>
      </trkpt>
      <trkpt lat="46.44411" lon="5.65488">
        <ele>565.39</ele>
        <time>2014-07-31T10:13:51Z</time>
      </trkpt>
      <trkpt lat="46.4436" lon="5.6548">
        <ele>561.55</ele>
        <time>2014-07-31T10:13:56Z</time>
      </trkpt>
      <trkpt lat="46.44291" lon="5.65458">
        <ele>558.18</ele>
        <time>2014-07-31T10:14:03Z</time>
      </trkpt>
      <trkpt lat="46.44239" lon="5.65425">
        <ele>556.26</ele>
        <time>2014-07-31T10:14:09Z</time>
      </trkpt>
      <trkpt lat="46.44164" lon="5.65433">
        <ele>552.41</ele>
        <time>2014-07-31T10:14:17Z</time>
      </trkpt>
      <trkpt lat="46.44155" lon="5.65441">
        <ele>551.93</ele>
        <time>2014-07-31T10:14:18Z</time>
      </trkpt>
      <trkpt lat="46.44119" lon="5.6547">
        <ele>550.49</ele>
        <time>2014-07-31T10:14:22Z</time>
      </trkpt>
      <trkpt lat="46.44062" lon="5.65468">
        <ele>548.09</ele>
        <time>2014-07-31T10:14:28Z</time>
      </trkpt>
      <trkpt lat="46.43996" lon="5.65425">
        <ele>550.01</ele>
        <time>2014-07-31T10:14:39Z</time>
      </trkpt>
      <trkpt lat="46.43956" lon="5.65399">
        <ele>552.41</ele>
        <time>2014-07-31T10:14:51Z</time>
      </trkpt>
      <trkpt lat="46.43926" lon="5.65374">
        <ele>553.86</ele>
        <time>2014-07-31T10:15:02Z</time>
      </trkpt>
      <trkpt lat="46.43882" lon="5.65323">
        <ele>554.82</ele>
        <time>2014-07-31T10:15:18Z</time>
      </trkpt>
      <trkpt lat="46.43845" lon="5.65289">
        <ele>556.74</ele>
        <time>2014-07-31T10:15:31Z</time>
      </trkpt>
      <trkpt lat="46.43814" lon="5.65266">
        <ele>558.18</ele>
        <time>2014-07-31T10:15:43Z</time>
      </trkpt>
      <trkpt lat="46.43768" lon="5.65239">
        <ele>559.62</ele>
        <time>2014-07-31T10:15:58Z</time>
      </trkpt>
      <trkpt lat="46.43722" lon="5.65203">
        <ele>562.03</ele>
        <time>2014-07-31T10:16:15Z</time>
      </trkpt>
      <trkpt lat="46.4368" lon="5.65185">
        <ele>562.99</ele>
        <time>2014-07-31T10:16:29Z</time>
      </trkpt>
      <trkpt lat="46.43621" lon="5.65178">
        <ele>564.91</ele>
        <time>2014-07-31T10:16:47Z</time>
      </trkpt>
      <trkpt lat="46.43572" lon="5.65172">
        <ele>565.39</ele>
        <time>2014-07-31T10:17:01Z</time>
      </trkpt>
      <trkpt lat="46.43519" lon="5.65165">
        <ele>566.35</ele>
        <time>2014-07-31T10:17:15Z</time>
      </trkpt>
      <trkpt lat="46.43515" lon="5.65164">
        <ele>566.35</ele>
        <time>2014-07-31T10:17:16Z</time>
      </trkpt>
      <trkpt lat="46.43421" lon="5.6515">
        <ele>566.83</ele>
        <time>2014-07-31T10:17:37Z</time>
      </trkpt>
      <trkpt lat="46.43342" lon="5.65138">
        <ele>568.76</ele>
        <time>2014-07-31T10:17:55Z</time>
      </trkpt>
      <trkpt lat="46.43306" lon="5.6513">
        <ele>569.72</ele>
        <time>2014-07-31T10:18:04Z</time>
      </trkpt>
      <trkpt lat="46.43252" lon="5.65113">
        <ele>571.64</ele>
        <time>2014-07-31T10:18:18Z</time>
      </trkpt>
      <trkpt lat="46.43202" lon="5.65093">
        <ele>572.6</ele>
        <time>2014-07-31T10:18:32Z</time>
      </trkpt>
      <trkpt lat="46.43137" lon="5.65069">
        <ele>573.56</ele>
        <time>2014-07-31T10:18:48Z</time>
      </trkpt>
      <trkpt lat="46.43068" lon="5.65043">
        <ele>574.04</ele>
        <time>2014-07-31T10:19:02Z</time>
      </trkpt>
      <trkpt lat="46.42989" lon="5.65016">
        <ele>575.97</ele>
        <time>2014-07-31T10:19:20Z</time>
      </trkpt>
      <trkpt lat="46.42984" lon="5.65015">
        <ele>575.97</ele>
        <time>2014-07-31T10:19:21Z</time>
      </trkpt>
      <trkpt lat="46.42962" lon="5.65007">
        <ele>575.97</ele>
        <time>2014-07-31T10:19:26Z</time>
      </trkpt>
      <trkpt lat="46.42933" lon="5.65004">
        <ele>575.97</ele>
        <time>2014-07-31T10:19:32Z</time>
      </trkpt>
      <trkpt lat="46.42921" lon="5.65003">
        <ele>575.97</ele>
        <time>2014-07-31T10:19:35Z</time>
      </trkpt>
      <trkpt lat="46.42864" lon="5.64992">
        <ele>576.45</ele>
        <time>2014-07-31T10:19:48Z</time>
      </trkpt>
      <trkpt lat="46.42813" lon="5.64985">
        <ele>575.49</ele>
        <time>2014-07-31T10:19:57Z</time>
      </trkpt>
      <trkpt lat="46.42779" lon="5.64977">
        <ele>575.49</ele>
        <time>2014-07-31T10:20:03Z</time>
      </trkpt>
      <trkpt lat="46.42753" lon="5.64969">
        <ele>575.49</ele>
        <time>2014-07-31T10:20:08Z</time>
      </trkpt>
      <trkpt lat="46.42735" lon="5.64962">
        <ele>575.97</ele>
        <time>2014-07-31T10:20:12Z</time>
      </trkpt>
      <trkpt lat="46.42668" lon="5.64942">
        <ele>577.89</ele>
        <time>2014-07-31T10:20:29Z</time>
      </trkpt>
      <trkpt lat="46.42648" lon="5.64938">
        <ele>577.89</ele>
        <time>2014-07-31T10:20:34Z</time>
      </trkpt>
      <trkpt lat="46.42591" lon="5.64937">
        <ele>578.85</ele>
        <time>2014-07-31T10:20:47Z</time>
      </trkpt>
      <trkpt lat="46.42527" lon="5.6494">
        <ele>581.25</ele>
        <time>2014-07-31T10:21:03Z</time>
      </trkpt>
      <trkpt lat="46.4248" lon="5.64928">
        <ele>584.14</ele>
        <time>2014-07-31T10:21:21Z</time>
      </trkpt>
      <trkpt lat="46.42447" lon="5.64924">
        <ele>586.54</ele>
        <time>2014-07-31T10:21:37Z</time>
      </trkpt>
      <trkpt lat="46.42417" lon="5.64929">
        <ele>588.95</ele>
        <time>2014-07-31T10:21:49Z</time>
      </trkpt>
      <trkpt lat="46.42389" lon="5.64934">
        <ele>590.87</ele>
        <time>2014-07-31T10:22:03Z</time>
      </trkpt>
      <trkpt lat="46.42364" lon="5.64935">
        <ele>592.31</ele>
        <time>2014-07-31T10:22:14Z</time>
      </trkpt>
      <trkpt lat="46.42341" lon="5.64938">
        <ele>593.75</ele>
        <time>2014-07-31T10:22:25Z</time>
      </trkpt>
      <trkpt lat="46.4233" lon="5.64943">
        <ele>594.23</ele>
        <time>2014-07-31T10:22:34Z</time>
      </trkpt>
      <trkpt lat="46.42326" lon="5.64948">
        <ele>593.75</ele>
        <time>2014-07-31T10:22:46Z</time>
      </trkpt>
      <trkpt lat="46.42326" lon="5.64948">
        <ele>594.23</ele>
        <time>2014-07-31T10:23:08Z</time>
      </trkpt>
      <trkpt lat="46.42325" lon="5.64948">
        <ele>593.75</ele>
        <time>2014-07-31T10:23:39Z</time>
      </trkpt>
      <trkpt lat="46.42325" lon="5.64948">
        <ele>593.75</ele>
        <time>2014-07-31T10:23:55Z</time>
      </trkpt>
      <trkpt lat="46.42321" lon="5.64954">
        <ele>593.27</ele>
        <time>2014-07-31T10:24:00Z</time>
      </trkpt>
      <trkpt lat="46.42277" lon="5.64977">
        <ele>591.35</ele>
        <time>2014-07-31T10:24:12Z</time>
      </trkpt>
      <trkpt lat="46.42232" lon="5.64989">
        <ele>589.43</ele>
        <time>2014-07-31T10:24:19Z</time>
      </trkpt>
      <trkpt lat="46.42188" lon="5.64992">
        <ele>587.5</ele>
        <time>2014-07-31T10:24:25Z</time>
      </trkpt>
      <trkpt lat="46.4216" lon="5.64987">
        <ele>585.58</ele>
        <time>2014-07-31T10:24:29Z</time>
      </trkpt>
      <trkpt lat="46.42146" lon="5.64986">
        <ele>585.1</ele>
        <time>2014-07-31T10:24:31Z</time>
      </trkpt>
      <trkpt lat="46.42124" lon="5.64992">
        <ele>584.14</ele>
        <time>2014-07-31T10:24:35Z</time>
      </trkpt>
      <trkpt lat="46.42091" lon="5.64993">
        <ele>582.22</ele>
        <time>2014-07-31T10:24:41Z</time>
      </trkpt>
      <trkpt lat="46.42077" lon="5.64989">
        <ele>581.25</ele>
        <time>2014-07-31T10:24:50Z</time>
      </trkpt>
      <trkpt lat="46.42077" lon="5.6499">
        <ele>581.25</ele>
        <time>2014-07-31T10:25:14Z</time>
      </trkpt>
      <trkpt lat="46.42062" lon="5.64973">
        <ele>580.77</ele>
        <time>2014-07-31T10:25:22Z</time>
      </trkpt>
      <trkpt lat="46.42033" lon="5.64964">
        <ele>578.85</ele>
        <time>2014-07-31T10:25:27Z</time>
      </trkpt>
      <trkpt lat="46.41975" lon="5.64945">
        <ele>575.49</ele>
        <time>2014-07-31T10:25:35Z</time>
      </trkpt>
      <trkpt lat="46.41949" lon="5.64935">
        <ele>573.56</ele>
        <time>2014-07-31T10:25:38Z</time>
      </trkpt>
      <trkpt lat="46.41904" lon="5.64934">
        <ele>571.16</ele>
        <time>2014-07-31T10:25:43Z</time>
      </trkpt>
      <trkpt lat="46.41843" lon="5.64931">
        <ele>568.76</ele>
        <time>2014-07-31T10:25:50Z</time>
      </trkpt>
      <trkpt lat="46.418" lon="5.64925">
        <ele>567.8</ele>
        <time>2014-07-31T10:25:55Z</time>
      </trkpt>
      <trkpt lat="46.41746" lon="5.64902">
        <ele>564.43</ele>
        <time>2014-07-31T10:26:01Z</time>
      </trkpt>
      <trkpt lat="46.41695" lon="5.64892">
        <ele>561.07</ele>
        <time>2014-07-31T10:26:06Z</time>
      </trkpt>
      <trkpt lat="46.41652" lon="5.64887">
        <ele>558.66</ele>
        <time>2014-07-31T10:26:10Z</time>
      </trkpt>
      <trkpt lat="46.41619" lon="5.64888">
        <ele>556.74</ele>
        <time>2014-07-31T10:26:13Z</time>
      </trkpt>
      <trkpt lat="46.41577" lon="5.64899">
        <ele>553.86</ele>
        <time>2014-07-31T10:26:17Z</time>
      </trkpt>
      <trkpt lat="46.41536" lon="5.64897">
        <ele>552.41</ele>
        <time>2014-07-31T10:26:21Z</time>
      </trkpt>
      <trkpt lat="46.41475" lon="5.64892">
        <ele>549.05</ele>
        <time>2014-07-31T10:26:27Z</time>
      </trkpt>
      <trkpt lat="46.41445" lon="5.64894">
        <ele>548.09</ele>
        <time>2014-07-31T10:26:30Z</time>
      </trkpt>
      <trkpt lat="46.41406" lon="5.64911">
        <ele>545.2</ele>
        <time>2014-07-31T10:26:34Z</time>
      </trkpt>
      <trkpt lat="46.41365" lon="5.64915">
        <ele>543.28</ele>
        <time>2014-07-31T10:26:38Z</time>
      </trkpt>
      <trkpt lat="46.4131" lon="5.64905">
        <ele>539.44</ele>
        <time>2014-07-31T10:26:43Z</time>
      </trkpt>
      <trkpt lat="46.41266" lon="5.64903">
        <ele>537.51</ele>
        <time>2014-07-31T10:26:47Z</time>
      </trkpt>
      <trkpt lat="46.41157" lon="5.64888">
        <ele>536.07</ele>
        <time>2014-07-31T10:26:58Z</time>
      </trkpt>
      <trkpt lat="46.41057" lon="5.64864">
        <ele>536.07</ele>
        <time>2014-07-31T10:27:12Z</time>
      </trkpt>
      <trkpt lat="46.41008" lon="5.64853">
        <ele>532.71</ele>
        <time>2014-07-31T10:27:18Z</time>
      </trkpt>
      <trkpt lat="46.40999" lon="5.64851">
        <ele>532.23</ele>
        <time>2014-07-31T10:27:19Z</time>
      </trkpt>
      <trkpt lat="46.40951" lon="5.64841">
        <ele>529.34</ele>
        <time>2014-07-31T10:27:24Z</time>
      </trkpt>
      <trkpt lat="46.40908" lon="5.64836">
        <ele>525.98</ele>
        <time>2014-07-31T10:27:28Z</time>
      </trkpt>
      <trkpt lat="46.40864" lon="5.64842">
        <ele>522.61</ele>
        <time>2014-07-31T10:27:32Z</time>
      </trkpt>
      <trkpt lat="46.40853" lon="5.64843">
        <ele>522.61</ele>
        <time>2014-07-31T10:27:33Z</time>
      </trkpt>
      <trkpt lat="46.40773" lon="5.64836">
        <ele>519.25</ele>
        <time>2014-07-31T10:27:41Z</time>
      </trkpt>
      <trkpt lat="46.40682" lon="5.64835">
        <ele>519.25</ele>
        <time>2014-07-31T10:27:53Z</time>
      </trkpt>
      <trkpt lat="46.40677" lon="5.64835">
        <ele>519.25</ele>
        <time>2014-07-31T10:27:54Z</time>
      </trkpt>
      <trkpt lat="46.40595" lon="5.64854">
        <ele>520.21</ele>
        <time>2014-07-31T10:28:10Z</time>
      </trkpt>
      <trkpt lat="46.40567" lon="5.6486">
        <ele>519.73</ele>
        <time>2014-07-31T10:28:15Z</time>
      </trkpt>
      <trkpt lat="46.40475" lon="5.64856">
        <ele>518.29</ele>
        <time>2014-07-31T10:28:29Z</time>
      </trkpt>
      <trkpt lat="46.40424" lon="5.64846">
        <ele>518.77</ele>
        <time>2014-07-31T10:28:40Z</time>
      </trkpt>
      <trkpt lat="46.40433" lon="5.64845">
        <ele>518.29</ele>
        <time>2014-07-31T10:28:47Z</time>
      </trkpt>
      <trkpt lat="46.40436" lon="5.6484">
        <ele>518.29</ele>
        <time>2014-07-31T10:28:56Z</time>
      </trkpt>
      <trkpt lat="46.40436" lon="5.6484">
        <ele>518.77</ele>
        <time>2014-07-31T10:29:17Z</time>
      </trkpt>
      <trkpt lat="46.40434" lon="5.64849">
        <ele>518.77</ele>
        <time>2014-07-31T10:29:22Z</time>
      </trkpt>
      <trkpt lat="46.40398" lon="5.64848">
        <ele>518.77</ele>
        <time>2014-07-31T10:29:35Z</time>
      </trkpt>
      <trkpt lat="46.40357" lon="5.64868">
        <ele>519.73</ele>
        <time>2014-07-31T10:29:47Z</time>
      </trkpt>
      <trkpt lat="46.40336" lon="5.64913">
        <ele>521.17</ele>
        <time>2014-07-31T10:29:59Z</time>
      </trkpt>
      <trkpt lat="46.40319" lon="5.64967">
        <ele>523.58</ele>
        <time>2014-07-31T10:30:14Z</time>
      </trkpt>
      <trkpt lat="46.40305" lon="5.65007">
        <ele>524.06</ele>
        <time>2014-07-31T10:30:24Z</time>
      </trkpt>
      <trkpt lat="46.40296" lon="5.65027">
        <ele>523.58</ele>
        <time>2014-07-31T10:30:28Z</time>
      </trkpt>
      <trkpt lat="46.40287" lon="5.65061">
        <ele>522.61</ele>
        <time>2014-07-31T10:30:33Z</time>
      </trkpt>
      <trkpt lat="46.40274" lon="5.65132">
        <ele>521.65</ele>
        <time>2014-07-31T10:30:45Z</time>
      </trkpt>
      <trkpt lat="46.40263" lon="5.65185">
        <ele>521.17</ele>
        <time>2014-07-31T10:30:53Z</time>
      </trkpt>
      <trkpt lat="46.4026" lon="5.65225">
        <ele>521.65</ele>
        <time>2014-07-31T10:31:00Z</time>
      </trkpt>
      <trkpt lat="46.4026" lon="5.6523">
        <ele>521.17</ele>
        <time>2014-07-31T10:31:13Z</time>
      </trkpt>
      <trkpt lat="46.4026" lon="5.65232">
        <ele>521.17</ele>
        <time>2014-07-31T10:31:33Z</time>
      </trkpt>
      <trkpt lat="46.40259" lon="5.65231">
        <ele>521.65</ele>
        <time>2014-07-31T10:32:02Z</time>
      </trkpt>
      <trkpt lat="46.40259" lon="5.65231">
        <ele>521.17</ele>
        <time>2014-07-31T10:32:18Z</time>
      </trkpt>
      <trkpt lat="46.40261" lon="5.65248">
        <ele>520.69</ele>
        <time>2014-07-31T10:32:25Z</time>
      </trkpt>
      <trkpt lat="46.40259" lon="5.65262">
        <ele>519.73</ele>
        <time>2014-07-31T10:32:28Z</time>
      </trkpt>
      <trkpt lat="46.40247" lon="5.65306">
        <ele>517.81</ele>
        <time>2014-07-31T10:32:34Z</time>
      </trkpt>
      <trkpt lat="46.40196" lon="5.65398">
        <ele>514.92</ele>
        <time>2014-07-31T10:32:46Z</time>
      </trkpt>
      <trkpt lat="46.40136" lon="5.65482">
        <ele>513.96</ele>
        <time>2014-07-31T10:33:00Z</time>
      </trkpt>
      <trkpt lat="46.40078" lon="5.65551">
        <ele>513</ele>
        <time>2014-07-31T10:33:12Z</time>
      </trkpt>
      <trkpt lat="46.40052" lon="5.65589">
        <ele>512.04</ele>
        <time>2014-07-31T10:33:19Z</time>
      </trkpt>
      <trkpt lat="46.4" lon="5.65669">
        <ele>512.52</ele>
        <time>2014-07-31T10:33:32Z</time>
      </trkpt>
      <trkpt lat="46.39998" lon="5.65676">
        <ele>513</ele>
        <time>2014-07-31T10:33:33Z</time>
      </trkpt>
      <trkpt lat="46.39978" lon="5.65748">
        <ele>511.56</ele>
        <time>2014-07-31T10:33:41Z</time>
      </trkpt>
      <trkpt lat="46.39961" lon="5.65786">
        <ele>509.16</ele>
        <time>2014-07-31T10:33:45Z</time>
      </trkpt>
      <trkpt lat="46.3992" lon="5.65836">
        <ele>505.31</ele>
        <time>2014-07-31T10:33:51Z</time>
      </trkpt>
      <trkpt lat="46.39894" lon="5.65859">
        <ele>502.91</ele>
        <time>2014-07-31T10:33:54Z</time>
      </trkpt>
      <trkpt lat="46.39861" lon="5.65933">
        <ele>499.06</ele>
        <time>2014-07-31T10:34:00Z</time>
      </trkpt>
      <trkpt lat="46.39856" lon="5.65976">
        <ele>498.1</ele>
        <time>2014-07-31T10:34:03Z</time>
      </trkpt>
      <trkpt lat="46.39851" lon="5.66047">
        <ele>495.7</ele>
        <time>2014-07-31T10:34:08Z</time>
      </trkpt>
      <trkpt lat="46.39854" lon="5.66122">
        <ele>496.66</ele>
        <time>2014-07-31T10:34:15Z</time>
      </trkpt>
      <trkpt lat="46.3988" lon="5.66199">
        <ele>499.06</ele>
        <time>2014-07-31T10:34:29Z</time>
      </trkpt>
      <trkpt lat="46.3991" lon="5.6626">
        <ele>500.5</ele>
        <time>2014-07-31T10:34:44Z</time>
      </trkpt>
      <trkpt lat="46.39937" lon="5.66326">
        <ele>501.95</ele>
        <time>2014-07-31T10:34:59Z</time>
      </trkpt>
      <trkpt lat="46.39963" lon="5.66384">
        <ele>502.91</ele>
        <time>2014-07-31T10:35:14Z</time>
      </trkpt>
      <trkpt lat="46.39999" lon="5.66453">
        <ele>501.95</ele>
        <time>2014-07-31T10:35:29Z</time>
      </trkpt>
      <trkpt lat="46.40057" lon="5.66543">
        <ele>498.58</ele>
        <time>2014-07-31T10:35:42Z</time>
      </trkpt>
      <trkpt lat="46.4013" lon="5.66648">
        <ele>495.7</ele>
        <time>2014-07-31T10:35:57Z</time>
      </trkpt>
      <trkpt lat="46.40197" lon="5.66749">
        <ele>493.29</ele>
        <time>2014-07-31T10:36:11Z</time>
      </trkpt>
      <trkpt lat="46.40211" lon="5.66767">
        <ele>493.29</ele>
        <time>2014-07-31T10:36:14Z</time>
      </trkpt>
      <trkpt lat="46.40226" lon="5.6678">
        <ele>493.29</ele>
        <time>2014-07-31T10:36:17Z</time>
      </trkpt>
      <trkpt lat="46.40264" lon="5.66798">
        <ele>492.33</ele>
        <time>2014-07-31T10:36:24Z</time>
      </trkpt>
      <trkpt lat="46.40297" lon="5.66802">
        <ele>490.41</ele>
        <time>2014-07-31T10:36:29Z</time>
      </trkpt>
      <trkpt lat="46.40327" lon="5.66857">
        <ele>488.01</ele>
        <time>2014-07-31T10:36:36Z</time>
      </trkpt>
      <trkpt lat="46.40315" lon="5.66889">
        <ele>486.08</ele>
        <time>2014-07-31T10:36:41Z</time>
      </trkpt>
      <trkpt lat="46.40318" lon="5.66893">
        <ele>486.56</ele>
        <time>2014-07-31T10:36:49Z</time>
      </trkpt>
      <trkpt lat="46.4032" lon="5.66895">
        <ele>487.53</ele>
        <time>2014-07-31T10:37:04Z</time>
      </trkpt>
      <trkpt lat="46.40322" lon="5.66898">
        <ele>487.53</ele>
        <time>2014-07-31T10:37:22Z</time>
      </trkpt>
      <trkpt lat="46.40341" lon="5.66919">
        <ele>488.49</ele>
        <time>2014-07-31T10:37:41Z</time>
      </trkpt>
      <trkpt lat="46.40355" lon="5.66937">
        <ele>488.97</ele>
        <time>2014-07-31T10:37:56Z</time>
      </trkpt>
      <trkpt lat="46.40351" lon="5.66932">
        <ele>488.97</ele>
        <time>2014-07-31T10:38:07Z</time>
      </trkpt>
      <trkpt lat="46.40351" lon="5.66932">
        <ele>488.97</ele>
        <time>2014-07-31T10:38:08Z</time>
      </trkpt>
      <trkpt lat="46.40346" lon="5.66927">
        <ele>488.97</ele>
        <time>2014-07-31T10:38:13Z</time>
      </trkpt>
      <trkpt lat="46.40324" lon="5.66903">
        <ele>487.53</ele>
        <time>2014-07-31T10:38:26Z</time>
      </trkpt>
      <trkpt lat="46.40291" lon="5.66893">
        <ele>485.12</ele>
        <time>2014-07-31T10:38:34Z</time>
      </trkpt>
      <trkpt lat="46.40273" lon="5.66883">
        <ele>484.16</ele>
        <time>2014-07-31T10:38:37Z</time>
      </trkpt>
      <trkpt lat="46.40224" lon="5.66837">
        <ele>480.32</ele>
        <time>2014-07-31T10:38:44Z</time>
      </trkpt>
      <trkpt lat="46.40217" lon="5.6683">
        <ele>479.84</ele>
        <time>2014-07-31T10:38:45Z</time>
      </trkpt>
      <trkpt lat="46.40172" lon="5.6678">
        <ele>476.47</ele>
        <time>2014-07-31T10:38:51Z</time>
      </trkpt>
      <trkpt lat="46.40124" lon="5.66727">
        <ele>473.11</ele>
        <time>2014-07-31T10:38:57Z</time>
      </trkpt>
      <trkpt lat="46.40072" lon="5.66672">
        <ele>469.74</ele>
        <time>2014-07-31T10:39:03Z</time>
      </trkpt>
      <trkpt lat="46.40028" lon="5.66627">
        <ele>466.38</ele>
        <time>2014-07-31T10:39:08Z</time>
      </trkpt>
      <trkpt lat="46.39983" lon="5.66586">
        <ele>463.01</ele>
        <time>2014-07-31T10:39:13Z</time>
      </trkpt>
      <trkpt lat="46.39936" lon="5.66515">
        <ele>459.65</ele>
        <time>2014-07-31T10:39:20Z</time>
      </trkpt>
      <trkpt lat="46.39897" lon="5.66456">
        <ele>456.28</ele>
        <time>2014-07-31T10:39:27Z</time>
      </trkpt>
      <trkpt lat="46.39867" lon="5.66413">
        <ele>452.92</ele>
        <time>2014-07-31T10:39:32Z</time>
      </trkpt>
      <trkpt lat="46.39844" lon="5.66381">
        <ele>450.52</ele>
        <time>2014-07-31T10:39:36Z</time>
      </trkpt>
      <trkpt lat="46.39832" lon="5.66365">
        <ele>448.59</ele>
        <time>2014-07-31T10:39:42Z</time>
      </trkpt>
      <trkpt lat="46.39831" lon="5.66361">
        <ele>448.11</ele>
        <time>2014-07-31T10:39:57Z</time>
      </trkpt>
      <trkpt lat="46.3983" lon="5.6636">
        <ele>448.11</ele>
        <time>2014-07-31T10:40:14Z</time>
      </trkpt>
      <trkpt lat="46.39828" lon="5.66364">
        <ele>447.63</ele>
        <time>2014-07-31T10:40:24Z</time>
      </trkpt>
      <trkpt lat="46.39826" lon="5.66363">
        <ele>447.63</ele>
        <time>2014-07-31T10:40:27Z</time>
      </trkpt>
      <trkpt lat="46.39798" lon="5.66329">
        <ele>445.71</ele>
        <time>2014-07-31T10:40:37Z</time>
      </trkpt>
      <trkpt lat="46.39754" lon="5.66282">
        <ele>442.82</ele>
        <time>2014-07-31T10:40:44Z</time>
      </trkpt>
      <trkpt lat="46.39733" lon="5.66259">
        <ele>440.9</ele>
        <time>2014-07-31T10:40:47Z</time>
      </trkpt>
      <trkpt lat="46.39708" lon="5.66238">
        <ele>438.98</ele>
        <time>2014-07-31T10:40:50Z</time>
      </trkpt>
      <trkpt lat="46.39671" lon="5.66168">
        <ele>434.65</ele>
        <time>2014-07-31T10:40:56Z</time>
      </trkpt>
      <trkpt lat="46.3967" lon="5.66136">
        <ele>433.21</ele>
        <time>2014-07-31T10:40:58Z</time>
      </trkpt>
      <trkpt lat="46.39648" lon="5.6605">
        <ele>428.4</ele>
        <time>2014-07-31T10:41:04Z</time>
      </trkpt>
      <trkpt lat="46.39602" lon="5.6598">
        <ele>424.08</ele>
        <time>2014-07-31T10:41:10Z</time>
      </trkpt>
      <trkpt lat="46.39569" lon="5.65933">
        <ele>420.71</ele>
        <time>2014-07-31T10:41:14Z</time>
      </trkpt>
      <trkpt lat="46.39553" lon="5.65909">
        <ele>419.75</ele>
        <time>2014-07-31T10:41:16Z</time>
      </trkpt>
      <trkpt lat="46.39529" lon="5.65854">
        <ele>416.39</ele>
        <time>2014-07-31T10:41:20Z</time>
      </trkpt>
      <trkpt lat="46.39505" lon="5.65761">
        <ele>412.06</ele>
        <time>2014-07-31T10:41:26Z</time>
      </trkpt>
      <trkpt lat="46.39498" lon="5.65729">
        <ele>411.1</ele>
        <time>2014-07-31T10:41:28Z</time>
      </trkpt>
      <trkpt lat="46.39494" lon="5.6568">
        <ele>408.7</ele>
        <time>2014-07-31T10:41:31Z</time>
      </trkpt>
      <trkpt lat="46.39499" lon="5.65599">
        <ele>403.89</ele>
        <time>2014-07-31T10:41:36Z</time>
      </trkpt>
      <trkpt lat="46.39492" lon="5.65501">
        <ele>400.53</ele>
        <time>2014-07-31T10:41:42Z</time>
      </trkpt>
      <trkpt lat="46.39484" lon="5.65425">
        <ele>396.68</ele>
        <time>2014-07-31T10:41:47Z</time>
      </trkpt>
      <trkpt lat="46.39476" lon="5.6535">
        <ele>393.32</ele>
        <time>2014-07-31T10:41:52Z</time>
      </trkpt>
      <trkpt lat="46.39467" lon="5.65275">
        <ele>389.95</ele>
        <time>2014-07-31T10:41:57Z</time>
      </trkpt>
      <trkpt lat="46.39455" lon="5.652">
        <ele>387.07</ele>
        <time>2014-07-31T10:42:02Z</time>
      </trkpt>
      <trkpt lat="46.39436" lon="5.65144">
        <ele>383.22</ele>
        <time>2014-07-31T10:42:06Z</time>
      </trkpt>
      <trkpt lat="46.39406" lon="5.65083">
        <ele>379.86</ele>
        <time>2014-07-31T10:42:11Z</time>
      </trkpt>
      <trkpt lat="46.39371" lon="5.65013">
        <ele>376.97</ele>
        <time>2014-07-31T10:42:17Z</time>
      </trkpt>
      <trkpt lat="46.39323" lon="5.64914">
        <ele>376.01</ele>
        <time>2014-07-31T10:42:28Z</time>
      </trkpt>
      <trkpt lat="46.39275" lon="5.64819">
        <ele>375.53</ele>
        <time>2014-07-31T10:42:42Z</time>
      </trkpt>
      <trkpt lat="46.39257" lon="5.64786">
        <ele>375.05</ele>
        <time>2014-07-31T10:42:48Z</time>
      </trkpt>
      <trkpt lat="46.39226" lon="5.64732">
        <ele>374.57</ele>
        <time>2014-07-31T10:43:02Z</time>
      </trkpt>
      <trkpt lat="46.39225" lon="5.64732">
        <ele>374.09</ele>
        <time>2014-07-31T10:43:16Z</time>
      </trkpt>
      <trkpt lat="46.39225" lon="5.64732">
        <ele>374.09</ele>
        <time>2014-07-31T10:43:26Z</time>
      </trkpt>
      <trkpt lat="46.39204" lon="5.64726">
        <ele>373.61</ele>
        <time>2014-07-31T10:43:35Z</time>
      </trkpt>
      <trkpt lat="46.39196" lon="5.64724">
        <ele>373.61</ele>
        <time>2014-07-31T10:43:37Z</time>
      </trkpt>
      <trkpt lat="46.39184" lon="5.64722">
        <ele>373.13</ele>
        <time>2014-07-31T10:43:40Z</time>
      </trkpt>
      <trkpt lat="46.39162" lon="5.64717">
        <ele>372.65</ele>
        <time>2014-07-31T10:43:45Z</time>
      </trkpt>
      <trkpt lat="46.39132" lon="5.64713">
        <ele>372.17</ele>
        <time>2014-07-31T10:43:51Z</time>
      </trkpt>
      <trkpt lat="46.39044" lon="5.64706">
        <ele>370.73</ele>
        <time>2014-07-31T10:44:05Z</time>
      </trkpt>
      <trkpt lat="46.38942" lon="5.64723">
        <ele>368.32</ele>
        <time>2014-07-31T10:44:20Z</time>
      </trkpt>
      <trkpt lat="46.38887" lon="5.64731">
        <ele>367.84</ele>
        <time>2014-07-31T10:44:29Z</time>
      </trkpt>
      <trkpt lat="46.38863" lon="5.64779">
        <ele>366.88</ele>
        <time>2014-07-31T10:44:40Z</time>
      </trkpt>
      <trkpt lat="46.3886" lon="5.64782">
        <ele>367.36</ele>
        <time>2014-07-31T10:44:41Z</time>
      </trkpt>
      <trkpt lat="46.38832" lon="5.64831">
        <ele>364.48</ele>
        <time>2014-07-31T10:44:49Z</time>
      </trkpt>
      <trkpt lat="46.38798" lon="5.64866">
        <ele>360.63</ele>
        <time>2014-07-31T10:44:54Z</time>
      </trkpt>
      <trkpt lat="46.38761" lon="5.64904">
        <ele>357.27</ele>
        <time>2014-07-31T10:44:59Z</time>
      </trkpt>
      <trkpt lat="46.38752" lon="5.64943">
        <ele>355.34</ele>
        <time>2014-07-31T10:45:02Z</time>
      </trkpt>
      <trkpt lat="46.38749" lon="5.64998">
        <ele>352.94</ele>
        <time>2014-07-31T10:45:06Z</time>
      </trkpt>
      <trkpt lat="46.38774" lon="5.65047">
        <ele>350.06</ele>
        <time>2014-07-31T10:45:11Z</time>
      </trkpt>
      <trkpt lat="46.38784" lon="5.65049">
        <ele>349.58</ele>
        <time>2014-07-31T10:45:12Z</time>
      </trkpt>
      <trkpt lat="46.38831" lon="5.65066">
        <ele>347.17</ele>
        <time>2014-07-31T10:45:17Z</time>
      </trkpt>
      <trkpt lat="46.38863" lon="5.65084">
        <ele>346.21</ele>
        <time>2014-07-31T10:45:21Z</time>
      </trkpt>
      <trkpt lat="46.3889" lon="5.65122">
        <ele>345.73</ele>
        <time>2014-07-31T10:45:26Z</time>
      </trkpt>
      <trkpt lat="46.38938" lon="5.65216">
        <ele>346.21</ele>
        <time>2014-07-31T10:45:39Z</time>
      </trkpt>
      <trkpt lat="46.38955" lon="5.65241">
        <ele>346.69</ele>
        <time>2014-07-31T10:45:44Z</time>
      </trkpt>
      <trkpt lat="46.38961" lon="5.65269">
        <ele>347.65</ele>
        <time>2014-07-31T10:45:49Z</time>
      </trkpt>
      <trkpt lat="46.38936" lon="5.65314">
        <ele>348.13</ele>
        <time>2014-07-31T10:46:00Z</time>
      </trkpt>
      <trkpt lat="46.38899" lon="5.65358">
        <ele>348.13</ele>
        <time>2014-07-31T10:46:14Z</time>
      </trkpt>
      <trkpt lat="46.38892" lon="5.65367">
        <ele>348.13</ele>
        <time>2014-07-31T10:46:25Z</time>
      </trkpt>
      <trkpt lat="46.38893" lon="5.65371">
        <ele>348.62</ele>
        <time>2014-07-31T10:46:40Z</time>
      </trkpt>
      <trkpt lat="46.38896" lon="5.65376">
        <ele>348.62</ele>
        <time>2014-07-31T10:46:45Z</time>
      </trkpt>
      <trkpt lat="46.38898" lon="5.6538">
        <ele>348.62</ele>
        <time>2014-07-31T10:46:48Z</time>
      </trkpt>
      <trkpt lat="46.38908" lon="5.65382">
        <ele>347.17</ele>
        <time>2014-07-31T10:47:02Z</time>
      </trkpt>
      <trkpt lat="46.38876" lon="5.65389">
        <ele>350.54</ele>
        <time>2014-07-31T11:26:42Z</time>
      </trkpt>
      <trkpt lat="46.38879" lon="5.6539">
        <ele>350.06</ele>
        <time>2014-07-31T11:26:43Z</time>
      </trkpt>
      <trkpt lat="46.38893" lon="5.6539">
        <ele>353.42</ele>
        <time>2014-07-31T11:26:57Z</time>
      </trkpt>
      <trkpt lat="46.38897" lon="5.6539">
        <ele>354.86</ele>
        <time>2014-07-31T11:27:01Z</time>
      </trkpt>
      <trkpt lat="46.389" lon="5.65391">
        <ele>358.23</ele>
        <time>2014-07-31T11:27:10Z</time>
      </trkpt>
      <trkpt lat="46.38902" lon="5.65398">
        <ele>360.15</ele>
        <time>2014-07-31T11:27:22Z</time>
      </trkpt>
      <trkpt lat="46.38905" lon="5.65408">
        <ele>360.63</ele>
        <time>2014-07-31T11:27:28Z</time>
      </trkpt>
      <trkpt lat="46.38907" lon="5.65415">
        <ele>360.63</ele>
        <time>2014-07-31T11:27:31Z</time>
      </trkpt>
      <trkpt lat="46.38912" lon="5.65426">
        <ele>361.11</ele>
        <time>2014-07-31T11:27:38Z</time>
      </trkpt>
      <trkpt lat="46.38922" lon="5.65471">
        <ele>363.04</ele>
        <time>2014-07-31T11:27:56Z</time>
      </trkpt>
      <trkpt lat="46.38926" lon="5.6551">
        <ele>364.48</ele>
        <time>2014-07-31T11:28:12Z</time>
      </trkpt>
      <trkpt lat="46.38934" lon="5.65549">
        <ele>365.44</ele>
        <time>2014-07-31T11:28:28Z</time>
      </trkpt>
      <trkpt lat="46.38939" lon="5.65578">
        <ele>367.84</ele>
        <time>2014-07-31T11:28:42Z</time>
      </trkpt>
      <trkpt lat="46.38949" lon="5.65609">
        <ele>369.28</ele>
        <time>2014-07-31T11:28:57Z</time>
      </trkpt>
      <trkpt lat="46.38953" lon="5.65624">
        <ele>370.73</ele>
        <time>2014-07-31T11:29:04Z</time>
      </trkpt>
      <trkpt lat="46.38958" lon="5.65648">
        <ele>372.17</ele>
        <time>2014-07-31T11:29:15Z</time>
      </trkpt>
      <trkpt lat="46.38959" lon="5.65651">
        <ele>372.17</ele>
        <time>2014-07-31T11:29:16Z</time>
      </trkpt>
      <trkpt lat="46.38965" lon="5.65666">
        <ele>373.13</ele>
        <time>2014-07-31T11:29:23Z</time>
      </trkpt>
      <trkpt lat="46.38968" lon="5.65677">
        <ele>374.09</ele>
        <time>2014-07-31T11:29:28Z</time>
      </trkpt>
      <trkpt lat="46.38976" lon="5.65712">
        <ele>375.53</ele>
        <time>2014-07-31T11:29:42Z</time>
      </trkpt>
      <trkpt lat="46.3897" lon="5.65754">
        <ele>376.49</ele>
        <time>2014-07-31T11:29:57Z</time>
      </trkpt>
      <trkpt lat="46.38961" lon="5.65788">
        <ele>378.9</ele>
        <time>2014-07-31T11:30:11Z</time>
      </trkpt>
      <trkpt lat="46.38958" lon="5.65827">
        <ele>380.82</ele>
        <time>2014-07-31T11:30:27Z</time>
      </trkpt>
      <trkpt lat="46.38964" lon="5.65867">
        <ele>383.22</ele>
        <time>2014-07-31T11:30:43Z</time>
      </trkpt>
      <trkpt lat="46.38975" lon="5.6591">
        <ele>383.7</ele>
        <time>2014-07-31T11:30:59Z</time>
      </trkpt>
      <trkpt lat="46.3898" lon="5.65963">
        <ele>385.15</ele>
        <time>2014-07-31T11:31:17Z</time>
      </trkpt>
      <trkpt lat="46.38978" lon="5.66005">
        <ele>386.11</ele>
        <time>2014-07-31T11:31:31Z</time>
      </trkpt>
      <trkpt lat="46.38972" lon="5.66054">
        <ele>386.11</ele>
        <time>2014-07-31T11:31:46Z</time>
      </trkpt>
      <trkpt lat="46.38968" lon="5.66092">
        <ele>386.59</ele>
        <time>2014-07-31T11:31:59Z</time>
      </trkpt>
      <trkpt lat="46.38967" lon="5.66105">
        <ele>387.07</ele>
        <time>2014-07-31T11:32:04Z</time>
      </trkpt>
      <trkpt lat="46.38967" lon="5.66131">
        <ele>388.03</ele>
        <time>2014-07-31T11:32:14Z</time>
      </trkpt>
      <trkpt lat="46.3896" lon="5.66173">
        <ele>389.95</ele>
        <time>2014-07-31T11:32:30Z</time>
      </trkpt>
      <trkpt lat="46.38942" lon="5.66192">
        <ele>392.36</ele>
        <time>2014-07-31T11:32:45Z</time>
      </trkpt>
      <trkpt lat="46.38921" lon="5.66206">
        <ele>394.28</ele>
        <time>2014-07-31T11:32:59Z</time>
      </trkpt>
      <trkpt lat="46.38898" lon="5.66237">
        <ele>396.68</ele>
        <time>2014-07-31T11:33:18Z</time>
      </trkpt>
      <trkpt lat="46.38884" lon="5.66267">
        <ele>399.08</ele>
        <time>2014-07-31T11:33:33Z</time>
      </trkpt>
      <trkpt lat="46.38867" lon="5.66282">
        <ele>400.05</ele>
        <time>2014-07-31T11:33:45Z</time>
      </trkpt>
      <trkpt lat="46.38851" lon="5.66292">
        <ele>401.49</ele>
        <time>2014-07-31T11:33:57Z</time>
      </trkpt>
      <trkpt lat="46.38849" lon="5.66298">
        <ele>401.97</ele>
        <time>2014-07-31T11:34:08Z</time>
      </trkpt>
      <trkpt lat="46.3885" lon="5.66298">
        <ele>401.49</ele>
        <time>2014-07-31T11:34:24Z</time>
      </trkpt>
      <trkpt lat="46.38846" lon="5.66299">
        <ele>401.49</ele>
        <time>2014-07-31T11:34:37Z</time>
      </trkpt>
      <trkpt lat="46.38837" lon="5.663">
        <ele>401.97</ele>
        <time>2014-07-31T11:34:43Z</time>
      </trkpt>
      <trkpt lat="46.38827" lon="5.66303">
        <ele>401.49</ele>
        <time>2014-07-31T11:34:57Z</time>
      </trkpt>
      <trkpt lat="46.38825" lon="5.66303">
        <ele>401.97</ele>
        <time>2014-07-31T11:35:08Z</time>
      </trkpt>
      <trkpt lat="46.38825" lon="5.66303">
        <ele>401.49</ele>
        <time>2014-07-31T11:35:32Z</time>
      </trkpt>
      <trkpt lat="46.38825" lon="5.66303">
        <ele>401.49</ele>
        <time>2014-07-31T11:35:50Z</time>
      </trkpt>
      <trkpt lat="46.38819" lon="5.66308">
        <ele>401.49</ele>
        <time>2014-07-31T11:35:55Z</time>
      </trkpt>
      <trkpt lat="46.38797" lon="5.66343">
        <ele>403.41</ele>
        <time>2014-07-31T11:36:10Z</time>
      </trkpt>
      <trkpt lat="46.38782" lon="5.66359">
        <ele>404.85</ele>
        <time>2014-07-31T11:36:20Z</time>
      </trkpt>
      <trkpt lat="46.38768" lon="5.66373">
        <ele>406.29</ele>
        <time>2014-07-31T11:36:29Z</time>
      </trkpt>
      <trkpt lat="46.38763" lon="5.66381">
        <ele>407.26</ele>
        <time>2014-07-31T11:36:34Z</time>
      </trkpt>
      <trkpt lat="46.38752" lon="5.66389">
        <ele>407.26</ele>
        <time>2014-07-31T11:36:41Z</time>
      </trkpt>
      <trkpt lat="46.38749" lon="5.66392">
        <ele>406.77</ele>
        <time>2014-07-31T11:36:43Z</time>
      </trkpt>
      <trkpt lat="46.38773" lon="5.66379">
        <ele>407.26</ele>
        <time>2014-07-31T11:36:53Z</time>
      </trkpt>
      <trkpt lat="46.3878" lon="5.66372">
        <ele>408.22</ele>
        <time>2014-07-31T11:37:03Z</time>
      </trkpt>
      <trkpt lat="46.3878" lon="5.66372">
        <ele>407.74</ele>
        <time>2014-07-31T11:37:24Z</time>
      </trkpt>
      <trkpt lat="46.3878" lon="5.66377">
        <ele>407.74</ele>
        <time>2014-07-31T11:37:32Z</time>
      </trkpt>
      <trkpt lat="46.38768" lon="5.66384">
        <ele>407.26</ele>
        <time>2014-07-31T11:37:39Z</time>
      </trkpt>
      <trkpt lat="46.38761" lon="5.66386">
        <ele>407.26</ele>
        <time>2014-07-31T11:37:48Z</time>
      </trkpt>
      <trkpt lat="46.38755" lon="5.66387">
        <ele>407.26</ele>
        <time>2014-07-31T11:37:51Z</time>
      </trkpt>
      <trkpt lat="46.38716" lon="5.66406">
        <ele>405.81</ele>
        <time>2014-07-31T11:38:05Z</time>
      </trkpt>
      <trkpt lat="46.38703" lon="5.66416">
        <ele>404.85</ele>
        <time>2014-07-31T11:38:08Z</time>
      </trkpt>
      <trkpt lat="46.38661" lon="5.66444">
        <ele>403.89</ele>
        <time>2014-07-31T11:38:16Z</time>
      </trkpt>
      <trkpt lat="46.38636" lon="5.66464">
        <ele>405.33</ele>
        <time>2014-07-31T11:38:25Z</time>
      </trkpt>
      <trkpt lat="46.38618" lon="5.66477">
        <ele>407.26</ele>
        <time>2014-07-31T11:38:35Z</time>
      </trkpt>
      <trkpt lat="46.38597" lon="5.66486">
        <ele>409.18</ele>
        <time>2014-07-31T11:38:47Z</time>
      </trkpt>
      <trkpt lat="46.38577" lon="5.6649">
        <ele>411.58</ele>
        <time>2014-07-31T11:38:59Z</time>
      </trkpt>
      <trkpt lat="46.38554" lon="5.66497">
        <ele>413.98</ele>
        <time>2014-07-31T11:39:14Z</time>
      </trkpt>
      <trkpt lat="46.3853" lon="5.66507">
        <ele>416.39</ele>
        <time>2014-07-31T11:39:29Z</time>
      </trkpt>
      <trkpt lat="46.38511" lon="5.66517">
        <ele>418.31</ele>
        <time>2014-07-31T11:39:42Z</time>
      </trkpt>
      <trkpt lat="46.38488" lon="5.66527">
        <ele>419.75</ele>
        <time>2014-07-31T11:39:55Z</time>
      </trkpt>
      <trkpt lat="46.38465" lon="5.66538">
        <ele>421.68</ele>
        <time>2014-07-31T11:40:10Z</time>
      </trkpt>
      <trkpt lat="46.38445" lon="5.66546">
        <ele>423.6</ele>
        <time>2014-07-31T11:40:22Z</time>
      </trkpt>
      <trkpt lat="46.38439" lon="5.66546">
        <ele>424.08</ele>
        <time>2014-07-31T11:40:25Z</time>
      </trkpt>
      <trkpt lat="46.3842" lon="5.66554">
        <ele>425.04</ele>
        <time>2014-07-31T11:40:37Z</time>
      </trkpt>
      <trkpt lat="46.38393" lon="5.66566">
        <ele>427.44</ele>
        <time>2014-07-31T11:40:53Z</time>
      </trkpt>
      <trkpt lat="46.38368" lon="5.66576">
        <ele>428.89</ele>
        <time>2014-07-31T11:41:08Z</time>
      </trkpt>
      <trkpt lat="46.38358" lon="5.66583">
        <ele>429.85</ele>
        <time>2014-07-31T11:41:14Z</time>
      </trkpt>
      <trkpt lat="46.38335" lon="5.66599">
        <ele>431.77</ele>
        <time>2014-07-31T11:41:29Z</time>
      </trkpt>
      <trkpt lat="46.38315" lon="5.66611">
        <ele>433.21</ele>
        <time>2014-07-31T11:41:41Z</time>
      </trkpt>
      <trkpt lat="46.38293" lon="5.66625">
        <ele>435.13</ele>
        <time>2014-07-31T11:41:54Z</time>
      </trkpt>
      <trkpt lat="46.38271" lon="5.66636">
        <ele>437.06</ele>
        <time>2014-07-31T11:42:09Z</time>
      </trkpt>
      <trkpt lat="46.3825" lon="5.66655">
        <ele>438.98</ele>
        <time>2014-07-31T11:42:23Z</time>
      </trkpt>
      <trkpt lat="46.38246" lon="5.66664">
        <ele>439.46</ele>
        <time>2014-07-31T11:42:27Z</time>
      </trkpt>
      <trkpt lat="46.38233" lon="5.66688">
        <ele>440.42</ele>
        <time>2014-07-31T11:42:39Z</time>
      </trkpt>
      <trkpt lat="46.38226" lon="5.66702">
        <ele>441.86</ele>
        <time>2014-07-31T11:42:47Z</time>
      </trkpt>
      <trkpt lat="46.38216" lon="5.6673">
        <ele>443.79</ele>
        <time>2014-07-31T11:43:00Z</time>
      </trkpt>
      <trkpt lat="46.38218" lon="5.66765">
        <ele>445.71</ele>
        <time>2014-07-31T11:43:15Z</time>
      </trkpt>
      <trkpt lat="46.38236" lon="5.6679">
        <ele>448.11</ele>
        <time>2014-07-31T11:43:31Z</time>
      </trkpt>
      <trkpt lat="46.38256" lon="5.66803">
        <ele>449.55</ele>
        <time>2014-07-31T11:43:45Z</time>
      </trkpt>
      <trkpt lat="46.38281" lon="5.66822">
        <ele>451</ele>
        <time>2014-07-31T11:43:59Z</time>
      </trkpt>
      <trkpt lat="46.38301" lon="5.66838">
        <ele>452.44</ele>
        <time>2014-07-31T11:44:10Z</time>
      </trkpt>
      <trkpt lat="46.38316" lon="5.66871">
        <ele>454.36</ele>
        <time>2014-07-31T11:44:25Z</time>
      </trkpt>
      <trkpt lat="46.38305" lon="5.66912">
        <ele>456.28</ele>
        <time>2014-07-31T11:44:43Z</time>
      </trkpt>
      <trkpt lat="46.38288" lon="5.66941">
        <ele>457.72</ele>
        <time>2014-07-31T11:44:56Z</time>
      </trkpt>
      <trkpt lat="46.38278" lon="5.66982">
        <ele>458.21</ele>
        <time>2014-07-31T11:45:09Z</time>
      </trkpt>
      <trkpt lat="46.3827" lon="5.6703">
        <ele>459.65</ele>
        <time>2014-07-31T11:45:24Z</time>
      </trkpt>
      <trkpt lat="46.38277" lon="5.67072">
        <ele>461.09</ele>
        <time>2014-07-31T11:45:38Z</time>
      </trkpt>
      <trkpt lat="46.38297" lon="5.67126">
        <ele>461.57</ele>
        <time>2014-07-31T11:45:53Z</time>
      </trkpt>
      <trkpt lat="46.38303" lon="5.67203">
        <ele>462.05</ele>
        <time>2014-07-31T11:46:11Z</time>
      </trkpt>
      <trkpt lat="46.38309" lon="5.67249">
        <ele>463.97</ele>
        <time>2014-07-31T11:46:24Z</time>
      </trkpt>
      <trkpt lat="46.38311" lon="5.67254">
        <ele>463.97</ele>
        <time>2014-07-31T11:46:26Z</time>
      </trkpt>
      <trkpt lat="46.38326" lon="5.67288">
        <ele>466.38</ele>
        <time>2014-07-31T11:46:40Z</time>
      </trkpt>
      <trkpt lat="46.38329" lon="5.67295">
        <ele>466.86</ele>
        <time>2014-07-31T11:46:43Z</time>
      </trkpt>
      <trkpt lat="46.38334" lon="5.67304">
        <ele>467.34</ele>
        <time>2014-07-31T11:46:48Z</time>
      </trkpt>
      <trkpt lat="46.38344" lon="5.67328">
        <ele>469.74</ele>
        <time>2014-07-31T11:47:00Z</time>
      </trkpt>
      <trkpt lat="46.38362" lon="5.67353">
        <ele>472.14</ele>
        <time>2014-07-31T11:47:15Z</time>
      </trkpt>
      <trkpt lat="46.38373" lon="5.67372">
        <ele>474.07</ele>
        <time>2014-07-31T11:47:27Z</time>
      </trkpt>
      <trkpt lat="46.38374" lon="5.67374">
        <ele>474.07</ele>
        <time>2014-07-31T11:47:28Z</time>
      </trkpt>
      <trkpt lat="46.38392" lon="5.67395">
        <ele>476.47</ele>
        <time>2014-07-31T11:47:42Z</time>
      </trkpt>
      <trkpt lat="46.38397" lon="5.67399">
        <ele>476.95</ele>
        <time>2014-07-31T11:47:46Z</time>
      </trkpt>
      <trkpt lat="46.38406" lon="5.67407">
        <ele>478.39</ele>
        <time>2014-07-31T11:47:52Z</time>
      </trkpt>
      <trkpt lat="46.38437" lon="5.67432">
        <ele>481.28</ele>
        <time>2014-07-31T11:48:11Z</time>
      </trkpt>
      <trkpt lat="46.38448" lon="5.67459">
        <ele>482.72</ele>
        <time>2014-07-31T11:48:24Z</time>
      </trkpt>
      <trkpt lat="46.38461" lon="5.67491">
        <ele>485.6</ele>
        <time>2014-07-31T11:48:39Z</time>
      </trkpt>
      <trkpt lat="46.3847" lon="5.67512">
        <ele>487.05</ele>
        <time>2014-07-31T11:48:51Z</time>
      </trkpt>
      <trkpt lat="46.38476" lon="5.67527">
        <ele>488.49</ele>
        <time>2014-07-31T11:48:58Z</time>
      </trkpt>
      <trkpt lat="46.38478" lon="5.67533">
        <ele>488.97</ele>
        <time>2014-07-31T11:49:01Z</time>
      </trkpt>
      <trkpt lat="46.38478" lon="5.67537">
        <ele>489.45</ele>
        <time>2014-07-31T11:49:03Z</time>
      </trkpt>
      <trkpt lat="46.38477" lon="5.67542">
        <ele>489.45</ele>
        <time>2014-07-31T11:49:06Z</time>
      </trkpt>
      <trkpt lat="46.3848" lon="5.6759">
        <ele>490.89</ele>
        <time>2014-07-31T11:49:22Z</time>
      </trkpt>
      <trkpt lat="46.38482" lon="5.67619">
        <ele>492.81</ele>
        <time>2014-07-31T11:49:34Z</time>
      </trkpt>
      <trkpt lat="46.38482" lon="5.67619">
        <ele>492.81</ele>
        <time>2014-07-31T11:49:35Z</time>
      </trkpt>
      <trkpt lat="46.38509" lon="5.67618">
        <ele>494.74</ele>
        <time>2014-07-31T11:49:49Z</time>
      </trkpt>
      <trkpt lat="46.38526" lon="5.67602">
        <ele>496.66</ele>
        <time>2014-07-31T11:50:00Z</time>
      </trkpt>
      <trkpt lat="46.38531" lon="5.67598">
        <ele>497.14</ele>
        <time>2014-07-31T11:50:04Z</time>
      </trkpt>
      <trkpt lat="46.38558" lon="5.67589">
        <ele>498.58</ele>
        <time>2014-07-31T11:50:20Z</time>
      </trkpt>
      <trkpt lat="46.38582" lon="5.67583">
        <ele>500.5</ele>
        <time>2014-07-31T11:50:34Z</time>
      </trkpt>
      <trkpt lat="46.38605" lon="5.67578">
        <ele>503.39</ele>
        <time>2014-07-31T11:50:49Z</time>
      </trkpt>
      <trkpt lat="46.38622" lon="5.67576">
        <ele>503.87</ele>
        <time>2014-07-31T11:50:57Z</time>
      </trkpt>
      <trkpt lat="46.38631" lon="5.67575">
        <ele>504.83</ele>
        <time>2014-07-31T11:51:03Z</time>
      </trkpt>
      <trkpt lat="46.38651" lon="5.67571">
        <ele>507.71</ele>
        <time>2014-07-31T11:51:17Z</time>
      </trkpt>
      <trkpt lat="46.38671" lon="5.67565">
        <ele>509.16</ele>
        <time>2014-07-31T11:51:28Z</time>
      </trkpt>
      <trkpt lat="46.38698" lon="5.67556">
        <ele>511.56</ele>
        <time>2014-07-31T11:51:45Z</time>
      </trkpt>
      <trkpt lat="46.38702" lon="5.67557">
        <ele>512.04</ele>
        <time>2014-07-31T11:51:49Z</time>
      </trkpt>
      <trkpt lat="46.38715" lon="5.6756">
        <ele>513</ele>
        <time>2014-07-31T11:51:57Z</time>
      </trkpt>
      <trkpt lat="46.38737" lon="5.67557">
        <ele>515.4</ele>
        <time>2014-07-31T11:52:10Z</time>
      </trkpt>
      <trkpt lat="46.38756" lon="5.67558">
        <ele>516.85</ele>
        <time>2014-07-31T11:52:24Z</time>
      </trkpt>
      <trkpt lat="46.38756" lon="5.67559">
        <ele>516.85</ele>
        <time>2014-07-31T11:52:43Z</time>
      </trkpt>
      <trkpt lat="46.38755" lon="5.67559">
        <ele>517.33</ele>
        <time>2014-07-31T11:53:03Z</time>
      </trkpt>
      <trkpt lat="46.38759" lon="5.67559">
        <ele>517.81</ele>
        <time>2014-07-31T11:53:17Z</time>
      </trkpt>
      <trkpt lat="46.38777" lon="5.67563">
        <ele>519.73</ele>
        <time>2014-07-31T11:53:28Z</time>
      </trkpt>
      <trkpt lat="46.3879" lon="5.67575">
        <ele>521.65</ele>
        <time>2014-07-31T11:53:40Z</time>
      </trkpt>
      <trkpt lat="46.38795" lon="5.6758">
        <ele>522.13</ele>
        <time>2014-07-31T11:53:43Z</time>
      </trkpt>
      <trkpt lat="46.38821" lon="5.67601">
        <ele>524.54</ele>
        <time>2014-07-31T11:53:59Z</time>
      </trkpt>
      <trkpt lat="46.38823" lon="5.67601">
        <ele>524.54</ele>
        <time>2014-07-31T11:54:01Z</time>
      </trkpt>
      <trkpt lat="46.3885" lon="5.67584">
        <ele>525.98</ele>
        <time>2014-07-31T11:54:15Z</time>
      </trkpt>
      <trkpt lat="46.38862" lon="5.67567">
        <ele>527.42</ele>
        <time>2014-07-31T11:54:28Z</time>
      </trkpt>
      <trkpt lat="46.38878" lon="5.67553">
        <ele>528.86</ele>
        <time>2014-07-31T11:54:40Z</time>
      </trkpt>
      <trkpt lat="46.38883" lon="5.67547">
        <ele>529.34</ele>
        <time>2014-07-31T11:54:45Z</time>
      </trkpt>
      <trkpt lat="46.38885" lon="5.67546">
        <ele>529.82</ele>
        <time>2014-07-31T11:54:47Z</time>
      </trkpt>
      <trkpt lat="46.38907" lon="5.67554">
        <ele>531.75</ele>
        <time>2014-07-31T11:55:00Z</time>
      </trkpt>
      <trkpt lat="46.38918" lon="5.67568">
        <ele>533.19</ele>
        <time>2014-07-31T11:55:08Z</time>
      </trkpt>
      <trkpt lat="46.38928" lon="5.67591">
        <ele>534.63</ele>
        <time>2014-07-31T11:55:21Z</time>
      </trkpt>
      <trkpt lat="46.38936" lon="5.67614">
        <ele>536.55</ele>
        <time>2014-07-31T11:55:32Z</time>
      </trkpt>
      <trkpt lat="46.3894" lon="5.67629">
        <ele>538.48</ele>
        <time>2014-07-31T11:55:40Z</time>
      </trkpt>
      <trkpt lat="46.38942" lon="5.67631">
        <ele>538.48</ele>
        <time>2014-07-31T11:55:42Z</time>
      </trkpt>
      <trkpt lat="46.38953" lon="5.67629">
        <ele>538.48</ele>
        <time>2014-07-31T11:55:55Z</time>
      </trkpt>
      <trkpt lat="46.38954" lon="5.67629">
        <ele>538.48</ele>
        <time>2014-07-31T11:56:31Z</time>
      </trkpt>
      <trkpt lat="46.38958" lon="5.6763">
        <ele>538.48</ele>
        <time>2014-07-31T11:56:38Z</time>
      </trkpt>
      <trkpt lat="46.38969" lon="5.67645">
        <ele>538.96</ele>
        <time>2014-07-31T11:56:49Z</time>
      </trkpt>
      <trkpt lat="46.38996" lon="5.67665">
        <ele>540.4</ele>
        <time>2014-07-31T11:57:03Z</time>
      </trkpt>
      <trkpt lat="46.39026" lon="5.67675">
        <ele>542.32</ele>
        <time>2014-07-31T11:57:19Z</time>
      </trkpt>
      <trkpt lat="46.39057" lon="5.67692">
        <ele>545.2</ele>
        <time>2014-07-31T11:57:36Z</time>
      </trkpt>
      <trkpt lat="46.39081" lon="5.67707">
        <ele>547.61</ele>
        <time>2014-07-31T11:57:50Z</time>
      </trkpt>
      <trkpt lat="46.39109" lon="5.67734">
        <ele>550.01</ele>
        <time>2014-07-31T11:58:07Z</time>
      </trkpt>
      <trkpt lat="46.39143" lon="5.67756">
        <ele>551.93</ele>
        <time>2014-07-31T11:58:25Z</time>
      </trkpt>
      <trkpt lat="46.39177" lon="5.67774">
        <ele>553.86</ele>
        <time>2014-07-31T11:58:43Z</time>
      </trkpt>
      <trkpt lat="46.39208" lon="5.67789">
        <ele>555.78</ele>
        <time>2014-07-31T11:59:00Z</time>
      </trkpt>
      <trkpt lat="46.39243" lon="5.67804">
        <ele>558.66</ele>
        <time>2014-07-31T11:59:19Z</time>
      </trkpt>
      <trkpt lat="46.39272" lon="5.67812">
        <ele>561.07</ele>
        <time>2014-07-31T11:59:35Z</time>
      </trkpt>
      <trkpt lat="46.39299" lon="5.67811">
        <ele>562.51</ele>
        <time>2014-07-31T11:59:49Z</time>
      </trkpt>
      <trkpt lat="46.39331" lon="5.67818">
        <ele>564.43</ele>
        <time>2014-07-31T12:00:06Z</time>
      </trkpt>
      <trkpt lat="46.39353" lon="5.67836">
        <ele>566.83</ele>
        <time>2014-07-31T12:00:20Z</time>
      </trkpt>
      <trkpt lat="46.39371" lon="5.67874">
        <ele>569.24</ele>
        <time>2014-07-31T12:00:37Z</time>
      </trkpt>
      <trkpt lat="46.39389" lon="5.67916">
        <ele>571.64</ele>
        <time>2014-07-31T12:00:56Z</time>
      </trkpt>
      <trkpt lat="46.39405" lon="5.67952">
        <ele>575.01</ele>
        <time>2014-07-31T12:01:12Z</time>
      </trkpt>
      <trkpt lat="46.39432" lon="5.67984">
        <ele>576.45</ele>
        <time>2014-07-31T12:01:29Z</time>
      </trkpt>
      <trkpt lat="46.39465" lon="5.68022">
        <ele>577.41</ele>
        <time>2014-07-31T12:01:44Z</time>
      </trkpt>
      <trkpt lat="46.3951" lon="5.68085">
        <ele>578.85</ele>
        <time>2014-07-31T12:02:05Z</time>
      </trkpt>
      <trkpt lat="46.39552" lon="5.68126">
        <ele>579.81</ele>
        <time>2014-07-31T12:02:23Z</time>
      </trkpt>
      <trkpt lat="46.39583" lon="5.68151">
        <ele>582.22</ele>
        <time>2014-07-31T12:02:41Z</time>
      </trkpt>
      <trkpt lat="46.39605" lon="5.68182">
        <ele>584.14</ele>
        <time>2014-07-31T12:02:58Z</time>
      </trkpt>
      <trkpt lat="46.39621" lon="5.6821">
        <ele>586.54</ele>
        <time>2014-07-31T12:03:12Z</time>
      </trkpt>
      <trkpt lat="46.39633" lon="5.68238">
        <ele>588.95</ele>
        <time>2014-07-31T12:03:27Z</time>
      </trkpt>
      <trkpt lat="46.39648" lon="5.68261">
        <ele>589.91</ele>
        <time>2014-07-31T12:03:41Z</time>
      </trkpt>
      <trkpt lat="46.39665" lon="5.6828">
        <ele>591.83</ele>
        <time>2014-07-31T12:03:55Z</time>
      </trkpt>
      <trkpt lat="46.39692" lon="5.68289">
        <ele>593.27</ele>
        <time>2014-07-31T12:04:10Z</time>
      </trkpt>
      <trkpt lat="46.39715" lon="5.68297">
        <ele>595.19</ele>
        <time>2014-07-31T12:04:25Z</time>
      </trkpt>
      <trkpt lat="46.39745" lon="5.68308">
        <ele>597.12</ele>
        <time>2014-07-31T12:04:43Z</time>
      </trkpt>
      <trkpt lat="46.39776" lon="5.68314">
        <ele>599.04</ele>
        <time>2014-07-31T12:05:00Z</time>
      </trkpt>
      <trkpt lat="46.39806" lon="5.6832">
        <ele>600.48</ele>
        <time>2014-07-31T12:05:17Z</time>
      </trkpt>
      <trkpt lat="46.39824" lon="5.68325">
        <ele>601.44</ele>
        <time>2014-07-31T12:05:28Z</time>
      </trkpt>
      <trkpt lat="46.3985" lon="5.68327">
        <ele>603.36</ele>
        <time>2014-07-31T12:05:42Z</time>
      </trkpt>
      <trkpt lat="46.39858" lon="5.68328">
        <ele>604.33</ele>
        <time>2014-07-31T12:05:46Z</time>
      </trkpt>
      <trkpt lat="46.39887" lon="5.68334">
        <ele>606.73</ele>
        <time>2014-07-31T12:06:02Z</time>
      </trkpt>
      <trkpt lat="46.39914" lon="5.68339">
        <ele>609.13</ele>
        <time>2014-07-31T12:06:18Z</time>
      </trkpt>
      <trkpt lat="46.39941" lon="5.6835">
        <ele>610.57</ele>
        <time>2014-07-31T12:06:35Z</time>
      </trkpt>
      <trkpt lat="46.39942" lon="5.68351">
        <ele>611.06</ele>
        <time>2014-07-31T12:06:36Z</time>
      </trkpt>
      <trkpt lat="46.39945" lon="5.68354">
        <ele>611.54</ele>
        <time>2014-07-31T12:06:50Z</time>
      </trkpt>
      <trkpt lat="46.39944" lon="5.68354">
        <ele>611.06</ele>
        <time>2014-07-31T12:06:55Z</time>
      </trkpt>
      <trkpt lat="46.39948" lon="5.68357">
        <ele>612.5</ele>
        <time>2014-07-31T12:08:48Z</time>
      </trkpt>
      <trkpt lat="46.39948" lon="5.68356">
        <ele>611.54</ele>
        <time>2014-07-31T12:08:49Z</time>
      </trkpt>
      <trkpt lat="46.39957" lon="5.68358">
        <ele>612.5</ele>
        <time>2014-07-31T12:09:02Z</time>
      </trkpt>
      <trkpt lat="46.3997" lon="5.68367">
        <ele>614.42</ele>
        <time>2014-07-31T12:09:16Z</time>
      </trkpt>
      <trkpt lat="46.39987" lon="5.68379">
        <ele>615.86</ele>
        <time>2014-07-31T12:09:29Z</time>
      </trkpt>
      <trkpt lat="46.40009" lon="5.68395">
        <ele>617.78</ele>
        <time>2014-07-31T12:09:45Z</time>
      </trkpt>
      <trkpt lat="46.40035" lon="5.68407">
        <ele>620.19</ele>
        <time>2014-07-31T12:10:00Z</time>
      </trkpt>
      <trkpt lat="46.40057" lon="5.68423">
        <ele>622.59</ele>
        <time>2014-07-31T12:10:15Z</time>
      </trkpt>
      <trkpt lat="46.40074" lon="5.68443">
        <ele>624.51</ele>
        <time>2014-07-31T12:10:29Z</time>
      </trkpt>
      <trkpt lat="46.4008" lon="5.68452">
        <ele>625.47</ele>
        <time>2014-07-31T12:10:34Z</time>
      </trkpt>
      <trkpt lat="46.40089" lon="5.68462">
        <ele>625.47</ele>
        <time>2014-07-31T12:10:40Z</time>
      </trkpt>
      <trkpt lat="46.40094" lon="5.68468">
        <ele>625.96</ele>
        <time>2014-07-31T12:10:44Z</time>
      </trkpt>
      <trkpt lat="46.40107" lon="5.68483">
        <ele>627.4</ele>
        <time>2014-07-31T12:10:54Z</time>
      </trkpt>
      <trkpt lat="46.40131" lon="5.68502">
        <ele>629.32</ele>
        <time>2014-07-31T12:11:11Z</time>
      </trkpt>
      <trkpt lat="46.40148" lon="5.68528">
        <ele>630.76</ele>
        <time>2014-07-31T12:11:25Z</time>
      </trkpt>
      <trkpt lat="46.40153" lon="5.68536">
        <ele>631.24</ele>
        <time>2014-07-31T12:11:29Z</time>
      </trkpt>
      <trkpt lat="46.40167" lon="5.6859">
        <ele>632.2</ele>
        <time>2014-07-31T12:11:48Z</time>
      </trkpt>
      <trkpt lat="46.40192" lon="5.68614">
        <ele>633.17</ele>
        <time>2014-07-31T12:12:03Z</time>
      </trkpt>
      <trkpt lat="46.4023" lon="5.68628">
        <ele>634.13</ele>
        <time>2014-07-31T12:12:21Z</time>
      </trkpt>
      <trkpt lat="46.40261" lon="5.68654">
        <ele>635.57</ele>
        <time>2014-07-31T12:12:37Z</time>
      </trkpt>
      <trkpt lat="46.40287" lon="5.68676">
        <ele>637.97</ele>
        <time>2014-07-31T12:12:52Z</time>
      </trkpt>
      <trkpt lat="46.4031" lon="5.68696">
        <ele>639.41</ele>
        <time>2014-07-31T12:13:06Z</time>
      </trkpt>
      <trkpt lat="46.40339" lon="5.68723">
        <ele>641.34</ele>
        <time>2014-07-31T12:13:23Z</time>
      </trkpt>
      <trkpt lat="46.4037" lon="5.68755">
        <ele>642.3</ele>
        <time>2014-07-31T12:13:40Z</time>
      </trkpt>
      <trkpt lat="46.40399" lon="5.68792">
        <ele>643.74</ele>
        <time>2014-07-31T12:13:57Z</time>
      </trkpt>
      <trkpt lat="46.40423" lon="5.68817">
        <ele>645.18</ele>
        <time>2014-07-31T12:14:11Z</time>
      </trkpt>
      <trkpt lat="46.4046" lon="5.6883">
        <ele>647.59</ele>
        <time>2014-07-31T12:14:29Z</time>
      </trkpt>
      <trkpt lat="46.40494" lon="5.68837">
        <ele>649.03</ele>
        <time>2014-07-31T12:14:43Z</time>
      </trkpt>
      <trkpt lat="46.40531" lon="5.68846">
        <ele>651.43</ele>
        <time>2014-07-31T12:15:00Z</time>
      </trkpt>
      <trkpt lat="46.4056" lon="5.68862">
        <ele>652.87</ele>
        <time>2014-07-31T12:15:14Z</time>
      </trkpt>
      <trkpt lat="46.4058" lon="5.68895">
        <ele>654.8</ele>
        <time>2014-07-31T12:15:28Z</time>
      </trkpt>
      <trkpt lat="46.406" lon="5.68932">
        <ele>656.24</ele>
        <time>2014-07-31T12:15:44Z</time>
      </trkpt>
      <trkpt lat="46.4062" lon="5.6897">
        <ele>658.64</ele>
        <time>2014-07-31T12:16:01Z</time>
      </trkpt>
      <trkpt lat="46.40644" lon="5.69">
        <ele>660.56</ele>
        <time>2014-07-31T12:16:17Z</time>
      </trkpt>
      <trkpt lat="46.40673" lon="5.69007">
        <ele>662.01</ele>
        <time>2014-07-31T12:16:32Z</time>
      </trkpt>
      <trkpt lat="46.40707" lon="5.69006">
        <ele>664.41</ele>
        <time>2014-07-31T12:16:49Z</time>
      </trkpt>
      <trkpt lat="46.40733" lon="5.69017">
        <ele>666.33</ele>
        <time>2014-07-31T12:17:05Z</time>
      </trkpt>
      <trkpt lat="46.40754" lon="5.69023">
        <ele>668.25</ele>
        <time>2014-07-31T12:17:19Z</time>
      </trkpt>
      <trkpt lat="46.40775" lon="5.69018">
        <ele>670.18</ele>
        <time>2014-07-31T12:17:32Z</time>
      </trkpt>
      <trkpt lat="46.40808" lon="5.69012">
        <ele>672.58</ele>
        <time>2014-07-31T12:17:51Z</time>
      </trkpt>
      <trkpt lat="46.40834" lon="5.69031">
        <ele>674.02</ele>
        <time>2014-07-31T12:18:07Z</time>
      </trkpt>
      <trkpt lat="46.40853" lon="5.69056">
        <ele>675.46</ele>
        <time>2014-07-31T12:18:21Z</time>
      </trkpt>
      <trkpt lat="46.40873" lon="5.6909">
        <ele>677.39</ele>
        <time>2014-07-31T12:18:37Z</time>
      </trkpt>
      <trkpt lat="46.40877" lon="5.69122">
        <ele>678.35</ele>
        <time>2014-07-31T12:18:49Z</time>
      </trkpt>
      <trkpt lat="46.4088" lon="5.69163">
        <ele>679.79</ele>
        <time>2014-07-31T12:19:04Z</time>
      </trkpt>
      <trkpt lat="46.40883" lon="5.69202">
        <ele>680.75</ele>
        <time>2014-07-31T12:19:17Z</time>
      </trkpt>
      <trkpt lat="46.40882" lon="5.69216">
        <ele>681.71</ele>
        <time>2014-07-31T12:19:22Z</time>
      </trkpt>
      <trkpt lat="46.40876" lon="5.69239">
        <ele>682.19</ele>
        <time>2014-07-31T12:19:30Z</time>
      </trkpt>
      <trkpt lat="46.40871" lon="5.69255">
        <ele>682.67</ele>
        <time>2014-07-31T12:19:36Z</time>
      </trkpt>
      <trkpt lat="46.40862" lon="5.69298">
        <ele>684.12</ele>
        <time>2014-07-31T12:19:51Z</time>
      </trkpt>
      <trkpt lat="46.4086" lon="5.69313">
        <ele>684.6</ele>
        <time>2014-07-31T12:19:55Z</time>
      </trkpt>
      <trkpt lat="46.40858" lon="5.69346">
        <ele>686.04</ele>
        <time>2014-07-31T12:20:06Z</time>
      </trkpt>
      <trkpt lat="46.4087" lon="5.69388">
        <ele>687</ele>
        <time>2014-07-31T12:20:20Z</time>
      </trkpt>
      <trkpt lat="46.40893" lon="5.69421">
        <ele>688.92</ele>
        <time>2014-07-31T12:20:34Z</time>
      </trkpt>
      <trkpt lat="46.40911" lon="5.69466">
        <ele>690.36</ele>
        <time>2014-07-31T12:20:49Z</time>
      </trkpt>
      <trkpt lat="46.40913" lon="5.69478">
        <ele>690.84</ele>
        <time>2014-07-31T12:20:53Z</time>
      </trkpt>
      <trkpt lat="46.40909" lon="5.69511">
        <ele>692.77</ele>
        <time>2014-07-31T12:21:05Z</time>
      </trkpt>
      <trkpt lat="46.40912" lon="5.69551">
        <ele>693.25</ele>
        <time>2014-07-31T12:21:18Z</time>
      </trkpt>
      <trkpt lat="46.40929" lon="5.69592">
        <ele>695.17</ele>
        <time>2014-07-31T12:21:32Z</time>
      </trkpt>
      <trkpt lat="46.40943" lon="5.69638">
        <ele>697.09</ele>
        <time>2014-07-31T12:21:47Z</time>
      </trkpt>
      <trkpt lat="46.40958" lon="5.69677">
        <ele>699.02</ele>
        <time>2014-07-31T12:22:01Z</time>
      </trkpt>
      <trkpt lat="46.4099" lon="5.69701">
        <ele>700.46</ele>
        <time>2014-07-31T12:22:15Z</time>
      </trkpt>
      <trkpt lat="46.41023" lon="5.69738">
        <ele>702.86</ele>
        <time>2014-07-31T12:22:31Z</time>
      </trkpt>
      <trkpt lat="46.4104" lon="5.69771">
        <ele>704.78</ele>
        <time>2014-07-31T12:22:44Z</time>
      </trkpt>
      <trkpt lat="46.41079" lon="5.69797">
        <ele>706.23</ele>
        <time>2014-07-31T12:22:58Z</time>
      </trkpt>
      <trkpt lat="46.41063" lon="5.69843">
        <ele>708.15</ele>
        <time>2014-07-31T12:23:11Z</time>
      </trkpt>
      <trkpt lat="46.41076" lon="5.69864">
        <ele>709.59</ele>
        <time>2014-07-31T12:23:24Z</time>
      </trkpt>
      <trkpt lat="46.41101" lon="5.69876">
        <ele>711.03</ele>
        <time>2014-07-31T12:23:38Z</time>
      </trkpt>
      <trkpt lat="46.41125" lon="5.69912">
        <ele>713.44</ele>
        <time>2014-07-31T12:23:53Z</time>
      </trkpt>
      <trkpt lat="46.41126" lon="5.69918">
        <ele>713.92</ele>
        <time>2014-07-31T12:23:55Z</time>
      </trkpt>
      <trkpt lat="46.41129" lon="5.69943">
        <ele>714.4</ele>
        <time>2014-07-31T12:24:03Z</time>
      </trkpt>
      <trkpt lat="46.41131" lon="5.69989">
        <ele>716.8</ele>
        <time>2014-07-31T12:24:18Z</time>
      </trkpt>
      <trkpt lat="46.41136" lon="5.70022">
        <ele>716.32</ele>
        <time>2014-07-31T12:24:25Z</time>
      </trkpt>
      <trkpt lat="46.41157" lon="5.70128">
        <ele>715.36</ele>
        <time>2014-07-31T12:24:39Z</time>
      </trkpt>
      <trkpt lat="46.41154" lon="5.70162">
        <ele>715.36</ele>
        <time>2014-07-31T12:24:45Z</time>
      </trkpt>
      <trkpt lat="46.41151" lon="5.70208">
        <ele>715.36</ele>
        <time>2014-07-31T12:24:51Z</time>
      </trkpt>
      <trkpt lat="46.41153" lon="5.70228">
        <ele>714.88</ele>
        <time>2014-07-31T12:24:54Z</time>
      </trkpt>
      <trkpt lat="46.41179" lon="5.70288">
        <ele>714.4</ele>
        <time>2014-07-31T12:25:05Z</time>
      </trkpt>
      <trkpt lat="46.41187" lon="5.70309">
        <ele>713.92</ele>
        <time>2014-07-31T12:25:08Z</time>
      </trkpt>
      <trkpt lat="46.4121" lon="5.70412">
        <ele>714.4</ele>
        <time>2014-07-31T12:25:21Z</time>
      </trkpt>
      <trkpt lat="46.41224" lon="5.70481">
        <ele>717.28</ele>
        <time>2014-07-31T12:25:34Z</time>
      </trkpt>
      <trkpt lat="46.41227" lon="5.7055">
        <ele>716.8</ele>
        <time>2014-07-31T12:25:48Z</time>
      </trkpt>
      <trkpt lat="46.41227" lon="5.70556">
        <ele>716.32</ele>
        <time>2014-07-31T12:25:49Z</time>
      </trkpt>
      <trkpt lat="46.41227" lon="5.70631">
        <ele>716.32</ele>
        <time>2014-07-31T12:26:00Z</time>
      </trkpt>
      <trkpt lat="46.41227" lon="5.70636">
        <ele>716.32</ele>
        <time>2014-07-31T12:26:01Z</time>
      </trkpt>
      <trkpt lat="46.41208" lon="5.70708">
        <ele>715.36</ele>
        <time>2014-07-31T12:26:11Z</time>
      </trkpt>
      <trkpt lat="46.41203" lon="5.70725">
        <ele>714.88</ele>
        <time>2014-07-31T12:26:13Z</time>
      </trkpt>
      <trkpt lat="46.41185" lon="5.70764">
        <ele>714.88</ele>
        <time>2014-07-31T12:26:19Z</time>
      </trkpt>
      <trkpt lat="46.41179" lon="5.70775">
        <ele>714.88</ele>
        <time>2014-07-31T12:26:21Z</time>
      </trkpt>
      <trkpt lat="46.41158" lon="5.70817">
        <ele>716.32</ele>
        <time>2014-07-31T12:26:30Z</time>
      </trkpt>
      <trkpt lat="46.41152" lon="5.70851">
        <ele>716.8</ele>
        <time>2014-07-31T12:26:36Z</time>
      </trkpt>
      <trkpt lat="46.41151" lon="5.7087">
        <ele>716.8</ele>
        <time>2014-07-31T12:26:39Z</time>
      </trkpt>
      <trkpt lat="46.41136" lon="5.70916">
        <ele>717.76</ele>
        <time>2014-07-31T12:26:46Z</time>
      </trkpt>
      <trkpt lat="46.41122" lon="5.70946">
        <ele>718.72</ele>
        <time>2014-07-31T12:26:51Z</time>
      </trkpt>
      <trkpt lat="46.41116" lon="5.70958">
        <ele>719.2</ele>
        <time>2014-07-31T12:26:53Z</time>
      </trkpt>
      <trkpt lat="46.41085" lon="5.7104">
        <ele>719.68</ele>
        <time>2014-07-31T12:27:10Z</time>
      </trkpt>
      <trkpt lat="46.41084" lon="5.71042">
        <ele>719.68</ele>
        <time>2014-07-31T12:27:22Z</time>
      </trkpt>
      <trkpt lat="46.41084" lon="5.71044">
        <ele>719.68</ele>
        <time>2014-07-31T12:27:41Z</time>
      </trkpt>
      <trkpt lat="46.41081" lon="5.71046">
        <ele>719.68</ele>
        <time>2014-07-31T12:27:54Z</time>
      </trkpt>
      <trkpt lat="46.41081" lon="5.71046">
        <ele>719.68</ele>
        <time>2014-07-31T12:28:20Z</time>
      </trkpt>
      <trkpt lat="46.41081" lon="5.71047">
        <ele>719.2</ele>
        <time>2014-07-31T12:28:52Z</time>
      </trkpt>
      <trkpt lat="46.41082" lon="5.71046">
        <ele>719.2</ele>
        <time>2014-07-31T12:29:19Z</time>
      </trkpt>
      <trkpt lat="46.41081" lon="5.71046">
        <ele>719.2</ele>
        <time>2014-07-31T12:29:38Z</time>
      </trkpt>
      <trkpt lat="46.41081" lon="5.71046">
        <ele>719.2</ele>
        <time>2014-07-31T12:29:59Z</time>
      </trkpt>
      <trkpt lat="46.41081" lon="5.71046">
        <ele>719.2</ele>
        <time>2014-07-31T12:30:09Z</time>
      </trkpt>
      <trkpt lat="46.4108" lon="5.71057">
        <ele>719.2</ele>
        <time>2014-07-31T12:30:13Z</time>
      </trkpt>
      <trkpt lat="46.41076" lon="5.7107">
        <ele>719.2</ele>
        <time>2014-07-31T12:30:16Z</time>
      </trkpt>
      <trkpt lat="46.41071" lon="5.7109">
        <ele>717.76</ele>
        <time>2014-07-31T12:30:19Z</time>
      </trkpt>
      <trkpt lat="46.41052" lon="5.71145">
        <ele>714.4</ele>
        <time>2014-07-31T12:30:25Z</time>
      </trkpt>
      <trkpt lat="46.41023" lon="5.71194">
        <ele>711.51</ele>
        <time>2014-07-31T12:30:30Z</time>
      </trkpt>
      <trkpt lat="46.41017" lon="5.71203">
        <ele>710.55</ele>
        <time>2014-07-31T12:30:31Z</time>
      </trkpt>
      <trkpt lat="46.40965" lon="5.71247">
        <ele>707.19</ele>
        <time>2014-07-31T12:30:37Z</time>
      </trkpt>
      <trkpt lat="46.40946" lon="5.71258">
        <ele>705.26</ele>
        <time>2014-07-31T12:30:39Z</time>
      </trkpt>
      <trkpt lat="46.40909" lon="5.71256">
        <ele>702.38</ele>
        <time>2014-07-31T12:30:43Z</time>
      </trkpt>
      <trkpt lat="46.40865" lon="5.71263">
        <ele>698.05</ele>
        <time>2014-07-31T12:30:49Z</time>
      </trkpt>
      <trkpt lat="46.40875" lon="5.71307">
        <ele>696.61</ele>
        <time>2014-07-31T12:30:54Z</time>
      </trkpt>
      <trkpt lat="46.40886" lon="5.71313">
        <ele>694.69</ele>
        <time>2014-07-31T12:30:56Z</time>
      </trkpt>
      <trkpt lat="46.40949" lon="5.71313">
        <ele>691.33</ele>
        <time>2014-07-31T12:31:03Z</time>
      </trkpt>
      <trkpt lat="46.40968" lon="5.71317">
        <ele>690.36</ele>
        <time>2014-07-31T12:31:05Z</time>
      </trkpt>
      <trkpt lat="46.41027" lon="5.71335">
        <ele>687.48</ele>
        <time>2014-07-31T12:31:12Z</time>
      </trkpt>
      <trkpt lat="46.41097" lon="5.71366">
        <ele>683.63</ele>
        <time>2014-07-31T12:31:22Z</time>
      </trkpt>
      <trkpt lat="46.41136" lon="5.71377">
        <ele>680.27</ele>
        <time>2014-07-31T12:31:27Z</time>
      </trkpt>
      <trkpt lat="46.41163" lon="5.71376">
        <ele>678.83</ele>
        <time>2014-07-31T12:31:30Z</time>
      </trkpt>
      <trkpt lat="46.41173" lon="5.71377">
        <ele>677.87</ele>
        <time>2014-07-31T12:31:31Z</time>
      </trkpt>
      <trkpt lat="46.41211" lon="5.71401">
        <ele>674.98</ele>
        <time>2014-07-31T12:31:35Z</time>
      </trkpt>
      <trkpt lat="46.4122" lon="5.71412">
        <ele>674.5</ele>
        <time>2014-07-31T12:31:36Z</time>
      </trkpt>
      <trkpt lat="46.41225" lon="5.71422">
        <ele>674.02</ele>
        <time>2014-07-31T12:31:37Z</time>
      </trkpt>
      <trkpt lat="46.41255" lon="5.71533">
        <ele>672.58</ele>
        <time>2014-07-31T12:31:46Z</time>
      </trkpt>
      <trkpt lat="46.41265" lon="5.71592">
        <ele>672.1</ele>
        <time>2014-07-31T12:31:52Z</time>
      </trkpt>
      <trkpt lat="46.41265" lon="5.71604">
        <ele>671.62</ele>
        <time>2014-07-31T12:31:53Z</time>
      </trkpt>
      <trkpt lat="46.41261" lon="5.71658">
        <ele>669.22</ele>
        <time>2014-07-31T12:31:58Z</time>
      </trkpt>
      <trkpt lat="46.41272" lon="5.71714">
        <ele>668.25</ele>
        <time>2014-07-31T12:32:03Z</time>
      </trkpt>
      <trkpt lat="46.4128" lon="5.71733">
        <ele>667.77</ele>
        <time>2014-07-31T12:32:05Z</time>
      </trkpt>
      <trkpt lat="46.41335" lon="5.71782">
        <ele>668.25</ele>
        <time>2014-07-31T12:32:13Z</time>
      </trkpt>
      <trkpt lat="46.41361" lon="5.71815">
        <ele>668.25</ele>
        <time>2014-07-31T12:32:18Z</time>
      </trkpt>
      <trkpt lat="46.41369" lon="5.71831">
        <ele>667.77</ele>
        <time>2014-07-31T12:32:20Z</time>
      </trkpt>
      <trkpt lat="46.4138" lon="5.71866">
        <ele>667.77</ele>
        <time>2014-07-31T12:32:24Z</time>
      </trkpt>
      <trkpt lat="46.41364" lon="5.71934">
        <ele>668.25</ele>
        <time>2014-07-31T12:32:31Z</time>
      </trkpt>
      <trkpt lat="46.41323" lon="5.72074">
        <ele>666.81</ele>
        <time>2014-07-31T12:32:48Z</time>
      </trkpt>
      <trkpt lat="46.41306" lon="5.7218">
        <ele>663.45</ele>
        <time>2014-07-31T12:32:58Z</time>
      </trkpt>
      <trkpt lat="46.41286" lon="5.72246">
        <ele>662.01</ele>
        <time>2014-07-31T12:33:04Z</time>
      </trkpt>
      <trkpt lat="46.4129" lon="5.72304">
        <ele>662.49</ele>
        <time>2014-07-31T12:33:10Z</time>
      </trkpt>
      <trkpt lat="46.41301" lon="5.72322">
        <ele>662.97</ele>
        <time>2014-07-31T12:33:13Z</time>
      </trkpt>
      <trkpt lat="46.41308" lon="5.72346">
        <ele>662.97</ele>
        <time>2014-07-31T12:33:17Z</time>
      </trkpt>
      <trkpt lat="46.41308" lon="5.72359">
        <ele>663.45</ele>
        <time>2014-07-31T12:33:19Z</time>
      </trkpt>
      <trkpt lat="46.41316" lon="5.72381">
        <ele>663.45</ele>
        <time>2014-07-31T12:33:23Z</time>
      </trkpt>
      <trkpt lat="46.41328" lon="5.72397">
        <ele>663.45</ele>
        <time>2014-07-31T12:33:27Z</time>
      </trkpt>
      <trkpt lat="46.41334" lon="5.72406">
        <ele>663.45</ele>
        <time>2014-07-31T12:33:29Z</time>
      </trkpt>
      <trkpt lat="46.41341" lon="5.72431">
        <ele>663.45</ele>
        <time>2014-07-31T12:33:34Z</time>
      </trkpt>
      <trkpt lat="46.41329" lon="5.72485">
        <ele>664.89</ele>
        <time>2014-07-31T12:33:49Z</time>
      </trkpt>
      <trkpt lat="46.41329" lon="5.72485">
        <ele>664.89</ele>
        <time>2014-07-31T12:34:12Z</time>
      </trkpt>
      <trkpt lat="46.41329" lon="5.7249">
        <ele>664.89</ele>
        <time>2014-07-31T12:34:15Z</time>
      </trkpt>
      <trkpt lat="46.41307" lon="5.72527">
        <ele>666.33</ele>
        <time>2014-07-31T12:34:28Z</time>
      </trkpt>
      <trkpt lat="46.4128" lon="5.7257">
        <ele>668.73</ele>
        <time>2014-07-31T12:34:42Z</time>
      </trkpt>
      <trkpt lat="46.41261" lon="5.72597">
        <ele>669.22</ele>
        <time>2014-07-31T12:34:55Z</time>
      </trkpt>
      <trkpt lat="46.4126" lon="5.72598">
        <ele>669.22</ele>
        <time>2014-07-31T12:35:09Z</time>
      </trkpt>
      <trkpt lat="46.4126" lon="5.72598">
        <ele>669.22</ele>
        <time>2014-07-31T12:35:39Z</time>
      </trkpt>
      <trkpt lat="46.4126" lon="5.72598">
        <ele>669.22</ele>
        <time>2014-07-31T12:36:03Z</time>
      </trkpt>
      <trkpt lat="46.4126" lon="5.72598">
        <ele>668.73</ele>
        <time>2014-07-31T12:36:29Z</time>
      </trkpt>
      <trkpt lat="46.4126" lon="5.72598">
        <ele>668.73</ele>
        <time>2014-07-31T12:36:37Z</time>
      </trkpt>
      <trkpt lat="46.41223" lon="5.7267">
        <ele>671.14</ele>
        <time>2014-07-31T12:38:26Z</time>
      </trkpt>
      <trkpt lat="46.41219" lon="5.72683">
        <ele>671.62</ele>
        <time>2014-07-31T12:38:30Z</time>
      </trkpt>
      <trkpt lat="46.4119" lon="5.72759">
        <ele>672.58</ele>
        <time>2014-07-31T12:38:46Z</time>
      </trkpt>
      <trkpt lat="46.41144" lon="5.72878">
        <ele>673.54</ele>
        <time>2014-07-31T12:39:07Z</time>
      </trkpt>
      <trkpt lat="46.41099" lon="5.72997">
        <ele>674.5</ele>
        <time>2014-07-31T12:39:27Z</time>
      </trkpt>
      <trkpt lat="46.41052" lon="5.73121">
        <ele>675.46</ele>
        <time>2014-07-31T12:39:47Z</time>
      </trkpt>
      <trkpt lat="46.41002" lon="5.73258">
        <ele>676.91</ele>
        <time>2014-07-31T12:40:09Z</time>
      </trkpt>
      <trkpt lat="46.40967" lon="5.73341">
        <ele>677.39</ele>
        <time>2014-07-31T12:40:23Z</time>
      </trkpt>
      <trkpt lat="46.40905" lon="5.73416">
        <ele>678.83</ele>
        <time>2014-07-31T12:40:42Z</time>
      </trkpt>
      <trkpt lat="46.40848" lon="5.73444">
        <ele>680.27</ele>
        <time>2014-07-31T12:40:59Z</time>
      </trkpt>
      <trkpt lat="46.40787" lon="5.73442">
        <ele>682.19</ele>
        <time>2014-07-31T12:41:17Z</time>
      </trkpt>
      <trkpt lat="46.40717" lon="5.73439">
        <ele>683.63</ele>
        <time>2014-07-31T12:41:37Z</time>
      </trkpt>
      <trkpt lat="46.40654" lon="5.73435">
        <ele>685.08</ele>
        <time>2014-07-31T12:41:55Z</time>
      </trkpt>
      <trkpt lat="46.40574" lon="5.73428">
        <ele>686.04</ele>
        <time>2014-07-31T12:42:17Z</time>
      </trkpt>
      <trkpt lat="46.40571" lon="5.73427">
        <ele>685.56</ele>
        <time>2014-07-31T12:42:28Z</time>
      </trkpt>
      <trkpt lat="46.40571" lon="5.73427">
        <ele>685.56</ele>
        <time>2014-07-31T12:42:51Z</time>
      </trkpt>
      <trkpt lat="46.40572" lon="5.73427">
        <ele>685.56</ele>
        <time>2014-07-31T12:43:10Z</time>
      </trkpt>
      <trkpt lat="46.40572" lon="5.73427">
        <ele>686.04</ele>
        <time>2014-07-31T12:43:31Z</time>
      </trkpt>
      <trkpt lat="46.40571" lon="5.73427">
        <ele>685.56</ele>
        <time>2014-07-31T12:43:54Z</time>
      </trkpt>
      <trkpt lat="46.40537" lon="5.73423">
        <ele>685.08</ele>
        <time>2014-07-31T12:44:05Z</time>
      </trkpt>
      <trkpt lat="46.40506" lon="5.73422">
        <ele>685.08</ele>
        <time>2014-07-31T12:44:12Z</time>
      </trkpt>
      <trkpt lat="46.40413" lon="5.73413">
        <ele>684.12</ele>
        <time>2014-07-31T12:44:30Z</time>
      </trkpt>
      <trkpt lat="46.40338" lon="5.73394">
        <ele>683.63</ele>
        <time>2014-07-31T12:44:44Z</time>
      </trkpt>
      <trkpt lat="46.40244" lon="5.73382">
        <ele>682.67</ele>
        <time>2014-07-31T12:45:01Z</time>
      </trkpt>
      <trkpt lat="46.40155" lon="5.73382">
        <ele>683.63</ele>
        <time>2014-07-31T12:45:17Z</time>
      </trkpt>
      <trkpt lat="46.40093" lon="5.73384">
        <ele>686.04</ele>
        <time>2014-07-31T12:45:33Z</time>
      </trkpt>
      <trkpt lat="46.40045" lon="5.73386">
        <ele>687.96</ele>
        <time>2014-07-31T12:45:50Z</time>
      </trkpt>
      <trkpt lat="46.40003" lon="5.73386">
        <ele>690.36</ele>
        <time>2014-07-31T12:46:06Z</time>
      </trkpt>
      <trkpt lat="46.39957" lon="5.73391">
        <ele>692.77</ele>
        <time>2014-07-31T12:46:24Z</time>
      </trkpt>
      <trkpt lat="46.39917" lon="5.73402">
        <ele>694.69</ele>
        <time>2014-07-31T12:46:40Z</time>
      </trkpt>
      <trkpt lat="46.39887" lon="5.73411">
        <ele>696.13</ele>
        <time>2014-07-31T12:46:53Z</time>
      </trkpt>
      <trkpt lat="46.39848" lon="5.73428">
        <ele>698.05</ele>
        <time>2014-07-31T12:47:10Z</time>
      </trkpt>
      <trkpt lat="46.398" lon="5.73452">
        <ele>700.46</ele>
        <time>2014-07-31T12:47:30Z</time>
      </trkpt>
      <trkpt lat="46.39756" lon="5.73485">
        <ele>702.38</ele>
        <time>2014-07-31T12:47:49Z</time>
      </trkpt>
      <trkpt lat="46.39722" lon="5.7351">
        <ele>703.82</ele>
        <time>2014-07-31T12:48:04Z</time>
      </trkpt>
      <trkpt lat="46.3968" lon="5.73528">
        <ele>706.23</ele>
        <time>2014-07-31T12:48:22Z</time>
      </trkpt>
      <trkpt lat="46.39641" lon="5.73546">
        <ele>708.15</ele>
        <time>2014-07-31T12:48:39Z</time>
      </trkpt>
      <trkpt lat="46.39613" lon="5.73564">
        <ele>710.07</ele>
        <time>2014-07-31T12:48:55Z</time>
      </trkpt>
      <trkpt lat="46.39587" lon="5.73592">
        <ele>711.51</ele>
        <time>2014-07-31T12:49:11Z</time>
      </trkpt>
      <trkpt lat="46.39562" lon="5.73628">
        <ele>713.44</ele>
        <time>2014-07-31T12:49:29Z</time>
      </trkpt>
      <trkpt lat="46.39537" lon="5.73665">
        <ele>715.36</ele>
        <time>2014-07-31T12:49:46Z</time>
      </trkpt>
      <trkpt lat="46.3951" lon="5.73706">
        <ele>717.28</ele>
        <time>2014-07-31T12:50:03Z</time>
      </trkpt>
      <trkpt lat="46.39483" lon="5.73748">
        <ele>718.24</ele>
        <time>2014-07-31T12:50:20Z</time>
      </trkpt>
      <trkpt lat="46.39459" lon="5.73783">
        <ele>720.16</ele>
        <time>2014-07-31T12:50:35Z</time>
      </trkpt>
      <trkpt lat="46.39426" lon="5.73819">
        <ele>721.61</ele>
        <time>2014-07-31T12:50:53Z</time>
      </trkpt>
      <trkpt lat="46.39392" lon="5.73849">
        <ele>723.53</ele>
        <time>2014-07-31T12:51:10Z</time>
      </trkpt>
      <trkpt lat="46.39361" lon="5.73875">
        <ele>724.97</ele>
        <time>2014-07-31T12:51:26Z</time>
      </trkpt>
      <trkpt lat="46.39322" lon="5.73889">
        <ele>727.37</ele>
        <time>2014-07-31T12:51:43Z</time>
      </trkpt>
      <trkpt lat="46.39282" lon="5.73907">
        <ele>729.3</ele>
        <time>2014-07-31T12:52:01Z</time>
      </trkpt>
      <trkpt lat="46.39258" lon="5.73927">
        <ele>730.26</ele>
        <time>2014-07-31T12:52:15Z</time>
      </trkpt>
      <trkpt lat="46.39258" lon="5.73927">
        <ele>729.78</ele>
        <time>2014-07-31T12:52:36Z</time>
      </trkpt>
      <trkpt lat="46.39258" lon="5.73927">
        <ele>729.78</ele>
        <time>2014-07-31T12:52:46Z</time>
      </trkpt>
      <trkpt lat="46.39246" lon="5.73936">
        <ele>730.74</ele>
        <time>2014-07-31T12:52:53Z</time>
      </trkpt>
      <trkpt lat="46.39213" lon="5.7396">
        <ele>731.7</ele>
        <time>2014-07-31T12:53:09Z</time>
      </trkpt>
      <trkpt lat="46.39178" lon="5.73991">
        <ele>733.62</ele>
        <time>2014-07-31T12:53:27Z</time>
      </trkpt>
      <trkpt lat="46.39153" lon="5.74017">
        <ele>735.07</ele>
        <time>2014-07-31T12:53:41Z</time>
      </trkpt>
      <trkpt lat="46.39128" lon="5.74048">
        <ele>736.51</ele>
        <time>2014-07-31T12:53:56Z</time>
      </trkpt>
      <trkpt lat="46.39102" lon="5.74083">
        <ele>737.95</ele>
        <time>2014-07-31T12:54:12Z</time>
      </trkpt>
      <trkpt lat="46.39077" lon="5.74118">
        <ele>739.87</ele>
        <time>2014-07-31T12:54:28Z</time>
      </trkpt>
      <trkpt lat="46.39051" lon="5.7415">
        <ele>741.79</ele>
        <time>2014-07-31T12:54:43Z</time>
      </trkpt>
      <trkpt lat="46.39024" lon="5.74177">
        <ele>744.2</ele>
        <time>2014-07-31T12:54:58Z</time>
      </trkpt>
      <trkpt lat="46.38986" lon="5.74201">
        <ele>746.6</ele>
        <time>2014-07-31T12:55:16Z</time>
      </trkpt>
      <trkpt lat="46.3895" lon="5.74226">
        <ele>748.04</ele>
        <time>2014-07-31T12:55:32Z</time>
      </trkpt>
      <trkpt lat="46.3891" lon="5.7425">
        <ele>749.97</ele>
        <time>2014-07-31T12:55:50Z</time>
      </trkpt>
      <trkpt lat="46.38867" lon="5.74286">
        <ele>750.93</ele>
        <time>2014-07-31T12:56:07Z</time>
      </trkpt>
      <trkpt lat="46.38818" lon="5.74332">
        <ele>750.45</ele>
        <time>2014-07-31T12:56:23Z</time>
      </trkpt>
      <trkpt lat="46.38815" lon="5.74335">
        <ele>750.45</ele>
        <time>2014-07-31T12:56:24Z</time>
      </trkpt>
      <trkpt lat="46.38786" lon="5.74362">
        <ele>749.97</ele>
        <time>2014-07-31T12:56:31Z</time>
      </trkpt>
      <trkpt lat="46.38742" lon="5.74402">
        <ele>749</ele>
        <time>2014-07-31T12:56:40Z</time>
      </trkpt>
      <trkpt lat="46.38664" lon="5.74462">
        <ele>745.16</ele>
        <time>2014-07-31T12:56:52Z</time>
      </trkpt>
      <trkpt lat="46.38595" lon="5.74504">
        <ele>741.79</ele>
        <time>2014-07-31T12:57:01Z</time>
      </trkpt>
      <trkpt lat="46.38515" lon="5.74557">
        <ele>738.43</ele>
        <time>2014-07-31T12:57:11Z</time>
      </trkpt>
      <trkpt lat="46.38455" lon="5.74632">
        <ele>735.55</ele>
        <time>2014-07-31T12:57:20Z</time>
      </trkpt>
      <trkpt lat="46.3839" lon="5.74762">
        <ele>732.18</ele>
        <time>2014-07-31T12:57:33Z</time>
      </trkpt>
      <trkpt lat="46.38331" lon="5.7489">
        <ele>729.3</ele>
        <time>2014-07-31T12:57:46Z</time>
      </trkpt>
      <trkpt lat="46.38274" lon="5.74996">
        <ele>725.93</ele>
        <time>2014-07-31T12:57:57Z</time>
      </trkpt>
      <trkpt lat="46.38219" lon="5.75073">
        <ele>723.05</ele>
        <time>2014-07-31T12:58:06Z</time>
      </trkpt>
      <trkpt lat="46.38151" lon="5.75165">
        <ele>719.68</ele>
        <time>2014-07-31T12:58:17Z</time>
      </trkpt>
      <trkpt lat="46.38068" lon="5.75293">
        <ele>717.28</ele>
        <time>2014-07-31T12:58:33Z</time>
      </trkpt>
      <trkpt lat="46.37997" lon="5.75342">
        <ele>717.28</ele>
        <time>2014-07-31T12:58:46Z</time>
      </trkpt>
      <trkpt lat="46.37908" lon="5.75406">
        <ele>717.28</ele>
        <time>2014-07-31T12:59:03Z</time>
      </trkpt>
      <trkpt lat="46.37853" lon="5.75445">
        <ele>715.84</ele>
        <time>2014-07-31T12:59:13Z</time>
      </trkpt>
      <trkpt lat="46.37828" lon="5.75464">
        <ele>714.4</ele>
        <time>2014-07-31T12:59:17Z</time>
      </trkpt>
      <trkpt lat="46.37734" lon="5.75517">
        <ele>710.55</ele>
        <time>2014-07-31T12:59:29Z</time>
      </trkpt>
      <trkpt lat="46.37651" lon="5.75561">
        <ele>707.19</ele>
        <time>2014-07-31T12:59:39Z</time>
      </trkpt>
      <trkpt lat="46.37635" lon="5.75572">
        <ele>706.71</ele>
        <time>2014-07-31T12:59:41Z</time>
      </trkpt>
      <trkpt lat="46.37575" lon="5.75656">
        <ele>703.82</ele>
        <time>2014-07-31T12:59:50Z</time>
      </trkpt>
      <trkpt lat="46.37551" lon="5.75743">
        <ele>699.98</ele>
        <time>2014-07-31T12:59:56Z</time>
      </trkpt>
      <trkpt lat="46.37547" lon="5.7579">
        <ele>697.09</ele>
        <time>2014-07-31T12:59:59Z</time>
      </trkpt>
      <trkpt lat="46.37556" lon="5.75858">
        <ele>693.73</ele>
        <time>2014-07-31T13:00:03Z</time>
      </trkpt>
      <trkpt lat="46.37578" lon="5.75927">
        <ele>689.88</ele>
        <time>2014-07-31T13:00:07Z</time>
      </trkpt>
      <trkpt lat="46.37611" lon="5.76">
        <ele>685.56</ele>
        <time>2014-07-31T13:00:12Z</time>
      </trkpt>
      <trkpt lat="46.37629" lon="5.76042">
        <ele>684.12</ele>
        <time>2014-07-31T13:00:15Z</time>
      </trkpt>
      <trkpt lat="46.37629" lon="5.76102">
        <ele>681.71</ele>
        <time>2014-07-31T13:00:19Z</time>
      </trkpt>
      <trkpt lat="46.37621" lon="5.76146">
        <ele>680.75</ele>
        <time>2014-07-31T13:00:22Z</time>
      </trkpt>
      <trkpt lat="46.37614" lon="5.76204">
        <ele>677.87</ele>
        <time>2014-07-31T13:00:26Z</time>
      </trkpt>
      <trkpt lat="46.37604" lon="5.76279">
        <ele>673.54</ele>
        <time>2014-07-31T13:00:31Z</time>
      </trkpt>
      <trkpt lat="46.37602" lon="5.76294">
        <ele>673.54</ele>
        <time>2014-07-31T13:00:32Z</time>
      </trkpt>
      <trkpt lat="46.376" lon="5.76324">
        <ele>672.1</ele>
        <time>2014-07-31T13:00:34Z</time>
      </trkpt>
      <trkpt lat="46.3763" lon="5.76436">
        <ele>668.25</ele>
        <time>2014-07-31T13:00:42Z</time>
      </trkpt>
      <trkpt lat="46.37638" lon="5.76447">
        <ele>667.29</ele>
        <time>2014-07-31T13:00:43Z</time>
      </trkpt>
      <trkpt lat="46.37685" lon="5.7651">
        <ele>663.93</ele>
        <time>2014-07-31T13:00:49Z</time>
      </trkpt>
      <trkpt lat="46.37724" lon="5.76534">
        <ele>661.52</ele>
        <time>2014-07-31T13:00:53Z</time>
      </trkpt>
      <trkpt lat="46.37773" lon="5.76552">
        <ele>658.16</ele>
        <time>2014-07-31T13:00:58Z</time>
      </trkpt>
      <trkpt lat="46.37829" lon="5.7657">
        <ele>654.31</ele>
        <time>2014-07-31T13:01:04Z</time>
      </trkpt>
      <trkpt lat="46.37847" lon="5.76577">
        <ele>653.35</ele>
        <time>2014-07-31T13:01:06Z</time>
      </trkpt>
      <trkpt lat="46.37901" lon="5.76596">
        <ele>650.47</ele>
        <time>2014-07-31T13:01:12Z</time>
      </trkpt>
      <trkpt lat="46.37953" lon="5.7662">
        <ele>647.1</ele>
        <time>2014-07-31T13:01:18Z</time>
      </trkpt>
      <trkpt lat="46.37988" lon="5.76641">
        <ele>644.22</ele>
        <time>2014-07-31T13:01:22Z</time>
      </trkpt>
      <trkpt lat="46.38032" lon="5.7668">
        <ele>640.86</ele>
        <time>2014-07-31T13:01:27Z</time>
      </trkpt>
      <trkpt lat="46.38073" lon="5.76731">
        <ele>637.01</ele>
        <time>2014-07-31T13:01:32Z</time>
      </trkpt>
      <trkpt lat="46.38103" lon="5.76781">
        <ele>634.13</ele>
        <time>2014-07-31T13:01:36Z</time>
      </trkpt>
      <trkpt lat="46.38131" lon="5.76833">
        <ele>631.72</ele>
        <time>2014-07-31T13:01:40Z</time>
      </trkpt>
      <trkpt lat="46.3815" lon="5.76871">
        <ele>628.36</ele>
        <time>2014-07-31T13:01:43Z</time>
      </trkpt>
      <trkpt lat="46.38183" lon="5.76935">
        <ele>624.51</ele>
        <time>2014-07-31T13:01:48Z</time>
      </trkpt>
      <trkpt lat="46.38216" lon="5.76998">
        <ele>621.15</ele>
        <time>2014-07-31T13:01:53Z</time>
      </trkpt>
      <trkpt lat="46.38222" lon="5.77011">
        <ele>620.67</ele>
        <time>2014-07-31T13:01:54Z</time>
      </trkpt>
      <trkpt lat="46.38265" lon="5.77084">
        <ele>616.82</ele>
        <time>2014-07-31T13:02:00Z</time>
      </trkpt>
      <trkpt lat="46.38299" lon="5.77166">
        <ele>613.46</ele>
        <time>2014-07-31T13:02:06Z</time>
      </trkpt>
      <trkpt lat="46.38321" lon="5.77222">
        <ele>610.57</ele>
        <time>2014-07-31T13:02:10Z</time>
      </trkpt>
      <trkpt lat="46.38351" lon="5.77286">
        <ele>607.21</ele>
        <time>2014-07-31T13:02:15Z</time>
      </trkpt>
      <trkpt lat="46.38373" lon="5.77319">
        <ele>605.77</ele>
        <time>2014-07-31T13:02:18Z</time>
      </trkpt>
      <trkpt lat="46.3839" lon="5.7734">
        <ele>604.33</ele>
        <time>2014-07-31T13:02:20Z</time>
      </trkpt>
      <trkpt lat="46.38418" lon="5.77386">
        <ele>601.44</ele>
        <time>2014-07-31T13:02:24Z</time>
      </trkpt>
      <trkpt lat="46.3845" lon="5.7748">
        <ele>597.12</ele>
        <time>2014-07-31T13:02:31Z</time>
      </trkpt>
      <trkpt lat="46.38458" lon="5.77508">
        <ele>596.64</ele>
        <time>2014-07-31T13:02:33Z</time>
      </trkpt>
      <trkpt lat="46.38477" lon="5.77561">
        <ele>593.27</ele>
        <time>2014-07-31T13:02:37Z</time>
      </trkpt>
      <trkpt lat="46.38505" lon="5.77622">
        <ele>590.39</ele>
        <time>2014-07-31T13:02:42Z</time>
      </trkpt>
      <trkpt lat="46.38541" lon="5.77693">
        <ele>587.02</ele>
        <time>2014-07-31T13:02:48Z</time>
      </trkpt>
      <trkpt lat="46.38577" lon="5.77767">
        <ele>583.18</ele>
        <time>2014-07-31T13:02:54Z</time>
      </trkpt>
      <trkpt lat="46.38606" lon="5.77826">
        <ele>579.33</ele>
        <time>2014-07-31T13:02:59Z</time>
      </trkpt>
      <trkpt lat="46.38635" lon="5.77883">
        <ele>576.45</ele>
        <time>2014-07-31T13:03:04Z</time>
      </trkpt>
      <trkpt lat="46.38655" lon="5.77927">
        <ele>574.04</ele>
        <time>2014-07-31T13:03:08Z</time>
      </trkpt>
      <trkpt lat="46.38641" lon="5.78">
        <ele>569.72</ele>
        <time>2014-07-31T13:03:14Z</time>
      </trkpt>
      <trkpt lat="46.38594" lon="5.78023">
        <ele>566.35</ele>
        <time>2014-07-31T13:03:19Z</time>
      </trkpt>
      <trkpt lat="46.38566" lon="5.78001">
        <ele>564.91</ele>
        <time>2014-07-31T13:03:22Z</time>
      </trkpt>
      <trkpt lat="46.38471" lon="5.77891">
        <ele>562.03</ele>
        <time>2014-07-31T13:03:36Z</time>
      </trkpt>
      <trkpt lat="46.38403" lon="5.77808">
        <ele>558.66</ele>
        <time>2014-07-31T13:03:48Z</time>
      </trkpt>
      <trkpt lat="46.38347" lon="5.77742">
        <ele>555.78</ele>
        <time>2014-07-31T13:03:58Z</time>
      </trkpt>
      <trkpt lat="46.38326" lon="5.77716">
        <ele>554.82</ele>
        <time>2014-07-31T13:04:02Z</time>
      </trkpt>
      <trkpt lat="46.38288" lon="5.77717">
        <ele>552.9</ele>
        <time>2014-07-31T13:04:08Z</time>
      </trkpt>
      <trkpt lat="46.38271" lon="5.77724">
        <ele>551.45</ele>
        <time>2014-07-31T13:04:15Z</time>
      </trkpt>
      <trkpt lat="46.38271" lon="5.77724">
        <ele>551.93</ele>
        <time>2014-07-31T13:04:36Z</time>
      </trkpt>
      <trkpt lat="46.38271" lon="5.77724">
        <ele>551.45</ele>
        <time>2014-07-31T13:04:47Z</time>
      </trkpt>
      <trkpt lat="46.3827" lon="5.77732">
        <ele>551.45</ele>
        <time>2014-07-31T13:04:52Z</time>
      </trkpt>
      <trkpt lat="46.38279" lon="5.77757">
        <ele>550.49</ele>
        <time>2014-07-31T13:04:59Z</time>
      </trkpt>
      <trkpt lat="46.38305" lon="5.77852">
        <ele>547.13</ele>
        <time>2014-07-31T13:05:11Z</time>
      </trkpt>
      <trkpt lat="46.38333" lon="5.77934">
        <ele>543.76</ele>
        <time>2014-07-31T13:05:19Z</time>
      </trkpt>
      <trkpt lat="46.38348" lon="5.77978">
        <ele>542.32</ele>
        <time>2014-07-31T13:05:23Z</time>
      </trkpt>
      <trkpt lat="46.38378" lon="5.78052">
        <ele>539.44</ele>
        <time>2014-07-31T13:05:30Z</time>
      </trkpt>
      <trkpt lat="46.38394" lon="5.7812">
        <ele>537.51</ele>
        <time>2014-07-31T13:05:37Z</time>
      </trkpt>
      <trkpt lat="46.38401" lon="5.7814">
        <ele>536.55</ele>
        <time>2014-07-31T13:05:45Z</time>
      </trkpt>
      <trkpt lat="46.38402" lon="5.7814">
        <ele>536.55</ele>
        <time>2014-07-31T13:05:48Z</time>
      </trkpt>
      <trkpt lat="46.38403" lon="5.78143">
        <ele>536.55</ele>
        <time>2014-07-31T13:05:50Z</time>
      </trkpt>
      <trkpt lat="46.38413" lon="5.78154">
        <ele>537.03</ele>
        <time>2014-07-31T13:05:57Z</time>
      </trkpt>
      <trkpt lat="46.38449" lon="5.78196">
        <ele>536.07</ele>
        <time>2014-07-31T13:06:14Z</time>
      </trkpt>
      <trkpt lat="46.38454" lon="5.78205">
        <ele>535.59</ele>
        <time>2014-07-31T13:06:17Z</time>
      </trkpt>
      <trkpt lat="46.38451" lon="5.78194">
        <ele>536.07</ele>
        <time>2014-07-31T13:06:24Z</time>
      </trkpt>
      <trkpt lat="46.38425" lon="5.78155">
        <ele>537.03</ele>
        <time>2014-07-31T13:06:39Z</time>
      </trkpt>
      <trkpt lat="46.384" lon="5.78144">
        <ele>537.03</ele>
        <time>2014-07-31T13:06:50Z</time>
      </trkpt>
      <trkpt lat="46.38399" lon="5.78141">
        <ele>536.55</ele>
        <time>2014-07-31T13:07:06Z</time>
      </trkpt>
      <trkpt lat="46.38399" lon="5.78141">
        <ele>535.59</ele>
        <time>2014-07-31T13:07:10Z</time>
      </trkpt>
      <trkpt lat="46.38399" lon="5.78141">
        <ele>535.59</ele>
        <time>2014-07-31T13:07:11Z</time>
      </trkpt>
      <trkpt lat="46.38421" lon="5.7813">
        <ele>537.99</ele>
        <time>2014-07-31T13:37:26Z</time>
      </trkpt>
      <trkpt lat="46.38423" lon="5.78135">
        <ele>537.99</ele>
        <time>2014-07-31T13:37:27Z</time>
      </trkpt>
      <trkpt lat="46.38424" lon="5.78138">
        <ele>537.99</ele>
        <time>2014-07-31T13:37:28Z</time>
      </trkpt>
      <trkpt lat="46.38453" lon="5.78198">
        <ele>537.03</ele>
        <time>2014-07-31T13:37:43Z</time>
      </trkpt>
      <trkpt lat="46.38465" lon="5.78269">
        <ele>534.15</ele>
        <time>2014-07-31T13:37:53Z</time>
      </trkpt>
      <trkpt lat="46.38472" lon="5.78316">
        <ele>532.71</ele>
        <time>2014-07-31T13:37:59Z</time>
      </trkpt>
      <trkpt lat="46.38489" lon="5.7835">
        <ele>531.27</ele>
        <time>2014-07-31T13:38:04Z</time>
      </trkpt>
      <trkpt lat="46.38534" lon="5.78408">
        <ele>528.38</ele>
        <time>2014-07-31T13:38:13Z</time>
      </trkpt>
      <trkpt lat="46.38563" lon="5.78478">
        <ele>526.46</ele>
        <time>2014-07-31T13:38:21Z</time>
      </trkpt>
      <trkpt lat="46.38607" lon="5.78556">
        <ele>523.09</ele>
        <time>2014-07-31T13:38:30Z</time>
      </trkpt>
      <trkpt lat="46.38612" lon="5.78564">
        <ele>522.61</ele>
        <time>2014-07-31T13:38:31Z</time>
      </trkpt>
      <trkpt lat="46.38617" lon="5.78573">
        <ele>522.13</ele>
        <time>2014-07-31T13:38:32Z</time>
      </trkpt>
      <trkpt lat="46.38642" lon="5.786">
        <ele>520.69</ele>
        <time>2014-07-31T13:38:36Z</time>
      </trkpt>
      <trkpt lat="46.38703" lon="5.78633">
        <ele>517.33</ele>
        <time>2014-07-31T13:38:44Z</time>
      </trkpt>
      <trkpt lat="46.38767" lon="5.78676">
        <ele>514.44</ele>
        <time>2014-07-31T13:38:52Z</time>
      </trkpt>
      <trkpt lat="46.38792" lon="5.78691">
        <ele>513.48</ele>
        <time>2014-07-31T13:38:55Z</time>
      </trkpt>
      <trkpt lat="46.38821" lon="5.78721">
        <ele>511.56</ele>
        <time>2014-07-31T13:38:59Z</time>
      </trkpt>
      <trkpt lat="46.38826" lon="5.78795">
        <ele>509.16</ele>
        <time>2014-07-31T13:39:05Z</time>
      </trkpt>
      <trkpt lat="46.38822" lon="5.78807">
        <ele>508.67</ele>
        <time>2014-07-31T13:39:06Z</time>
      </trkpt>
      <trkpt lat="46.38793" lon="5.78886">
        <ele>505.31</ele>
        <time>2014-07-31T13:39:13Z</time>
      </trkpt>
      <trkpt lat="46.38768" lon="5.78963">
        <ele>501.95</ele>
        <time>2014-07-31T13:39:19Z</time>
      </trkpt>
      <trkpt lat="46.38761" lon="5.78991">
        <ele>500.98</ele>
        <time>2014-07-31T13:39:21Z</time>
      </trkpt>
      <trkpt lat="46.38748" lon="5.79031">
        <ele>498.58</ele>
        <time>2014-07-31T13:39:24Z</time>
      </trkpt>
      <trkpt lat="46.38702" lon="5.79116">
        <ele>494.26</ele>
        <time>2014-07-31T13:39:31Z</time>
      </trkpt>
      <trkpt lat="46.38686" lon="5.79156">
        <ele>492.81</ele>
        <time>2014-07-31T13:39:34Z</time>
      </trkpt>
      <trkpt lat="46.38662" lon="5.79223">
        <ele>489.45</ele>
        <time>2014-07-31T13:39:39Z</time>
      </trkpt>
      <trkpt lat="46.38656" lon="5.79236">
        <ele>488.97</ele>
        <time>2014-07-31T13:39:40Z</time>
      </trkpt>
      <trkpt lat="46.38627" lon="5.7928">
        <ele>486.56</ele>
        <time>2014-07-31T13:39:44Z</time>
      </trkpt>
      <trkpt lat="46.38598" lon="5.79325">
        <ele>483.2</ele>
        <time>2014-07-31T13:39:48Z</time>
      </trkpt>
      <trkpt lat="46.38559" lon="5.79397">
        <ele>480.32</ele>
        <time>2014-07-31T13:39:54Z</time>
      </trkpt>
      <trkpt lat="46.38541" lon="5.79451">
        <ele>477.91</ele>
        <time>2014-07-31T13:39:58Z</time>
      </trkpt>
      <trkpt lat="46.38533" lon="5.79551">
        <ele>473.59</ele>
        <time>2014-07-31T13:40:05Z</time>
      </trkpt>
      <trkpt lat="46.38544" lon="5.79625">
        <ele>470.7</ele>
        <time>2014-07-31T13:40:10Z</time>
      </trkpt>
      <trkpt lat="46.38552" lon="5.79654">
        <ele>468.78</ele>
        <time>2014-07-31T13:40:12Z</time>
      </trkpt>
      <trkpt lat="46.38573" lon="5.79725">
        <ele>465.42</ele>
        <time>2014-07-31T13:40:17Z</time>
      </trkpt>
      <trkpt lat="46.38599" lon="5.79814">
        <ele>462.05</ele>
        <time>2014-07-31T13:40:23Z</time>
      </trkpt>
      <trkpt lat="46.3863" lon="5.79879">
        <ele>459.17</ele>
        <time>2014-07-31T13:40:28Z</time>
      </trkpt>
      <trkpt lat="46.38665" lon="5.79939">
        <ele>456.28</ele>
        <time>2014-07-31T13:40:33Z</time>
      </trkpt>
      <trkpt lat="46.38693" lon="5.79987">
        <ele>452.92</ele>
        <time>2014-07-31T13:40:37Z</time>
      </trkpt>
      <trkpt lat="46.38735" lon="5.80058">
        <ele>449.55</ele>
        <time>2014-07-31T13:40:43Z</time>
      </trkpt>
      <trkpt lat="46.38776" lon="5.80128">
        <ele>446.19</ele>
        <time>2014-07-31T13:40:49Z</time>
      </trkpt>
      <trkpt lat="46.38822" lon="5.80209">
        <ele>442.82</ele>
        <time>2014-07-31T13:40:56Z</time>
      </trkpt>
      <trkpt lat="46.38867" lon="5.803">
        <ele>439.94</ele>
        <time>2014-07-31T13:41:04Z</time>
      </trkpt>
      <trkpt lat="46.3891" lon="5.80394">
        <ele>437.54</ele>
        <time>2014-07-31T13:41:13Z</time>
      </trkpt>
      <trkpt lat="46.38902" lon="5.80465">
        <ele>435.61</ele>
        <time>2014-07-31T13:41:20Z</time>
      </trkpt>
      <trkpt lat="46.38862" lon="5.80469">
        <ele>435.13</ele>
        <time>2014-07-31T13:41:26Z</time>
      </trkpt>
      <trkpt lat="46.38856" lon="5.80463">
        <ele>435.13</ele>
        <time>2014-07-31T13:41:27Z</time>
      </trkpt>
      <trkpt lat="46.38777" lon="5.80368">
        <ele>432.73</ele>
        <time>2014-07-31T13:41:42Z</time>
      </trkpt>
      <trkpt lat="46.38723" lon="5.8031">
        <ele>429.37</ele>
        <time>2014-07-31T13:41:51Z</time>
      </trkpt>
      <trkpt lat="46.38663" lon="5.80294">
        <ele>425.04</ele>
        <time>2014-07-31T13:41:59Z</time>
      </trkpt>
      <trkpt lat="46.38598" lon="5.80283">
        <ele>421.19</ele>
        <time>2014-07-31T13:42:06Z</time>
      </trkpt>
      <trkpt lat="46.38588" lon="5.80283">
        <ele>420.71</ele>
        <time>2014-07-31T13:42:07Z</time>
      </trkpt>
      <trkpt lat="46.3857" lon="5.80281">
        <ele>419.75</ele>
        <time>2014-07-31T13:42:09Z</time>
      </trkpt>
      <trkpt lat="46.3854" lon="5.80278">
        <ele>416.87</ele>
        <time>2014-07-31T13:42:12Z</time>
      </trkpt>
      <trkpt lat="46.3849" lon="5.80265">
        <ele>413.02</ele>
        <time>2014-07-31T13:42:17Z</time>
      </trkpt>
      <trkpt lat="46.38469" lon="5.80247">
        <ele>411.58</ele>
        <time>2014-07-31T13:42:19Z</time>
      </trkpt>
      <trkpt lat="46.38443" lon="5.80217">
        <ele>409.66</ele>
        <time>2014-07-31T13:42:22Z</time>
      </trkpt>
      <trkpt lat="46.38384" lon="5.80207">
        <ele>406.29</ele>
        <time>2014-07-31T13:42:28Z</time>
      </trkpt>
      <trkpt lat="46.38365" lon="5.80242">
        <ele>403.89</ele>
        <time>2014-07-31T13:42:31Z</time>
      </trkpt>
      <trkpt lat="46.38355" lon="5.80269">
        <ele>402.45</ele>
        <time>2014-07-31T13:42:33Z</time>
      </trkpt>
      <trkpt lat="46.38324" lon="5.80313">
        <ele>399.08</ele>
        <time>2014-07-31T13:42:37Z</time>
      </trkpt>
      <trkpt lat="46.38305" lon="5.80328">
        <ele>397.16</ele>
        <time>2014-07-31T13:42:39Z</time>
      </trkpt>
      <trkpt lat="46.38243" lon="5.8036">
        <ele>392.84</ele>
        <time>2014-07-31T13:42:45Z</time>
      </trkpt>
      <trkpt lat="46.38204" lon="5.80392">
        <ele>389.47</ele>
        <time>2014-07-31T13:42:49Z</time>
      </trkpt>
      <trkpt lat="46.38185" lon="5.8041">
        <ele>387.55</ele>
        <time>2014-07-31T13:42:51Z</time>
      </trkpt>
      <trkpt lat="46.38142" lon="5.80414">
        <ele>384.18</ele>
        <time>2014-07-31T13:42:55Z</time>
      </trkpt>
      <trkpt lat="46.3811" lon="5.80359">
        <ele>382.74</ele>
        <time>2014-07-31T13:43:00Z</time>
      </trkpt>
      <trkpt lat="46.38081" lon="5.80366">
        <ele>382.74</ele>
        <time>2014-07-31T13:43:06Z</time>
      </trkpt>
      <trkpt lat="46.38038" lon="5.80468">
        <ele>382.26</ele>
        <time>2014-07-31T13:43:22Z</time>
      </trkpt>
      <trkpt lat="46.37996" lon="5.80578">
        <ele>382.74</ele>
        <time>2014-07-31T13:43:39Z</time>
      </trkpt>
      <trkpt lat="46.37969" lon="5.80653">
        <ele>382.26</ele>
        <time>2014-07-31T13:43:50Z</time>
      </trkpt>
      <trkpt lat="46.37944" lon="5.80753">
        <ele>383.22</ele>
        <time>2014-07-31T13:44:04Z</time>
      </trkpt>
      <trkpt lat="46.37902" lon="5.80861">
        <ele>383.7</ele>
        <time>2014-07-31T13:44:21Z</time>
      </trkpt>
      <trkpt lat="46.37858" lon="5.80945">
        <ele>385.15</ele>
        <time>2014-07-31T13:44:36Z</time>
      </trkpt>
      <trkpt lat="46.37818" lon="5.81047">
        <ele>386.59</ele>
        <time>2014-07-31T13:44:53Z</time>
      </trkpt>
      <trkpt lat="46.37791" lon="5.81133">
        <ele>388.51</ele>
        <time>2014-07-31T13:45:08Z</time>
      </trkpt>
      <trkpt lat="46.37765" lon="5.81221">
        <ele>390.43</ele>
        <time>2014-07-31T13:45:26Z</time>
      </trkpt>
      <trkpt lat="46.37749" lon="5.8129">
        <ele>392.84</ele>
        <time>2014-07-31T13:45:41Z</time>
      </trkpt>
      <trkpt lat="46.37738" lon="5.81391">
        <ele>395.24</ele>
        <time>2014-07-31T13:46:03Z</time>
      </trkpt>
      <trkpt lat="46.37741" lon="5.81473">
        <ele>398.12</ele>
        <time>2014-07-31T13:46:21Z</time>
      </trkpt>
      <trkpt lat="46.3775" lon="5.81536">
        <ele>400.53</ele>
        <time>2014-07-31T13:46:38Z</time>
      </trkpt>
      <trkpt lat="46.37764" lon="5.81592">
        <ele>402.93</ele>
        <time>2014-07-31T13:46:53Z</time>
      </trkpt>
      <trkpt lat="46.37778" lon="5.81637">
        <ele>404.37</ele>
        <time>2014-07-31T13:47:06Z</time>
      </trkpt>
      <trkpt lat="46.37803" lon="5.81708">
        <ele>406.77</ele>
        <time>2014-07-31T13:47:25Z</time>
      </trkpt>
      <trkpt lat="46.3782" lon="5.81761">
        <ele>409.18</ele>
        <time>2014-07-31T13:47:40Z</time>
      </trkpt>
      <trkpt lat="46.37845" lon="5.81828">
        <ele>411.1</ele>
        <time>2014-07-31T13:48:00Z</time>
      </trkpt>
      <trkpt lat="46.37866" lon="5.81886">
        <ele>412.54</ele>
        <time>2014-07-31T13:48:16Z</time>
      </trkpt>
      <trkpt lat="46.37877" lon="5.81946">
        <ele>413.5</ele>
        <time>2014-07-31T13:48:30Z</time>
      </trkpt>
      <trkpt lat="46.37895" lon="5.81978">
        <ele>413.98</ele>
        <time>2014-07-31T13:48:39Z</time>
      </trkpt>
      <trkpt lat="46.37899" lon="5.8198">
        <ele>413.98</ele>
        <time>2014-07-31T13:48:40Z</time>
      </trkpt>
      <trkpt lat="46.37911" lon="5.81998">
        <ele>413.02</ele>
        <time>2014-07-31T13:48:44Z</time>
      </trkpt>
      <trkpt lat="46.37921" lon="5.82029">
        <ele>413.02</ele>
        <time>2014-07-31T13:48:49Z</time>
      </trkpt>
      <trkpt lat="46.37954" lon="5.82121">
        <ele>413.02</ele>
        <time>2014-07-31T13:49:04Z</time>
      </trkpt>
      <trkpt lat="46.37994" lon="5.82231">
        <ele>413.02</ele>
        <time>2014-07-31T13:49:22Z</time>
      </trkpt>
      <trkpt lat="46.38013" lon="5.82281">
        <ele>412.54</ele>
        <time>2014-07-31T13:49:30Z</time>
      </trkpt>
      <trkpt lat="46.38043" lon="5.8236">
        <ele>412.54</ele>
        <time>2014-07-31T13:49:45Z</time>
      </trkpt>
      <trkpt lat="46.38059" lon="5.82402">
        <ele>412.06</ele>
        <time>2014-07-31T13:49:55Z</time>
      </trkpt>
      <trkpt lat="46.38064" lon="5.8241">
        <ele>412.06</ele>
        <time>2014-07-31T13:49:58Z</time>
      </trkpt>
      <trkpt lat="46.38067" lon="5.82408">
        <ele>412.06</ele>
        <time>2014-07-31T13:50:07Z</time>
      </trkpt>
      <trkpt lat="46.38067" lon="5.82408">
        <ele>412.06</ele>
        <time>2014-07-31T13:50:36Z</time>
      </trkpt>
      <trkpt lat="46.38066" lon="5.82407">
        <ele>412.06</ele>
        <time>2014-07-31T13:51:05Z</time>
      </trkpt>
      <trkpt lat="46.38066" lon="5.82407">
        <ele>411.58</ele>
        <time>2014-07-31T13:51:18Z</time>
      </trkpt>
      <trkpt lat="46.38065" lon="5.82398">
        <ele>411.58</ele>
        <time>2014-07-31T13:51:27Z</time>
      </trkpt>
      <trkpt lat="46.38067" lon="5.824">
        <ele>411.58</ele>
        <time>2014-07-31T13:51:29Z</time>
      </trkpt>
      <trkpt lat="46.38074" lon="5.82418">
        <ele>411.58</ele>
        <time>2014-07-31T13:51:37Z</time>
      </trkpt>
      <trkpt lat="46.38075" lon="5.82433">
        <ele>411.58</ele>
        <time>2014-07-31T13:51:49Z</time>
      </trkpt>
      <trkpt lat="46.38075" lon="5.82433">
        <ele>411.1</ele>
        <time>2014-07-31T13:52:15Z</time>
      </trkpt>
      <trkpt lat="46.38075" lon="5.82432">
        <ele>411.1</ele>
        <time>2014-07-31T13:52:31Z</time>
      </trkpt>
      <trkpt lat="46.38077" lon="5.82457">
        <ele>411.1</ele>
        <time>2014-07-31T13:52:37Z</time>
      </trkpt>
      <trkpt lat="46.38088" lon="5.8253">
        <ele>411.1</ele>
        <time>2014-07-31T13:52:47Z</time>
      </trkpt>
      <trkpt lat="46.38078" lon="5.82602">
        <ele>410.14</ele>
        <time>2014-07-31T13:52:55Z</time>
      </trkpt>
      <trkpt lat="46.38073" lon="5.82616">
        <ele>410.14</ele>
        <time>2014-07-31T13:52:57Z</time>
      </trkpt>
      <trkpt lat="46.3807" lon="5.82623">
        <ele>410.14</ele>
        <time>2014-07-31T13:52:58Z</time>
      </trkpt>
      <trkpt lat="46.38051" lon="5.82738">
        <ele>409.66</ele>
        <time>2014-07-31T13:53:13Z</time>
      </trkpt>
      <trkpt lat="46.38065" lon="5.82874">
        <ele>407.26</ele>
        <time>2014-07-31T13:53:29Z</time>
      </trkpt>
      <trkpt lat="46.38095" lon="5.82998">
        <ele>405.33</ele>
        <time>2014-07-31T13:53:43Z</time>
      </trkpt>
      <trkpt lat="46.38101" lon="5.83015">
        <ele>404.85</ele>
        <time>2014-07-31T13:53:45Z</time>
      </trkpt>
      <trkpt lat="46.38109" lon="5.8305">
        <ele>404.85</ele>
        <time>2014-07-31T13:53:49Z</time>
      </trkpt>
      <trkpt lat="46.3811" lon="5.83094">
        <ele>404.37</ele>
        <time>2014-07-31T13:53:54Z</time>
      </trkpt>
      <trkpt lat="46.38104" lon="5.83128">
        <ele>404.37</ele>
        <time>2014-07-31T13:53:58Z</time>
      </trkpt>
      <trkpt lat="46.38075" lon="5.83256">
        <ele>406.29</ele>
        <time>2014-07-31T13:54:16Z</time>
      </trkpt>
      <trkpt lat="46.38052" lon="5.83351">
        <ele>409.18</ele>
        <time>2014-07-31T13:54:34Z</time>
      </trkpt>
      <trkpt lat="46.38042" lon="5.83398">
        <ele>409.66</ele>
        <time>2014-07-31T13:54:43Z</time>
      </trkpt>
      <trkpt lat="46.38042" lon="5.83421">
        <ele>410.14</ele>
        <time>2014-07-31T13:54:47Z</time>
      </trkpt>
      <trkpt lat="46.38036" lon="5.8348">
        <ele>410.62</ele>
        <time>2014-07-31T13:55:00Z</time>
      </trkpt>
      <trkpt lat="46.38048" lon="5.83478">
        <ele>410.62</ele>
        <time>2014-07-31T13:55:05Z</time>
      </trkpt>
      <trkpt lat="46.38053" lon="5.8348">
        <ele>411.1</ele>
        <time>2014-07-31T13:55:07Z</time>
      </trkpt>
      <trkpt lat="46.38061" lon="5.83497">
        <ele>411.58</ele>
        <time>2014-07-31T13:55:13Z</time>
      </trkpt>
      <trkpt lat="46.38065" lon="5.83502">
        <ele>411.58</ele>
        <time>2014-07-31T13:55:24Z</time>
      </trkpt>
      <trkpt lat="46.38065" lon="5.83503">
        <ele>411.58</ele>
        <time>2014-07-31T13:55:35Z</time>
      </trkpt>
      <trkpt lat="46.38051" lon="5.83474">
        <ele>411.1</ele>
        <time>2014-07-31T14:04:46Z</time>
      </trkpt>
      <trkpt lat="46.3805" lon="5.83469">
        <ele>411.1</ele>
        <time>2014-07-31T14:04:47Z</time>
      </trkpt>
      <trkpt lat="46.38041" lon="5.83478">
        <ele>410.62</ele>
        <time>2014-07-31T14:04:53Z</time>
      </trkpt>
      <trkpt lat="46.3804" lon="5.83482">
        <ele>410.62</ele>
        <time>2014-07-31T14:04:55Z</time>
      </trkpt>
      <trkpt lat="46.38029" lon="5.835">
        <ele>411.1</ele>
        <time>2014-07-31T14:05:08Z</time>
      </trkpt>
      <trkpt lat="46.38018" lon="5.83526">
        <ele>411.1</ele>
        <time>2014-07-31T14:05:22Z</time>
      </trkpt>
      <trkpt lat="46.38004" lon="5.83597">
        <ele>412.06</ele>
        <time>2014-07-31T14:05:36Z</time>
      </trkpt>
      <trkpt lat="46.37985" lon="5.83686">
        <ele>413.02</ele>
        <time>2014-07-31T14:05:52Z</time>
      </trkpt>
      <trkpt lat="46.37964" lon="5.83787">
        <ele>414.47</ele>
        <time>2014-07-31T14:06:10Z</time>
      </trkpt>
      <trkpt lat="46.37947" lon="5.83876">
        <ele>415.43</ele>
        <time>2014-07-31T14:06:25Z</time>
      </trkpt>
      <trkpt lat="46.37929" lon="5.83973">
        <ele>417.83</ele>
        <time>2014-07-31T14:06:42Z</time>
      </trkpt>
      <trkpt lat="46.37915" lon="5.84034">
        <ele>419.27</ele>
        <time>2014-07-31T14:06:55Z</time>
      </trkpt>
      <trkpt lat="46.37898" lon="5.8411">
        <ele>421.19</ele>
        <time>2014-07-31T14:07:11Z</time>
      </trkpt>
      <trkpt lat="46.37883" lon="5.84183">
        <ele>423.12</ele>
        <time>2014-07-31T14:07:27Z</time>
      </trkpt>
      <trkpt lat="46.37878" lon="5.84277">
        <ele>425.04</ele>
        <time>2014-07-31T14:07:46Z</time>
      </trkpt>
      <trkpt lat="46.3787" lon="5.84312">
        <ele>425.52</ele>
        <time>2014-07-31T14:07:53Z</time>
      </trkpt>
      <trkpt lat="46.37864" lon="5.84334">
        <ele>425.52</ele>
        <time>2014-07-31T14:07:57Z</time>
      </trkpt>
      <trkpt lat="46.37845" lon="5.84415">
        <ele>425.52</ele>
        <time>2014-07-31T14:08:10Z</time>
      </trkpt>
      <trkpt lat="46.37834" lon="5.84448">
        <ele>425.52</ele>
        <time>2014-07-31T14:08:15Z</time>
      </trkpt>
      <trkpt lat="46.3781" lon="5.84497">
        <ele>424.56</ele>
        <time>2014-07-31T14:08:22Z</time>
      </trkpt>
      <trkpt lat="46.37797" lon="5.84582">
        <ele>423.6</ele>
        <time>2014-07-31T14:08:32Z</time>
      </trkpt>
      <trkpt lat="46.37797" lon="5.84729">
        <ele>421.19</ele>
        <time>2014-07-31T14:08:47Z</time>
      </trkpt>
      <trkpt lat="46.37805" lon="5.84772">
        <ele>421.19</ele>
        <time>2014-07-31T14:08:52Z</time>
      </trkpt>
      <trkpt lat="46.37842" lon="5.84892">
        <ele>421.19</ele>
        <time>2014-07-31T14:09:08Z</time>
      </trkpt>
      <trkpt lat="46.37885" lon="5.85006">
        <ele>422.16</ele>
        <time>2014-07-31T14:09:25Z</time>
      </trkpt>
      <trkpt lat="46.37899" lon="5.85035">
        <ele>422.16</ele>
        <time>2014-07-31T14:09:30Z</time>
      </trkpt>
      <trkpt lat="46.37948" lon="5.85112">
        <ele>421.19</ele>
        <time>2014-07-31T14:09:42Z</time>
      </trkpt>
      <trkpt lat="46.38024" lon="5.85209">
        <ele>420.71</ele>
        <time>2014-07-31T14:09:58Z</time>
      </trkpt>
      <trkpt lat="46.3807" lon="5.85266">
        <ele>420.71</ele>
        <time>2014-07-31T14:10:08Z</time>
      </trkpt>
      <trkpt lat="46.38082" lon="5.85295">
        <ele>421.19</ele>
        <time>2014-07-31T14:10:12Z</time>
      </trkpt>
      <trkpt lat="46.38099" lon="5.85325">
        <ele>421.68</ele>
        <time>2014-07-31T14:10:17Z</time>
      </trkpt>
      <trkpt lat="46.38165" lon="5.85399">
        <ele>423.12</ele>
        <time>2014-07-31T14:10:33Z</time>
      </trkpt>
      <trkpt lat="46.38216" lon="5.85485">
        <ele>424.56</ele>
        <time>2014-07-31T14:10:50Z</time>
      </trkpt>
      <trkpt lat="46.38227" lon="5.85571">
        <ele>426.48</ele>
        <time>2014-07-31T14:11:05Z</time>
      </trkpt>
      <trkpt lat="46.38228" lon="5.85596">
        <ele>427.44</ele>
        <time>2014-07-31T14:11:14Z</time>
      </trkpt>
      <trkpt lat="46.38228" lon="5.856">
        <ele>427.44</ele>
        <time>2014-07-31T14:11:19Z</time>
      </trkpt>
      <trkpt lat="46.38229" lon="5.85605">
        <ele>427.44</ele>
        <time>2014-07-31T14:11:36Z</time>
      </trkpt>
      <trkpt lat="46.38229" lon="5.85605">
        <ele>427.44</ele>
        <time>2014-07-31T14:12:03Z</time>
      </trkpt>
      <trkpt lat="46.38226" lon="5.85611">
        <ele>427.44</ele>
        <time>2014-07-31T14:12:17Z</time>
      </trkpt>
      <trkpt lat="46.38226" lon="5.85611">
        <ele>427.92</ele>
        <time>2014-07-31T14:12:19Z</time>
      </trkpt>
      <trkpt lat="46.38224" lon="5.85615">
        <ele>427.44</ele>
        <time>2014-07-31T14:12:22Z</time>
      </trkpt>
      <trkpt lat="46.38199" lon="5.85648">
        <ele>428.4</ele>
        <time>2014-07-31T14:12:35Z</time>
      </trkpt>
      <trkpt lat="46.38159" lon="5.85643">
        <ele>428.89</ele>
        <time>2014-07-31T14:12:46Z</time>
      </trkpt>
      <trkpt lat="46.38118" lon="5.85637">
        <ele>430.33</ele>
        <time>2014-07-31T14:12:58Z</time>
      </trkpt>
      <trkpt lat="46.38102" lon="5.85647">
        <ele>429.85</ele>
        <time>2014-07-31T14:13:03Z</time>
      </trkpt>
      <trkpt lat="46.38091" lon="5.85665">
        <ele>430.33</ele>
        <time>2014-07-31T14:13:07Z</time>
      </trkpt>
      <trkpt lat="46.38084" lon="5.85732">
        <ele>431.29</ele>
        <time>2014-07-31T14:13:20Z</time>
      </trkpt>
      <trkpt lat="46.38107" lon="5.85827">
        <ele>432.73</ele>
        <time>2014-07-31T14:13:38Z</time>
      </trkpt>
      <trkpt lat="46.38126" lon="5.85913">
        <ele>434.65</ele>
        <time>2014-07-31T14:13:55Z</time>
      </trkpt>
      <trkpt lat="46.38141" lon="5.85988">
        <ele>436.58</ele>
        <time>2014-07-31T14:14:11Z</time>
      </trkpt>
      <trkpt lat="46.38164" lon="5.86047">
        <ele>438.02</ele>
        <time>2014-07-31T14:14:25Z</time>
      </trkpt>
      <trkpt lat="46.38176" lon="5.86071">
        <ele>438.02</ele>
        <time>2014-07-31T14:14:30Z</time>
      </trkpt>
      <trkpt lat="46.38201" lon="5.86103">
        <ele>438.5</ele>
        <time>2014-07-31T14:14:38Z</time>
      </trkpt>
      <trkpt lat="46.38239" lon="5.86132">
        <ele>438.98</ele>
        <time>2014-07-31T14:14:48Z</time>
      </trkpt>
      <trkpt lat="46.38299" lon="5.8618">
        <ele>439.94</ele>
        <time>2014-07-31T14:15:03Z</time>
      </trkpt>
      <trkpt lat="46.38307" lon="5.86185">
        <ele>439.94</ele>
        <time>2014-07-31T14:15:05Z</time>
      </trkpt>
      <trkpt lat="46.38364" lon="5.86228">
        <ele>441.86</ele>
        <time>2014-07-31T14:15:21Z</time>
      </trkpt>
      <trkpt lat="46.38392" lon="5.86258">
        <ele>442.82</ele>
        <time>2014-07-31T14:15:29Z</time>
      </trkpt>
      <trkpt lat="46.38394" lon="5.86308">
        <ele>442.82</ele>
        <time>2014-07-31T14:15:37Z</time>
      </trkpt>
      <trkpt lat="46.38399" lon="5.86324">
        <ele>442.82</ele>
        <time>2014-07-31T14:15:40Z</time>
      </trkpt>
      <trkpt lat="46.38409" lon="5.86336">
        <ele>442.82</ele>
        <time>2014-07-31T14:15:43Z</time>
      </trkpt>
      <trkpt lat="46.38419" lon="5.86342">
        <ele>442.82</ele>
        <time>2014-07-31T14:15:46Z</time>
      </trkpt>
      <trkpt lat="46.38429" lon="5.86347">
        <ele>442.82</ele>
        <time>2014-07-31T14:15:48Z</time>
      </trkpt>
      <trkpt lat="46.38445" lon="5.86359">
        <ele>442.34</ele>
        <time>2014-07-31T14:15:51Z</time>
      </trkpt>
      <trkpt lat="46.38507" lon="5.86408">
        <ele>442.34</ele>
        <time>2014-07-31T14:16:06Z</time>
      </trkpt>
      <trkpt lat="46.3858" lon="5.86461">
        <ele>441.86</ele>
        <time>2014-07-31T14:16:23Z</time>
      </trkpt>
      <trkpt lat="46.38618" lon="5.86489">
        <ele>441.86</ele>
        <time>2014-07-31T14:16:32Z</time>
      </trkpt>
      <trkpt lat="46.38671" lon="5.86527">
        <ele>441.86</ele>
        <time>2014-07-31T14:16:45Z</time>
      </trkpt>
      <trkpt lat="46.38683" lon="5.86557">
        <ele>441.86</ele>
        <time>2014-07-31T14:16:50Z</time>
      </trkpt>
      <trkpt lat="46.38681" lon="5.86575">
        <ele>441.38</ele>
        <time>2014-07-31T14:16:53Z</time>
      </trkpt>
      <trkpt lat="46.38667" lon="5.86668">
        <ele>441.38</ele>
        <time>2014-07-31T14:17:07Z</time>
      </trkpt>
      <trkpt lat="46.38652" lon="5.86728">
        <ele>441.38</ele>
        <time>2014-07-31T14:17:19Z</time>
      </trkpt>
      <trkpt lat="46.38628" lon="5.86756">
        <ele>441.86</ele>
        <time>2014-07-31T14:17:31Z</time>
      </trkpt>
      <trkpt lat="46.38628" lon="5.86756">
        <ele>441.38</ele>
        <time>2014-07-31T14:17:35Z</time>
      </trkpt>
      <trkpt lat="46.38622" lon="5.86763">
        <ele>441.86</ele>
        <time>2014-07-31T14:17:39Z</time>
      </trkpt>
      <trkpt lat="46.3859" lon="5.868">
        <ele>441.86</ele>
        <time>2014-07-31T14:17:51Z</time>
      </trkpt>
      <trkpt lat="46.38578" lon="5.86813">
        <ele>441.86</ele>
        <time>2014-07-31T14:17:54Z</time>
      </trkpt>
      <trkpt lat="46.38535" lon="5.86837">
        <ele>442.34</ele>
        <time>2014-07-31T14:18:04Z</time>
      </trkpt>
      <trkpt lat="46.38528" lon="5.86846">
        <ele>442.34</ele>
        <time>2014-07-31T14:18:06Z</time>
      </trkpt>
      <trkpt lat="46.38512" lon="5.86876">
        <ele>442.34</ele>
        <time>2014-07-31T14:18:12Z</time>
      </trkpt>
      <trkpt lat="46.38475" lon="5.86921">
        <ele>442.82</ele>
        <time>2014-07-31T14:18:22Z</time>
      </trkpt>
      <trkpt lat="46.38443" lon="5.86974">
        <ele>442.82</ele>
        <time>2014-07-31T14:18:32Z</time>
      </trkpt>
      <trkpt lat="46.3839" lon="5.87023">
        <ele>442.82</ele>
        <time>2014-07-31T14:18:45Z</time>
      </trkpt>
      <trkpt lat="46.38346" lon="5.87037">
        <ele>443.79</ele>
        <time>2014-07-31T14:18:57Z</time>
      </trkpt>
      <trkpt lat="46.38337" lon="5.87034">
        <ele>443.79</ele>
        <time>2014-07-31T14:19:00Z</time>
      </trkpt>
      <trkpt lat="46.38292" lon="5.87007">
        <ele>442.34</ele>
        <time>2014-07-31T14:19:10Z</time>
      </trkpt>
      <trkpt lat="46.38273" lon="5.87008">
        <ele>442.34</ele>
        <time>2014-07-31T14:19:14Z</time>
      </trkpt>
      <trkpt lat="46.38259" lon="5.87017">
        <ele>442.34</ele>
        <time>2014-07-31T14:19:17Z</time>
      </trkpt>
      <trkpt lat="46.38238" lon="5.87045">
        <ele>441.86</ele>
        <time>2014-07-31T14:19:23Z</time>
      </trkpt>
      <trkpt lat="46.3823" lon="5.87059">
        <ele>441.86</ele>
        <time>2014-07-31T14:19:26Z</time>
      </trkpt>
      <trkpt lat="46.38216" lon="5.87081">
        <ele>442.82</ele>
        <time>2014-07-31T14:19:31Z</time>
      </trkpt>
      <trkpt lat="46.38207" lon="5.87099">
        <ele>443.31</ele>
        <time>2014-07-31T14:19:35Z</time>
      </trkpt>
      <trkpt lat="46.38193" lon="5.87118">
        <ele>443.31</ele>
        <time>2014-07-31T14:19:40Z</time>
      </trkpt>
      <trkpt lat="46.38188" lon="5.87125">
        <ele>443.31</ele>
        <time>2014-07-31T14:19:42Z</time>
      </trkpt>
      <trkpt lat="46.38151" lon="5.87216">
        <ele>442.82</ele>
        <time>2014-07-31T14:19:57Z</time>
      </trkpt>
      <trkpt lat="46.38131" lon="5.87256">
        <ele>442.82</ele>
        <time>2014-07-31T14:20:05Z</time>
      </trkpt>
      <trkpt lat="46.3808" lon="5.87348">
        <ele>443.31</ele>
        <time>2014-07-31T14:20:22Z</time>
      </trkpt>
      <trkpt lat="46.38046" lon="5.87421">
        <ele>443.79</ele>
        <time>2014-07-31T14:20:34Z</time>
      </trkpt>
      <trkpt lat="46.38024" lon="5.87453">
        <ele>443.79</ele>
        <time>2014-07-31T14:20:40Z</time>
      </trkpt>
      <trkpt lat="46.38006" lon="5.87466">
        <ele>443.79</ele>
        <time>2014-07-31T14:20:44Z</time>
      </trkpt>
      <trkpt lat="46.37969" lon="5.87471">
        <ele>443.79</ele>
        <time>2014-07-31T14:20:51Z</time>
      </trkpt>
      <trkpt lat="46.37958" lon="5.8747">
        <ele>443.79</ele>
        <time>2014-07-31T14:20:53Z</time>
      </trkpt>
      <trkpt lat="46.37904" lon="5.87442">
        <ele>443.79</ele>
        <time>2014-07-31T14:21:03Z</time>
      </trkpt>
      <trkpt lat="46.37866" lon="5.87435">
        <ele>442.34</ele>
        <time>2014-07-31T14:21:09Z</time>
      </trkpt>
      <trkpt lat="46.37784" lon="5.87382">
        <ele>439.94</ele>
        <time>2014-07-31T14:21:22Z</time>
      </trkpt>
      <trkpt lat="46.37778" lon="5.87377">
        <ele>439.46</ele>
        <time>2014-07-31T14:21:23Z</time>
      </trkpt>
      <trkpt lat="46.37727" lon="5.87282">
        <ele>437.06</ele>
        <time>2014-07-31T14:21:36Z</time>
      </trkpt>
      <trkpt lat="46.37715" lon="5.87258">
        <ele>436.58</ele>
        <time>2014-07-31T14:21:39Z</time>
      </trkpt>
      <trkpt lat="46.37684" lon="5.87269">
        <ele>436.1</ele>
        <time>2014-07-31T14:21:45Z</time>
      </trkpt>
      <trkpt lat="46.37674" lon="5.8729">
        <ele>435.61</ele>
        <time>2014-07-31T14:21:48Z</time>
      </trkpt>
      <trkpt lat="46.3767" lon="5.87304">
        <ele>435.61</ele>
        <time>2014-07-31T14:21:50Z</time>
      </trkpt>
      <trkpt lat="46.37661" lon="5.87324">
        <ele>434.65</ele>
        <time>2014-07-31T14:21:59Z</time>
      </trkpt>
      <trkpt lat="46.37661" lon="5.87323">
        <ele>434.65</ele>
        <time>2014-07-31T14:22:00Z</time>
      </trkpt>
      <trkpt lat="46.37657" lon="5.87327">
        <ele>434.65</ele>
        <time>2014-07-31T14:22:03Z</time>
      </trkpt>
      <trkpt lat="46.37636" lon="5.87356">
        <ele>432.73</ele>
        <time>2014-07-31T14:22:10Z</time>
      </trkpt>
      <trkpt lat="46.37626" lon="5.87396">
        <ele>431.29</ele>
        <time>2014-07-31T14:22:15Z</time>
      </trkpt>
      <trkpt lat="46.37624" lon="5.87415">
        <ele>430.33</ele>
        <time>2014-07-31T14:22:17Z</time>
      </trkpt>
      <trkpt lat="46.37607" lon="5.87453">
        <ele>427.44</ele>
        <time>2014-07-31T14:22:22Z</time>
      </trkpt>
      <trkpt lat="46.37581" lon="5.87441">
        <ele>427.44</ele>
        <time>2014-07-31T14:22:26Z</time>
      </trkpt>
      <trkpt lat="46.37554" lon="5.87422">
        <ele>427.92</ele>
        <time>2014-07-31T14:22:31Z</time>
      </trkpt>
      <trkpt lat="46.37538" lon="5.87418">
        <ele>428.89</ele>
        <time>2014-07-31T14:22:35Z</time>
      </trkpt>
      <trkpt lat="46.37496" lon="5.87408">
        <ele>430.33</ele>
        <time>2014-07-31T14:22:47Z</time>
      </trkpt>
      <trkpt lat="46.37448" lon="5.8738">
        <ele>431.29</ele>
        <time>2014-07-31T14:23:01Z</time>
      </trkpt>
      <trkpt lat="46.3738" lon="5.87337">
        <ele>430.81</ele>
        <time>2014-07-31T14:23:18Z</time>
      </trkpt>
      <trkpt lat="46.37339" lon="5.87303">
        <ele>431.77</ele>
        <time>2014-07-31T14:23:30Z</time>
      </trkpt>
      <trkpt lat="46.37282" lon="5.87262">
        <ele>433.69</ele>
        <time>2014-07-31T14:23:47Z</time>
      </trkpt>
      <trkpt lat="46.37226" lon="5.87261">
        <ele>435.13</ele>
        <time>2014-07-31T14:24:02Z</time>
      </trkpt>
      <trkpt lat="46.37191" lon="5.87262">
        <ele>435.61</ele>
        <time>2014-07-31T14:24:11Z</time>
      </trkpt>
      <trkpt lat="46.37165" lon="5.87251">
        <ele>434.17</ele>
        <time>2014-07-31T14:24:19Z</time>
      </trkpt>
      <trkpt lat="46.37157" lon="5.87234">
        <ele>433.21</ele>
        <time>2014-07-31T14:24:23Z</time>
      </trkpt>
      <trkpt lat="46.37156" lon="5.87204">
        <ele>432.25</ele>
        <time>2014-07-31T14:24:34Z</time>
      </trkpt>
      <trkpt lat="46.37157" lon="5.87204">
        <ele>432.25</ele>
        <time>2014-07-31T14:24:49Z</time>
      </trkpt>
    </trkseg>
  </trk>
</gpx>